GFSMW_con_mlcape_000.txt.gz
CAPE
525 727 967 1088 1122 1278 1587 1783 1635 1705 1994 1807 1083 1142 1003 1139 1159 1153 1895 1709 1610 1542 1477 1045 1115 1175 1046 599 314 75 21 2 31 2 13 43 51 35 6 1 0 0 0
527 842 1070 1027 1057 1342 1691 1942 1993 1914 2040 1592 1385 1142 1155 1142 1309 1479 1601 1770 1705 1713 1478 1339 1248 1267 276 451 111 20 3 11 20 17 7 11 57 48 34 0 0 0 0
629 684 836 990 1039 1230 1714 1958 2192 2265 2232 1425 1482 1840 1652 1630 1563 1558 1837 2155 2170 2100 1964 1825 1156 986 110 1 35 17 8 4 131 115 4 7 12 10 40 33 0 0 0
764 769 719 886 979 1105 1463 1957 2357 2564 2419 2117 1679 1709 1562 1111 807 1062 976 1664 2242 2026 1910 1678 1265 168 0 0 17 5 1 17 14 13 10 16 24 19 23 30 6 0 0
545 714 761 655 939 1042 1285 1685 2302 2593 2592 2315 2368 2166 2053 1124 896 1011 1520 1759 1713 1985 1242 1630 504 92 0 69 23 2 11 13 6 10 24 27 12 0 2 0 10 10 6
129 447 577 570 741 922 1132 1368 1941 2580 2746 2749 2722 2570 1947 1628 915 1353 1067 638 691 1166 1304 1536 517 42 0 48 15 0 2 0 0 22 36 12 9 15 6 2 1 5 4
93 198 430 567 737 873 1028 1301 1677 2280 2597 2657 2547 2652 2567 2330 1998 1869 1176 441 376 437 814 1546 563 99 137 35 0 0 2 1 4 14 23 33 31 37 26 22 17 22 26
113 120 292 471 736 858 1031 1281 1532 2128 2458 2480 2600 2784 2780 2537 2292 2114 1243 772 396 164 266 1318 469 169 99 69 0 0 1 12 11 9 26 31 40 38 44 32 44 27 20
235 95 232 420 624 832 1103 1427 1788 2099 2253 2286 2535 2771 2875 2680 1929 1785 2080 1267 911 243 685 715 383 106 127 19 0 0 1 0 0 2 11 30 19 31 44 57 42 25 6
300 125 184 325 535 802 1021 1402 1725 2019 2174 2151 2323 2421 2558 2738 2527 2344 2167 1347 1298 954 574 435 146 84 90 21 20 0 0 0 0 0 0 2 9 42 56 53 41 25 10
399 338 194 249 573 663 840 1269 1695 1959 2171 2186 2229 2185 2155 2305 2642 2539 2826 2470 1744 895 582 444 109 109 73 26 20 12 0 0 0 0 0 24 101 55 37 44 20 30 23
356 519 462 444 501 759 712 952 1331 1775 2080 2162 2394 2240 2143 2151 2415 2700 2545 1715 1247 418 358 268 174 64 45 43 70 18 0 0 0 0 5 92 99 94 81 85 80 72 59
417 649 690 743 788 799 1016 1080 1460 1673 1859 2125 2300 2225 2087 2226 2275 2355 1404 981 364 0 8 0 3 81 83 41 92 135 80 2 0 6 62 94 130 73 84 89 36 71 68
476 765 787 969 1074 1086 1428 1561 1508 1727 1922 2014 2336 2396 2227 2146 2248 1595 401 199 0 0 0 0 0 18 190 109 157 163 156 27 22 100 184 236 283 125 109 79 105 128 96
356 790 994 1323 1585 1522 1637 1793 1847 1882 1950 2149 2244 2473 2458 2233 1556 871 317 67 0 0 0 0 0 0 186 114 173 158 96 95 160 219 314 366 480 192 129 69 43 79 32
338 890 1188 1416 1757 1788 1927 2037 2089 1992 2137 2282 2404 2426 2505 1825 875 604 395 100 0 0 0 0 0 0 33 8 5 74 137 191 331 404 495 431 246 330 111 27 0 0 0
354 697 1072 1361 1808 1926 2143 2136 2132 2094 2148 2343 2436 2594 2306 1507 752 568 499 300 3 0 0 0 0 0 17 12 14 37 80 160 291 595 349 235 147 179 257 162 47 0 0
737 815 962 1322 1537 1551 1676 1664 1845 1957 2119 2375 2429 2475 1963 1334 968 648 659 336 46 0 22 28 2 0 0 110 37 28 167 300 661 520 259 136 125 138 212 214 97 89 100
978 1008 983 1202 1272 1058 1274 1347 1539 1768 2001 2192 2253 1991 1622 1190 928 824 661 606 175 61 246 299 210 128 137 124 43 54 156 343 440 180 79 16 16 141 11 22 51 79 77
663 780 703 944 889 785 968 1229 1425 1761 1984 2119 2102 1712 1406 1252 969 1015 874 550 575 357 247 301 261 133 398 57 2 14 166 187 55 66 69 46 59 0 0 0 29 14 23
815 827 740 604 706 809 1052 1175 1411 1607 1875 2109 1997 1503 1387 1560 1364 1138 806 778 650 425 490 394 376 316 48 259 12 0 112 87 51 42 94 133 0 0 0 0 0 0 0
540 449 663 967 1144 1173 1353 1364 1520 1992 2174 2198 1802 1548 1553 1459 1510 1041 743 535 494 592 480 405 614 346 530 197 33 1 4 27 137 282 145 13 0 0 0 0 0 0 0
405 539 912 1293 1575 1808 1822 1920 2543 2417 2288 1892 1642 1538 1398 1229 1200 950 636 578 533 579 466 497 571 411 579 208 0 0 0 1 230 236 14 0 0 0 0 0 0 0 0
758 748 836 968 1097 1521 1795 2208 1751 2043 2076 1679 1646 1385 1422 1172 894 847 807 855 837 747 641 684 551 264 374 265 23 0 0 0 0 0 0 0 0 0 0 0 0 0 0
931 843 933 1376 1499 1756 1849 1868 1773 1745 1733 1532 1446 1330 1047 989 1230 777 425 802 137 155 370 259 97 55 272 354 195 48 51 57 8 0 0 0 1 1 4 5 1 0 0
1308 1418 1503 1799 1960 1977 1934 1979 1778 1753 1689 1238 1288 1199 1180 1278 1161 611 69 0 0 0 0 0 44 95 27 1 0 0 0 0 0 0 0 0 0 0 1 2 0 0 0

GFSMW_con_mlcape_003.txt.gz
CAPE
393 431 607 599 570 676 1002 1380 1560 1794 1651 1566 1653 1456 1188 1269 1223 963 1675 2309 1844 1758 1763 1536 1357 1115 1139 715 132 19 2 14 27 0 24 38 19 21 15 1 0 0 0
184 454 626 647 574 834 1105 1487 1753 2015 1875 1738 1737 1687 1334 993 886 903 1305 1783 1731 1587 1559 1594 1042 1020 768 672 194 5 0 13 36 18 3 54 136 31 14 0 0 0 0
44 334 519 653 733 952 1222 1784 2260 2415 2297 2123 1788 1696 1624 1502 1524 1178 1570 1904 2017 1999 2061 1843 1709 1623 596 0 130 0 0 0 44 23 0 11 44 30 33 32 0 0 0
70 134 580 791 760 916 1297 1799 2485 2563 2664 2408 1877 1704 1243 786 419 476 629 1347 2114 1934 1950 1924 1263 1250 0 79 0 0 0 0 3 7 3 0 0 0 46 44 19 0 0
137 173 456 727 781 861 1181 1680 2517 2848 2765 2604 2076 1505 1381 710 880 474 1252 1225 2272 1555 1164 1042 1447 755 0 7 0 0 0 30 0 1 10 16 3 0 0 1 22 12 18
112 431 374 557 684 839 1084 1517 2592 3083 3210 2937 2494 1873 1719 1245 662 636 1268 1147 846 1279 952 718 1306 542 0 23 5 1 3 2 7 1 3 10 5 22 16 6 5 17 20
241 274 612 640 733 911 1161 1504 2324 3336 3302 2920 2772 2514 2207 1923 1719 1737 1408 886 347 543 1399 906 1652 552 54 22 2 0 10 7 6 4 13 15 9 17 16 12 21 15 22
437 150 421 709 956 925 1397 1558 2015 3066 3431 3070 2999 3068 2903 2161 1627 1686 1516 936 606 423 691 1160 1133 713 52 83 27 0 0 7 2 0 0 14 26 30 45 34 42 15 29
362 291 207 499 768 818 1264 1596 2017 2666 3111 2536 3393 3304 3165 2833 1612 1691 1806 1654 1006 453 213 746 782 519 101 149 31 0 5 0 0 1 7 5 6 14 26 32 32 41 20
336 365 214 338 585 728 1095 1605 2058 2656 2616 2635 3140 3107 3114 3218 2702 2394 2168 1709 1381 803 599 806 711 402 131 231 94 18 0 0 0 0 0 4 2 0 13 36 42 24 13
190 472 284 268 431 523 762 1257 1735 2289 2673 2749 2575 2660 2707 2819 2859 2570 2200 2207 1496 1664 804 955 583 173 161 166 115 62 13 33 21 3 0 0 36 0 12 23 29 15 18
83 313 420 261 326 537 486 755 1110 1461 2267 2673 2911 2868 2810 2675 2627 2697 2551 2570 2021 1771 961 732 596 61 77 54 104 87 7 4 2 0 0 25 61 240 299 26 62 54 32
53 232 342 359 444 509 549 442 949 1038 1544 2392 2696 2849 2602 2765 2596 2717 2769 2788 2593 1807 882 599 444 24 11 36 60 64 70 36 14 5 36 108 222 254 192 236 121 72 95
246 214 429 490 581 675 773 710 753 753 1232 1843 2064 2668 2906 2750 2572 2812 2725 2606 2115 1393 531 392 181 31 93 81 82 94 110 152 117 79 140 209 285 322 296 300 339 242 198
134 549 706 989 1168 984 1215 1189 975 1198 1360 2007 2175 2725 3144 2755 2591 2662 2884 2246 1639 962 350 117 74 57 96 183 272 122 95 247 261 94 177 286 380 449 332 329 168 150 127
0 530 969 1090 1738 1533 1819 1821 1691 1822 1962 2542 2603 2998 3362 2942 2615 2752 2573 1719 1316 657 209 4 0 17 0 0 17 101 27 145 173 138 263 441 661 222 145 134 135 48 13
0 146 915 1260 1645 1734 2205 2175 2363 2156 2419 2755 3033 3350 3637 3138 2641 2467 1964 1450 909 585 159 0 19 18 103 0 0 0 36 56 128 201 341 735 349 225 253 139 76 17 44
0 12 750 1385 1866 1867 1899 1978 2357 2662 2928 3104 3188 3416 3535 3039 2252 1682 1484 1224 1153 872 349 98 21 30 114 0 0 0 1 9 76 223 510 662 547 410 108 85 62 123 331
11 170 1075 1445 2165 2122 2343 2517 2560 2817 2990 3054 3261 3484 3544 2822 2074 1525 1336 1412 1427 1307 532 176 69 230 281 0 0 0 6 60 158 329 540 735 277 74 27 22 24 118 165
89 512 1290 1612 2293 2340 2333 2480 2404 2608 2881 3035 3205 3433 3231 2418 1856 1398 1306 1481 1720 1341 649 347 355 538 575 88 1 11 47 66 85 404 808 132 43 53 21 51 97 169 175
974 1677 1560 2137 2180 2151 1935 2119 2141 2309 2415 2575 2803 3016 2517 1910 1582 1462 1566 1372 1333 955 501 331 607 751 752 435 24 4 55 38 104 281 233 77 6 0 0 0 0 66 0
1208 1363 1571 1785 1697 1729 1870 1957 2029 2298 2506 2604 2675 2360 1931 1695 1692 1550 1347 1083 911 944 812 727 973 941 780 301 21 0 0 60 214 225 161 292 0 0 0 0 0 0 0
1305 1221 1170 1273 1296 1652 1945 2156 2631 2707 2756 2832 2344 1920 1774 1807 1952 1765 1537 1134 1086 885 882 1010 761 745 689 652 9 0 0 0 26 173 0 1 0 0 0 0 0 0 0
856 977 1152 1567 1974 1920 2013 2842 2916 2858 2920 2445 1865 1693 1738 1720 1591 1729 1173 754 653 769 942 980 1039 950 795 457 206 17 1 0 3 0 3 0 0 0 0 0 0 0 0
766 943 1246 1616 1880 2286 2716 2505 2805 2872 2297 1990 1924 2163 1832 1586 1458 924 646 970 866 522 887 864 744 721 380 500 347 45 68 121 74 57 34 0 1 7 9 7 2 6 9
1031 1134 1171 1583 1967 2236 2359 2374 2472 2583 2393 2161 2118 1979 1660 1824 1170 601 149 0 0 0 0 0 54 81 16 0 0 0 0 0 0 0 1 0 10 15 12 13 16 10 1

GFSMW_con_mlcape_006.txt.gz
CAPE
181 294 391 445 471 892 1227 1277 1267 1480 2210 2259 1666 1415 1221 1367 1128 1019 1071 1617 2058 1681 1638 1642 1232 1140 1090 629 322 6 0 3 7 0 13 35 31 12 0 0 0 0 0
92 295 485 430 517 737 1002 1582 1554 1890 1646 1924 1834 1604 1431 1167 1402 1633 1640 1855 1739 1839 1395 1436 1204 1123 968 718 332 23 0 1 3 0 3 46 76 36 18 0 0 0 0
10 293 472 517 590 784 1158 1462 1944 2053 2095 1849 1900 1662 1388 1632 1338 1573 1635 2249 2009 1816 1197 1616 1535 1025 419 227 199 26 0 0 57 3 6 60 49 55 63 21 0 0 0
19 120 508 699 710 826 1129 1713 2095 2193 2550 1699 2088 1521 1404 1532 1146 1448 1258 1847 1796 1833 1763 1696 1619 1274 170 151 42 0 0 18 6 50 1 0 1 34 50 70 11 0 0
20 27 498 645 766 875 1387 1739 2324 2411 2676 2386 2143 1892 1581 1066 633 407 1197 1842 1786 1746 1889 1733 1514 877 72 94 44 21 0 134 0 0 24 22 0 0 0 38 18 33 9
91 70 317 576 798 939 1532 1616 2562 2893 2807 2904 2020 2000 1401 1326 972 1285 1373 1690 1787 1717 1246 1056 1213 650 43 258 73 51 79 1 58 0 0 8 12 13 21 0 1 10 25
221 158 244 684 928 1059 1344 1820 2391 2930 3040 3006 2701 1950 1942 1260 1427 1506 1651 1537 1045 1571 1263 815 1366 752 126 163 120 132 171 65 0 3 0 24 0 3 5 5 2 10 8
393 282 442 612 1017 1073 1296 1735 2412 2821 3323 3008 3030 2573 1938 1940 1661 1913 1282 1549 676 592 1167 922 1445 1225 350 115 106 152 67 50 33 0 0 0 7 11 19 25 4 2 13
477 379 536 732 1026 1128 1257 1654 2437 3039 3489 3415 3372 3181 2571 2324 2018 1957 1843 1549 952 1084 1360 1155 1550 1153 548 250 219 53 60 78 80 45 19 0 0 24 37 23 24 17 7
486 558 472 961 1093 1245 1255 1750 2045 3053 3680 3532 3530 3427 3312 2598 2349 1783 1873 1362 1639 868 830 1309 942 1237 500 375 286 55 113 36 0 2 0 22 23 7 16 14 20 31 20
309 372 615 666 1162 1412 1406 1636 1964 2819 3458 3641 3415 3423 3402 3211 2497 3088 2639 1896 1696 1189 951 601 1138 1024 751 441 294 39 19 4 0 0 0 2 46 4 7 98 36 15 3
33 151 654 620 929 1207 1339 1610 2017 2527 3115 3353 3317 3362 3397 3455 3218 2545 3057 2371 2564 1715 1043 1175 1192 1145 505 494 321 25 0 162 84 203 106 30 51 61 42 106 89 64 62
108 140 532 680 756 924 1120 1451 1819 2269 3052 3173 3154 3214 3302 3409 3306 3116 2661 2936 2523 2093 1919 1361 1289 845 345 485 275 193 55 70 14 11 41 57 110 140 173 238 189 128 166
295 271 363 816 703 877 1026 1300 1660 1983 2538 2931 2968 3030 3009 3125 3064 3197 3107 2812 2795 2417 2328 1768 1433 942 387 354 280 353 236 90 43 114 73 117 199 173 197 148 161 202 182
226 161 510 631 898 988 1083 1123 1238 1479 1720 2480 2963 3029 3203 3099 3093 3031 3135 3065 3173 3052 2804 1919 1390 914 325 393 376 324 264 177 207 271 98 91 266 384 332 253 189 244 106
0 454 312 780 1359 1216 1208 1138 1060 1249 1428 1840 2499 2813 3129 3375 3225 3097 3211 3222 3399 3083 2658 1500 962 571 246 212 166 456 383 288 263 300 156 199 294 229 89 84 91 89 33
0 3 784 933 1327 1819 1367 1223 1161 1340 1331 1796 2366 2511 3007 3488 3345 3261 3220 3420 3247 2700 1981 1159 573 369 265 100 59 281 280 59 201 327 109 75 219 322 248 193 119 76 47
0 0 0 1135 1502 2108 1842 1668 1550 1508 1528 2322 2499 2755 3250 3637 3486 3353 3271 3383 2879 2344 1786 963 319 123 191 12 6 0 44 22 206 186 39 46 142 552 602 334 186 67 84
94 9 0 76 1434 1895 2025 2323 2068 1748 2608 2364 3234 3280 4019 3996 3741 3432 3211 2939 2490 2055 1696 971 321 206 230 56 0 0 0 0 19 5 11 179 505 726 64 96 38 25 75
0 46 227 361 1562 2177 2256 2423 2754 2564 2324 3218 3589 4078 4397 3972 3385 2954 2542 2171 1836 1703 1750 1326 562 351 408 135 14 0 0 0 1 5 91 165 184 430 76 42 68 175 129
76 130 755 1820 2192 2543 2660 2597 2778 3103 3014 3740 3887 4329 4194 3582 2743 2278 1869 1532 1664 2069 1615 898 555 392 307 572 107 6 26 101 160 27 69 298 269 47 7 4 24 30 0
409 1211 2408 2625 3070 2946 3062 3222 3233 3508 3677 3769 4002 4186 3525 2751 2189 1800 1729 1834 1547 1298 1056 758 573 700 719 659 283 47 35 258 163 89 295 148 2 0 0 0 0 0 0
1373 1878 2850 3041 3045 3171 3124 3056 3117 3182 3304 3414 3759 3456 2734 2153 1840 1885 1544 1317 1283 1189 972 912 939 805 760 655 215 51 6 0 5 112 50 1 0 0 0 0 0 0 0
1923 2090 2188 2370 2650 2693 2928 3138 3026 3176 3221 3344 2914 2420 2119 2097 2079 1955 1609 1435 1319 1221 996 1142 706 723 698 734 307 92 6 0 0 0 0 0 0 0 0 0 0 0 0
2083 2416 2527 2884 2933 3479 3263 3381 3508 3494 3097 2600 2267 1951 1885 1895 1972 963 844 1027 264 441 1076 791 625 869 829 815 640 426 210 64 7 21 16 0 0 0 0 1 8 6 8
1874 2100 2407 2632 2561 2841 2999 3222 3306 2909 2563 2250 1848 1946 1798 1638 933 490 124 0 3 0 0 0 326 8 45 202 206 3 0 3 42 55 185 86 33 73 33 22 19 21 21

GFSMW_con_mlcape_009.txt.gz
CAPE
119 497 561 491 613 859 780 809 821 1538 1355 1143 1083 1099 1061 1459 1117 788 1240 1193 944 1169 1277 941 1109 1254 852 332 259 9 0 0 0 0 4 18 23 17 0 0 0 0 0
55 264 384 469 541 723 882 782 665 1280 1563 1388 1337 1112 1327 1253 1027 911 704 1073 1447 1495 1121 934 892 861 1030 421 90 3 0 0 0 0 0 11 29 22 0 0 0 0 0
87 129 238 325 381 631 889 900 709 841 1719 1742 1554 1279 1206 1054 1170 1200 1265 1553 1559 1223 1226 1029 952 863 555 384 77 0 0 0 0 0 0 23 18 26 14 0 0 0 0
107 126 261 290 352 583 788 1012 994 996 1275 1673 1612 1508 1106 929 1076 1298 1139 1187 1681 1502 1138 1112 1182 890 124 46 0 23 0 0 0 17 0 0 1 25 30 3 0 0 0
32 123 329 309 386 479 717 1128 1166 1129 1475 1365 1479 1268 1099 880 1157 1326 1212 1240 1916 1620 1469 1446 1395 871 1 3 24 1 0 25 0 1 1 0 0 0 0 16 0 0 0
0 72 270 424 384 656 875 1108 1416 1462 1733 1498 1613 1477 1326 1039 1063 718 894 1299 1556 1151 1201 1231 1074 669 43 9 33 39 0 62 49 0 0 0 0 0 0 0 0 4 2
0 0 245 501 510 725 900 1347 1458 1582 1921 1799 1379 1809 1673 1291 735 440 1137 1328 1199 1415 1502 1472 973 492 44 32 33 17 43 16 45 0 0 1 0 0 0 0 0 0 0
15 5 155 443 662 697 1081 1431 1677 1647 2019 2004 1927 1495 2021 1414 919 1365 1597 1211 1144 1381 1199 1019 755 440 85 159 62 66 33 43 0 14 0 0 0 0 0 0 0 0 0
57 15 93 392 661 736 1207 1380 2040 2067 2172 2378 2283 1996 1731 1696 1446 1272 1474 1449 1177 1352 1155 933 838 639 352 60 86 57 1 146 20 0 0 0 0 0 0 11 5 0 0
17 94 134 366 652 791 1087 1452 1913 2228 2497 2342 2550 2238 2139 1648 1547 1505 1039 1884 1050 791 874 1058 1013 1005 529 114 109 49 15 7 30 0 0 0 0 0 19 15 7 1 5
43 178 195 345 717 932 1138 1409 1911 2443 2611 2785 2690 2470 2181 2072 1702 1734 1349 1582 1495 1066 957 879 1201 1027 563 256 178 62 14 52 1 0 0 0 2 10 9 34 38 9 18
29 143 295 467 889 1061 1074 1386 2189 2429 2680 2844 2907 2719 2555 2556 2151 1606 1927 1818 1506 1317 1168 1036 782 997 751 389 228 126 68 15 48 0 2 0 0 38 32 55 74 128 120
274 470 383 770 1011 1109 1116 1477 2013 2635 2941 3096 3043 3020 2772 2842 2696 2078 2182 2409 1544 1532 1126 787 779 731 713 573 384 192 65 52 64 19 25 21 23 5 78 115 157 165 120
83 503 554 814 1064 1271 1270 1276 1844 2547 2970 3299 3218 2970 2866 2836 2996 2901 2164 2602 2661 2067 1396 1046 777 779 709 606 470 330 191 12 97 77 151 143 24 30 147 133 114 128 107
222 460 596 651 1013 1240 1352 1414 1605 1923 2761 3061 3206 2974 2889 2929 3039 3025 3040 2288 2577 2443 2151 1500 1192 951 760 585 439 351 271 5 108 132 163 160 152 210 186 152 173 123 1
217 282 570 641 715 1009 1206 1406 1589 1881 2209 2846 2999 2920 2931 2974 3072 3105 3040 3035 2523 2637 2367 2045 1607 1324 880 566 396 377 314 143 251 140 193 127 52 194 202 310 168 136 122
317 467 413 873 785 867 1048 1308 1499 1658 2031 2452 2851 2890 2766 2950 2945 3037 2972 3035 3013 2878 2777 2314 1872 1501 1019 463 353 362 277 234 186 215 240 337 137 150 253 188 97 103 120
0 135 152 414 1267 1024 1007 1178 1375 1680 1867 1988 2564 2735 2899 2801 3055 3075 3045 3123 3103 3069 2817 2437 1859 1461 823 328 170 142 207 303 326 393 345 329 150 123 135 140 180 184 130
0 0 145 330 470 1470 1229 1088 1231 1480 1607 1712 1958 2493 2618 2957 3206 3217 3175 3215 3136 2829 2652 2078 1576 868 450 244 70 15 69 185 249 156 164 169 68 61 91 67 30 29 60
0 0 0 3 437 1336 1626 1372 1197 1277 1301 1436 1723 2241 2471 2853 3399 3337 3280 3072 2731 2250 1986 1757 1074 582 311 112 27 5 6 0 0 4 48 25 4 116 86 38 37 37 23
96 5 0 0 298 1062 1805 1724 1474 1277 1457 1363 2309 2676 3038 3530 3402 3134 2851 2341 2239 2153 1952 1569 1012 477 230 112 44 0 9 8 0 0 1 22 4 17 47 49 3 6 0
460 1545 498 233 524 1585 2153 2228 1793 1722 2127 2662 3242 3610 3554 3263 2989 2680 2347 2285 1989 1751 1564 1363 851 380 252 273 50 19 53 17 9 43 142 13 108 51 6 0 0 0 0
1815 2220 2494 2749 2643 2358 2554 2932 3257 3045 3038 3705 3725 3309 3043 2958 2549 1993 1798 1642 1395 1262 1083 883 706 630 610 476 348 195 33 0 73 53 44 0 0 0 0 0 0 0 0
2613 2713 2893 3238 3381 3374 3295 3336 3574 3608 3729 3515 3237 2856 2714 2190 1740 1477 1374 1348 1253 1084 942 813 651 601 630 463 214 4 0 0 0 0 0 0 0 0 0 0 0 0 0
2571 2760 2882 3139 3254 3345 3393 3422 3525 3560 3309 2969 2377 2188 1999 1850 1052 419 691 832 316 833 922 1025 801 492 599 610 386 110 43 29 34 0 0 0 0 0 0 0 0 0 0
494 2577 3042 3228 3304 3333 3249 3125 2908 2761 2614 2206 2014 1956 1645 885 569 410 142 0 7 11 215 331 427 85 216 518 364 126 38 0 0 0 0 0 0 0 0 2 5 8 10

GFSMW_con_mlcape_012.txt.gz
CAPE
471 423 220 300 347 687 1007 1086 1043 727 779 879 935 681 667 679 522 1189 736 991 1120 1072 821 729 905 857 866 414 153 6 0 0 0 0 0 11 15 0 0 0 0 15 77
370 389 292 353 341 582 888 1113 955 836 816 811 795 718 737 805 528 1172 909 809 788 755 847 812 836 1035 845 467 140 0 0 0 0 0 0 1 25 8 0 0 0 0 1
221 294 394 329 424 573 679 758 934 1042 967 961 765 864 799 748 964 1064 947 904 1007 938 1038 1113 779 678 756 473 74 4 0 0 0 0 0 0 0 14 1 0 0 0 0
48 102 351 323 364 491 578 641 819 1119 1181 1183 1052 986 882 739 994 984 989 1145 1191 1051 1266 840 631 465 431 267 86 0 0 0 0 5 0 0 0 0 0 0 0 0 0
40 11 199 321 326 414 582 579 537 1123 1233 1326 1224 1103 1070 870 751 830 958 1067 1272 1369 1100 1011 783 576 205 95 10 0 0 0 0 20 0 0 0 0 0 0 0 0 0
26 4 70 181 275 366 580 655 594 680 1146 1332 1381 1324 1194 990 711 661 867 1132 1341 1317 1211 1007 1056 735 161 17 0 0 0 0 1 0 0 0 0 0 0 0 0 0 0
37 1 4 95 143 259 520 788 754 665 900 1260 1270 1255 1169 1053 797 597 903 1261 1293 1213 1380 1204 1157 724 178 0 0 0 0 1 4 0 0 0 0 0 0 0 0 0 0
7 15 10 70 83 215 520 783 905 829 978 1047 1199 1278 1247 1085 897 705 896 996 1147 1413 1223 1091 917 556 230 10 0 0 0 0 4 8 0 0 0 0 0 0 0 0 0
0 0 34 68 145 240 494 753 1037 999 1096 1195 1066 1227 1326 1209 1079 1037 1161 924 1067 1147 1037 1012 1027 646 211 49 1 0 0 0 0 0 0 0 0 0 0 0 0 0 0
0 0 1 108 258 236 548 888 1095 1089 1236 1363 1315 1234 1313 1440 1319 1149 1177 1357 1221 1167 1040 1141 1047 660 209 158 40 6 5 0 26 0 0 0 0 0 0 0 4 0 0
16 0 9 98 258 367 736 1015 1208 1220 1439 1612 1558 1572 1458 1341 1548 1468 1396 1280 1185 975 1079 1029 943 597 321 196 85 9 5 0 6 22 4 0 0 0 0 0 0 14 3
34 40 22 71 266 524 858 1000 1433 1403 1483 1697 1785 1703 1785 1742 1418 1370 1380 1408 1331 1160 1148 1037 1022 785 513 303 199 77 5 0 0 1 7 0 1 6 12 1 8 45 27
10 1 46 91 295 550 779 1156 1418 1639 1817 1852 1965 2064 2007 2013 1740 1472 1556 1438 1326 1049 1026 735 889 906 706 521 290 139 9 0 0 0 0 0 2 4 3 17 6 67 97
4 0 62 134 425 624 813 1209 1387 1941 1961 2215 2153 2129 2183 2154 2102 1814 1567 1547 1499 1249 1232 1041 869 971 809 595 450 258 137 36 22 0 0 0 1 12 4 13 77 121 120
0 0 39 220 509 786 880 1164 1521 1804 2126 2242 2390 2266 2287 2415 2410 2202 1846 1745 1845 1448 1441 1176 1120 886 874 728 533 401 229 95 81 59 23 49 51 132 76 29 86 103 95
0 21 86 285 505 822 915 1068 1462 2012 2201 2375 2375 2473 2532 2584 2566 2597 2446 1988 1962 2078 1730 1380 1074 977 887 743 570 502 397 190 129 38 0 57 148 162 105 56 89 92 122
0 81 227 428 605 889 1012 1053 1440 1958 2383 2389 2615 2725 2619 2612 2643 2702 2715 2609 2229 2091 2071 1832 1584 1352 1118 838 533 487 496 344 246 96 0 14 120 135 106 50 27 65 90
4 91 427 542 740 934 1099 1177 1321 1784 2301 2412 2594 2862 2797 2637 2683 2737 2748 2733 2729 2395 2313 2036 1909 1755 1128 841 677 591 434 345 235 92 4 66 203 218 64 39 35 60 36
0 74 459 658 631 822 1035 1267 1365 1591 1879 2249 2413 2641 2768 2623 2705 2670 2782 2710 2787 2644 2660 2383 2048 1674 116 682 560 299 271 274 194 67 119 224 297 150 27 57 52 2 8
0 0 0 33 491 677 851 1016 1261 1511 1654 1907 2173 2495 2666 2593 2583 2714 2757 2785 2810 2808 2574 2427 1920 320 295 471 374 226 80 128 105 137 237 244 179 108 21 28 2 8 32
0 0 0 0 3 527 865 815 975 1222 1463 1731 1982 2223 2587 2605 2594 2770 2824 2898 2765 2740 2535 2082 1620 699 1125 766 448 17 3 3 3 14 24 5 8 3 5 39 35 57 18
244 399 12 0 0 84 599 744 810 931 1246 1528 1727 1758 2309 2522 2750 2850 2792 2695 2531 2476 2032 1709 1404 1004 885 582 144 10 2 0 0 6 0 0 5 0 0 0 0 0 0
1303 1355 795 330 279 363 803 762 916 1041 1073 1229 1498 1773 2240 2593 2697 2639 2621 2281 2179 1886 1816 1649 1245 876 562 216 29 0 0 1 54 0 0 0 0 0 0 0 0 0 0
1464 1344 1901 2417 1339 1138 1104 1335 1152 1233 1367 1792 2343 2486 2381 2358 2396 2150 2046 1707 1741 1599 1275 1190 966 675 361 139 25 0 0 0 0 0 0 0 0 0 0 0 0 0 0
207 79 82 316 755 2194 2349 2462 2312 2537 2408 2337 2390 2231 1785 1999 1409 675 753 974 651 1028 1060 761 685 605 495 361 220 77 7 2 0 0 0 0 0 0 0 0 0 0 0
0 0 0 0 0 67 561 3326 3090 2644 2327 2137 2168 2058 1187 672 474 281 40 0 15 300 558 572 483 149 395 302 115 5 0 0 0 0 0 0 0 0 0 0 0 0 0

GFSMW_con_mlcape_015.txt.gz
CAPE
584 545 367 273 342 429 474 525 611 750 789 732 828 799 999 762 654 779 863 962 992 1013 914 758 624 568 539 584 278 70 0 0 0 0 0 8 0 0 0 0 11 29 125
657 618 436 341 158 322 587 584 574 706 711 745 807 834 790 766 646 571 860 811 938 1008 949 739 638 707 743 589 197 36 0 0 0 0 0 4 7 0 0 0 0 0 11
499 631 496 409 216 287 572 678 649 739 632 600 650 632 631 585 626 622 627 819 846 936 898 653 629 707 791 620 260 40 0 0 0 0 0 0 0 0 0 0 0 0 0
361 439 532 321 260 301 458 666 754 766 618 518 479 578 632 357 441 583 566 1037 891 768 710 769 787 716 675 417 255 19 0 0 10 5 0 0 0 0 0 0 0 0 0
247 269 356 318 242 217 455 678 763 767 679 497 548 621 555 413 455 498 592 876 945 898 817 799 866 525 320 442 190 33 0 0 0 0 0 0 0 0 0 0 0 0 0
176 212 236 291 295 265 415 593 657 728 753 607 676 666 619 608 597 355 543 822 892 1013 1017 967 857 549 309 209 126 20 0 0 0 0 0 0 0 0 0 0 0 0 0
65 81 116 197 278 372 520 555 504 699 817 786 808 789 771 678 626 601 642 626 811 953 1193 1067 950 716 411 214 56 0 0 0 0 0 0 0 0 0 0 0 0 0 0
4 16 43 57 208 246 445 509 498 589 903 971 922 919 878 772 735 714 671 542 792 1002 1204 1159 1032 859 492 154 29 0 0 0 0 0 0 0 0 0 0 0 0 0 0
0 5 21 7 80 169 215 498 509 472 775 976 1010 950 960 936 850 793 766 754 713 1096 1188 1093 1152 929 684 171 34 1 0 0 0 0 0 0 0 0 0 0 0 0 0
0 2 23 23 20 87 141 369 557 531 502 776 986 1002 938 981 931 830 792 772 754 963 1000 1099 1159 857 584 254 73 1 0 0 0 0 0 0 0 0 0 0 0 0 0
0 0 25 30 27 49 66 284 580 610 586 662 846 929 1001 1036 991 903 901 783 870 939 953 983 1163 764 560 339 115 8 0 0 0 0 0 0 0 0 0 0 0 0 0
0 0 8 18 56 59 72 262 502 700 667 761 883 879 863 996 1111 965 953 903 1047 1030 1127 1050 1005 789 625 488 282 101 38 0 0 0 0 0 0 0 0 0 0 0 0
0 0 0 0 11 49 95 279 562 713 829 951 1011 1077 1071 1001 1072 1129 1146 1027 1089 1105 1017 985 1004 872 772 518 362 164 166 45 0 0 0 0 0 0 0 0 0 0 0
0 0 0 0 8 24 149 363 657 842 960 1130 1243 1241 1269 1271 1119 1153 1256 1247 1176 1197 1117 1006 1055 1046 911 639 400 289 290 148 38 0 0 0 0 0 0 0 0 0 0
0 0 0 0 2 13 173 461 724 1067 1099 1166 1412 1398 1429 1496 1502 1397 1302 1276 1244 1237 1132 1070 1032 1168 1038 800 602 423 429 287 155 19 9 0 0 0 3 5 11 2 0
0 0 8 14 22 75 207 415 869 1119 1364 1381 1445 1611 1649 1706 1733 1722 1612 1463 1372 1410 1214 1141 1007 910 971 779 607 530 356 297 185 146 53 8 0 10 41 24 52 6 12
0 0 0 0 18 124 323 443 862 1150 1590 1576 1703 1842 1817 1847 1933 1978 1903 1746 1580 1585 1292 1156 1054 978 1052 1026 733 504 526 399 239 327 173 17 9 4 61 73 53 27 9
0 0 0 0 59 222 492 583 922 1258 1551 1741 1854 2057 2093 1947 2090 2228 2145 2037 1824 1816 1547 1307 1132 1112 1135 900 773 628 231 98 292 302 297 69 42 0 20 67 42 16 15
0 0 0 12 147 348 650 833 901 1256 1713 1827 1996 2178 2281 2217 2310 2288 2368 2368 2195 1896 1883 1582 1452 1513 1412 998 987 676 87 247 327 322 162 124 60 2 47 34 10 0 29
0 0 0 39 257 542 884 974 1002 1269 1618 1953 2049 2264 2445 2406 2399 2416 2416 2496 2508 2203 1986 2001 1822 1858 1704 1080 999 379 371 493 447 217 82 79 89 48 77 65 4 8 1
0 0 0 109 385 643 963 1115 1166 1178 1455 1837 2144 2337 2547 2596 2501 2470 2476 2568 2583 2470 2270 2250 2089 2041 1843 898 499 151 634 587 374 91 8 38 51 36 3 3 4 3 0
742 1423 1357 714 200 63 574 1012 1150 1233 1349 1591 1827 2227 2394 2668 2602 2514 2488 2579 2642 2639 2566 2387 1842 1590 1322 903 321 502 378 205 83 0 2 11 1 0 0 0 0 0 0
586 349 542 560 761 1826 396 476 776 1138 1353 1462 1549 1677 2094 2460 2463 2489 2561 2648 2734 2692 2506 1974 1539 1262 1008 837 517 161 31 9 0 0 0 0 0 0 0 0 0 0 0
662 401 295 204 91 0 1436 1564 1309 1110 955 1228 1429 1551 1796 2213 2346 2543 2646 2638 2619 2458 2037 1519 1144 918 687 556 29 6 0 0 0 0 0 0 0 0 0 0 0 0 0
48 224 411 313 90 0 0 6 454 1191 1114 1027 1196 1388 1754 2279 2358 1790 2301 2416 1813 1731 1319 966 728 723 654 385 78 5 0 0 0 0 0 0 0 0 0 0 0 0 0
0 0 0 0 0 0 4 90 82 62 1476 1308 1559 1854 1975 1109 882 985 722 179 409 621 471 96 0 189 148 52 24 8 2 0 0 0 0 0 0 0 0 0 0 0 0

GFSMW_con_mlcape_018.txt.gz
CAPE
342 378 354 385 334 414 473 437 460 501 400 247 344 471 739 662 400 621 488 610 684 790 787 629 636 370 429 458 296 95 0 0 0 0 0 0 0 0 0 3 34 30 19
462 445 394 304 294 282 249 353 448 549 624 532 451 622 704 636 748 670 553 640 741 798 833 718 678 483 503 406 308 80 0 0 0 0 0 0 0 0 0 0 4 3 0
432 393 423 285 208 243 224 272 365 473 606 654 529 491 572 592 740 652 613 634 736 816 861 748 699 583 556 598 454 102 0 0 0 0 0 0 0 0 0 0 0 0 0
567 447 357 295 158 131 174 247 332 419 481 609 576 471 480 542 641 681 585 528 680 685 780 882 745 589 591 586 502 90 0 0 0 0 0 0 0 0 0 0 0 0 0
529 503 399 363 293 105 89 251 320 389 448 497 571 505 433 454 376 436 503 524 560 712 698 724 660 634 672 509 337 109 0 0 0 0 0 0 0 0 0 0 0 0 0
454 497 456 416 336 222 85 217 367 390 504 462 502 475 384 327 270 365 279 350 550 722 834 732 704 679 648 382 238 135 1 0 0 0 0 0 0 0 0 0 0 0 0
332 319 268 296 394 201 147 222 404 453 521 470 437 417 388 321 332 377 347 364 387 655 816 863 789 713 638 358 202 109 4 0 0 0 0 0 0 0 0 0 0 0 0
193 268 264 164 206 226 151 237 412 476 556 506 456 453 434 369 416 434 411 434 204 457 809 844 910 879 717 438 197 93 0 0 0 0 0 0 0 0 0 0 0 0 0
0 31 170 163 126 128 150 254 382 460 542 575 522 487 489 468 473 501 478 539 461 525 613 767 887 941 779 555 329 116 5 0 0 0 0 0 0 0 0 0 0 0 0
0 0 0 17 48 98 121 237 353 393 449 610 653 633 606 595 586 598 565 571 621 712 622 823 1003 970 771 566 404 147 17 0 0 0 0 0 0 0 0 0 0 0 0
0 0 0 2 9 30 97 181 354 414 403 648 760 767 737 749 726 671 643 659 716 747 828 767 985 958 796 661 528 263 89 11 0 0 0 0 0 0 0 0 0 0 0
0 0 0 0 1 3 19 107 275 418 403 476 805 858 857 870 811 733 721 695 726 764 847 751 942 915 756 719 651 497 187 60 0 0 0 0 0 0 0 0 0 0 0
0 0 0 0 0 0 0 41 153 363 478 451 611 861 922 917 879 803 807 767 791 777 815 816 839 892 733 783 662 549 422 188 23 1 0 0 0 0 0 0 0 0 0
0 0 0 0 0 0 0 8 105 296 518 575 566 703 837 899 955 925 866 789 846 830 861 895 951 1013 986 816 717 568 567 396 190 83 0 0 0 0 0 0 0 0 0
0 0 0 0 0 0 11 53 109 285 515 617 676 759 862 857 901 1030 997 964 918 926 938 896 1043 1080 1005 906 725 633 674 554 411 187 65 0 0 0 0 0 0 0 3
0 0 0 0 0 0 45 143 196 349 559 714 737 892 1038 1085 1024 984 1053 1081 1048 1090 1015 929 966 1104 1076 944 816 823 771 652 487 341 124 70 15 0 0 0 0 4 15
0 0 0 0 0 5 123 191 313 514 666 773 925 1090 1215 1285 1312 1239 1135 1097 1119 1123 1116 1078 1004 1033 1186 986 940 920 976 828 535 419 381 362 141 59 29 0 0 0 25
0 0 0 0 0 11 78 246 331 598 858 935 1035 1257 1424 1437 1479 1517 1371 1283 1236 1173 1206 1196 1118 1041 1082 1004 974 827 1033 782 585 522 564 566 481 196 101 34 0 9 31
0 0 0 0 0 0 69 188 388 660 904 1142 1239 1352 1530 1592 1629 1687 1638 1595 1498 1367 1383 1302 1205 1211 1171 992 835 763 885 850 722 600 405 366 466 314 181 50 0 13 15
0 0 0 0 0 0 1 164 413 717 884 1309 1424 1547 1650 1692 1722 1877 1890 1849 1755 1619 1579 1400 1285 1313 1416 906 715 780 847 791 748 248 265 234 520 235 70 5 15 52 15
0 0 0 0 0 32 246 372 528 719 974 1336 1666 1770 1849 1944 1945 2005 2148 2164 2104 1979 1797 1635 1480 1542 1479 1034 746 592 803 974 787 297 636 401 188 82 7 18 90 52 14
762 468 115 191 94 59 422 651 751 828 1034 1319 1624 1838 2054 2184 2212 2263 2233 2343 2402 2392 2120 1866 1841 1710 1497 1102 648 757 927 865 275 699 609 281 26 18 2 0 3 0 0
108 5 23 208 741 1231 167 483 836 855 815 1110 1431 1896 2115 2303 2325 2428 2417 2493 2510 2483 2323 2120 2100 1686 742 806 882 610 573 185 534 587 186 3 0 0 0 0 0 0 0
0 0 0 0 0 0 0 0 1 947 1377 888 987 1458 2011 2291 2543 2576 2534 2572 2614 2576 2289 2228 2120 1532 867 734 279 173 112 46 68 0 0 0 0 0 0 0 0 0 0
0 0 0 0 0 0 0 0 0 0 22 621 937 1124 1421 1833 2328 2507 2554 2610 2684 2592 2493 2233 1429 1082 795 296 7 9 7 10 0 0 0 0 0 0 0 0 0 0 0
1 13 70 36 49 41 0 0 0 0 0 0 190 695 1180 1487 2090 1459 1271 1200 2165 2066 1757 1150 740 323 57 6 0 41 17 0 0 0 0 0 0 0 0 0 0 0 0

GFSMW_con_mlcape_021.txt.gz
CAPE
381 451 496 492 581 685 733 678 508 551 596 519 254 252 158 240 570 672 824 1151 1332 1450 1453 1312 1069 992 1014 987 871 580 140 3 30 1 15 37 10 4 39 147 35 16 41
465 469 472 503 521 660 714 751 627 648 576 516 417 369 382 521 1003 960 1057 1163 1237 1328 1443 1360 1359 1123 1088 977 892 510 84 0 28 7 0 3 5 0 0 16 16 16 0
530 502 480 479 542 578 717 701 730 819 728 636 624 729 990 1175 1102 1086 1236 1187 1234 1350 1384 1487 1428 1363 1194 1192 1022 630 200 62 23 0 6 0 0 1 0 0 0 0 0
650 614 557 537 519 651 685 710 756 852 1000 1040 826 702 621 733 875 988 1186 1300 1302 1321 1426 1534 1500 1390 1352 1224 1169 730 395 64 0 1 0 8 30 0 0 0 0 0 0
712 685 637 567 513 586 624 649 663 693 879 1107 1003 931 797 823 927 960 1214 1312 1283 1295 1428 1500 1473 1479 1383 1306 1236 662 353 136 0 0 0 0 0 0 0 3 0 0 0
647 761 743 679 628 522 457 571 648 611 795 933 1038 967 956 941 950 968 937 1083 1167 1195 1278 1420 1514 1505 1414 1330 1236 726 506 196 13 27 27 0 0 0 0 3 1 0 0
683 692 822 760 696 648 534 443 591 636 711 749 897 1037 937 1034 967 855 830 871 1003 1028 1201 1325 1426 1431 1338 1325 1202 662 486 239 52 0 25 75 10 0 0 0 0 0 0
652 752 827 885 794 729 665 531 523 660 751 758 757 923 1014 1058 1077 1035 901 953 975 1040 1250 1393 1553 1435 1424 1325 1065 777 570 270 131 8 0 12 60 0 0 0 0 0 0
415 572 771 872 798 839 733 636 537 665 813 802 787 808 999 979 987 1057 1087 1003 1098 1121 1287 1249 1440 1502 1470 1390 1176 914 674 267 121 12 5 4 40 0 0 0 0 0 0
14 221 611 707 730 715 844 688 617 660 817 898 914 898 935 998 1054 1155 1070 1053 1149 1053 1058 1108 1424 1541 1454 1476 1282 1065 777 363 140 39 40 0 11 13 1 0 0 0 0
0 0 216 564 694 626 681 749 645 731 920 992 1050 1004 1013 1020 1010 1105 1158 1116 1191 1174 1250 1273 1244 1353 1365 1464 1345 1223 912 494 280 135 41 16 9 0 0 0 0 0 0
0 0 15 161 335 588 538 635 671 757 877 1008 1112 1096 1140 1176 1131 1125 1190 1241 1147 1218 1348 1426 1408 1407 1587 1526 1374 1258 1066 768 457 333 86 0 0 0 0 0 0 0 0
0 0 1 12 70 203 482 574 602 661 820 1016 1094 1204 1259 1298 1280 1246 1308 1352 1305 1297 1342 1448 1437 1489 1527 1485 1344 1380 1318 932 742 499 164 56 0 0 0 0 0 0 0
0 0 0 0 3 46 197 325 548 648 797 962 1062 1189 1267 1292 1380 1423 1410 1411 1401 1314 1328 1430 1497 1544 1528 1470 1347 1272 1393 1205 938 733 402 147 10 0 0 2 2 2 0
0 0 0 0 0 5 118 216 333 634 767 981 1001 1141 1345 1457 1525 1514 1466 1475 1488 1384 1356 1371 1472 1514 1496 1437 1408 1242 1270 1360 1085 887 558 240 165 5 0 12 17 0 0
0 0 0 0 0 1 52 196 284 499 754 946 922 1076 1363 1533 1568 1600 1571 1542 1490 1484 1466 1412 1442 1422 1418 1278 953 1254 1475 1390 1242 1161 810 460 146 32 0 0 3 8 0
0 0 0 0 0 0 20 176 314 536 707 838 1095 1236 1301 1438 1554 1614 1648 1543 1551 1510 1493 1454 1494 1471 1484 1010 727 862 1518 1455 1332 1309 1150 748 432 197 97 0 0 0 0
0 0 0 0 0 0 52 271 429 505 666 880 1099 1264 1325 1393 1537 1536 1599 1690 1713 1619 1610 1513 1509 1536 1606 1062 683 679 1174 1523 1501 1360 1269 1035 769 559 376 346 85 18 40
0 0 0 0 0 0 0 294 454 590 744 826 995 1186 1350 1400 1571 1641 1614 1705 1776 1856 1781 1800 1655 1569 1631 1173 753 655 1115 1475 1533 1486 1259 1115 1023 925 355 400 412 364 326
0 0 0 0 0 0 0 179 438 721 747 888 1100 1483 1652 1685 1686 1823 1966 1955 1868 1829 1860 1892 1815 1669 1651 1330 859 778 1247 1390 1486 1293 1100 701 1006 542 221 413 566 446 204
0 0 0 0 0 8 11 37 283 468 893 1301 1532 1654 1753 1823 1902 2042 2087 2206 2203 2116 2034 1967 1922 1802 1604 1905 943 770 1319 1488 1153 1071 939 976 302 88 177 207 712 289 333
0 0 0 0 137 340 576 602 696 1121 1429 1556 1722 1912 1937 2003 2142 2229 2363 2419 2361 2289 2291 2172 2136 1985 1953 1527 1018 719 1036 1325 1191 1041 714 634 165 174 80 42 295 41 11
277 846 494 52 83 471 935 949 1075 1056 1289 1552 1743 2014 2250 2363 2414 2493 2510 2561 2581 2415 2403 2221 2078 1927 1792 1839 845 616 745 909 1070 742 561 365 209 47 2 2 0 0 3
0 0 0 25 125 267 416 644 842 1640 1565 1480 1766 2096 2267 2472 2673 2718 2789 2766 2633 2562 2543 2411 2169 2032 1893 1518 592 611 359 343 235 129 11 40 5 0 11 0 0 0 0
0 0 14 14 4 12 1 0 0 0 8 436 1119 1439 2023 2352 2660 2820 2938 2871 2892 2728 2542 2580 2420 2107 1120 571 371 367 20 15 16 10 1 0 13 0 1 0 0 0 0
135 237 397 300 159 0 0 0 6 0 0 0 15 289 848 1489 2090 2503 2896 1838 1789 2474 2363 2366 2345 1629 758 247 177 60 5 1 0 0 0 10 1 0 0 0 0 0 0

GFSMW_con_mlcape_024.txt.gz
CAPE
574 489 565 610 683 773 995 1017 982 1116 1277 1016 827 491 190 242 221 192 602 1190 1609 1915 2175 1699 1143 1039 1216 1084 871 958 602 78 0 11 17 25 14 7 26 31 15 1 9
689 615 615 610 528 747 931 1168 1081 1183 1375 1085 756 382 188 160 261 350 775 1374 1780 2159 2190 1730 1354 1170 1188 1162 1166 730 311 93 0 17 22 32 18 16 20 12 6 0 1
809 667 616 567 508 661 983 1151 1281 1219 1363 981 809 564 411 379 446 623 1026 1356 1873 2009 2245 1766 1390 1454 1365 1247 1582 1167 719 133 4 18 21 15 23 24 3 0 3 0 9
864 826 637 518 501 639 931 1182 1409 1480 1546 1249 725 675 487 584 653 921 705 1046 1807 1790 1899 2072 1859 1759 1465 1554 1519 1285 978 767 17 0 0 2 78 21 20 7 8 0 2
892 940 819 489 395 633 837 1135 1471 1740 1607 1564 993 885 837 846 899 811 862 1365 1601 1931 1749 1969 1898 1873 1684 1727 1916 1644 1425 787 139 0 0 0 0 0 6 23 23 1 1
803 961 1007 642 447 600 931 1112 1531 1958 1853 1690 1547 1484 1400 1151 952 1105 970 1126 1293 1446 1687 1786 1528 1633 1890 1993 2042 1916 1492 1063 356 1 0 0 0 0 0 1 3 16 15
783 875 1089 1001 627 660 856 1136 1447 1873 1834 1668 1662 1712 1631 1672 1524 1555 1404 1198 961 960 1243 1815 1982 1887 2134 1966 2060 2112 1469 1399 679 242 0 0 0 0 0 0 0 0 6
792 797 1038 1159 1071 799 1034 1110 1375 1732 1854 1714 1812 2040 2049 1657 1660 1690 1478 1457 1080 1016 1080 1553 1840 1912 1902 2114 2140 2083 1702 1329 1033 404 10 0 11 26 0 0 0 0 1
730 826 868 1097 1244 1201 1216 1375 1509 1828 1862 1674 1948 2038 2102 1936 1457 1652 1916 1580 1608 1261 1361 1498 1890 1862 1969 2045 2142 1957 1849 1337 1208 614 187 27 1 38 1 0 0 0 0
473 674 864 941 1190 1371 1379 1450 1567 1610 1704 1798 1844 1818 1901 2136 2014 2099 1935 1890 1689 1678 1365 1774 1772 1774 1928 2078 2186 1824 1851 1686 1141 564 183 125 0 17 2 0 0 0 0
69 344 578 795 940 1225 1494 1580 1632 1664 1671 1848 1979 1918 1833 1851 2000 1989 2211 2274 1944 1971 1960 1890 1844 1692 1898 2105 2275 2099 1630 1849 1469 716 378 290 43 0 0 0 0 0 0
0 7 95 341 755 1012 1286 1463 1610 1643 1684 1725 2086 2066 2065 1988 1828 2052 2117 2299 2100 2157 2155 2068 2025 1809 1747 2023 2211 2243 1598 1866 1648 1287 747 510 146 93 16 1 0 0 0
7 43 32 62 392 793 1150 1138 1365 1508 1509 1822 1877 1939 1982 2030 2010 2233 2140 2294 2373 2341 1963 2227 2266 2092 1870 1896 2084 2284 2150 1877 1893 1606 1261 876 291 143 10 10 0 0 0
0 0 0 8 130 449 946 1333 1062 1181 1299 1404 1720 1965 2208 2137 2199 2312 2302 2338 2471 2445 2335 2370 2495 2319 2131 1953 1938 2212 2202 2058 1989 1974 1653 1201 665 268 192 42 30 2 1
0 0 0 38 334 363 803 1374 1277 1058 1104 1407 1518 2005 2277 2487 2428 2373 2483 2450 2545 2507 2520 2456 2532 2550 2187 1882 2084 2153 2127 2158 2142 2099 2018 1628 1068 504 355 116 110 77 62
0 0 0 0 0 129 626 848 1199 1055 1228 1519 1667 1891 2310 2524 2518 2564 2574 2562 2540 2625 2595 2429 2554 2501 2249 1713 1462 2039 2154 2263 2290 2213 2158 1870 1094 574 218 76 49 225 198
0 0 0 0 0 0 240 574 997 1094 1281 1517 1905 2029 2293 2441 2588 2595 2659 2584 2585 2645 2633 2639 2609 2643 2644 1673 1284 1338 1922 2237 2189 2275 2315 2136 1646 839 745 86 6 23 76
0 0 0 0 0 0 0 415 865 1289 1296 1784 1894 2156 2219 2417 2532 2641 2691 2733 2729 2604 2712 2764 2708 2686 2779 2143 1299 1126 1595 2167 2217 2129 2349 2373 2068 1514 1073 980 267 91 88
0 0 0 0 0 0 0 46 880 1236 1375 1749 1750 2007 2119 2175 2406 2696 2763 2830 2735 2770 2803 2862 2869 2772 2712 2229 1600 1156 1481 1642 2252 2356 2475 2457 2414 2119 952 1174 1150 637 397
0 0 0 0 0 0 0 185 604 1019 1422 1768 1919 2105 2296 2406 2380 2589 2826 2898 2879 2811 2618 2737 2862 2897 2768 2497 1689 1381 1603 1565 1736 2275 2512 2040 2308 2002 1063 994 1405 1389 927
0 0 0 0 0 89 99 122 652 903 1558 1827 1862 2116 2468 2562 2580 2727 2935 2864 2804 2548 2814 2843 2921 3006 2826 2925 1724 1380 1753 1771 1742 1538 1991 2351 1531 1086 875 696 1248 1186 946
49 402 0 0 376 906 856 478 738 1342 1777 1916 2002 2304 2608 2544 2412 2943 3083 2914 2851 2879 2830 2905 2929 2914 3093 2561 1770 1429 1405 1871 1826 1784 1780 1980 1123 608 420 283 555 506 438
828 1079 451 1241 1590 1801 1835 1748 1787 1802 1909 2083 2203 2427 2716 2751 2601 2959 3043 3025 3083 2737 2877 2768 2825 2834 2865 3012 2139 1191 1385 1301 1973 1921 1774 1448 785 304 135 57 165 283 226
701 896 1342 1283 1620 2421 2650 2847 2578 2389 2507 2632 2780 2826 2990 3017 2916 2767 2884 2892 2861 3051 2819 2833 2944 2878 2792 2805 2644 1282 800 1074 1202 1228 829 429 85 10 4 0 0 183 223
343 741 829 869 904 860 747 703 838 1268 2589 2685 2675 2828 2853 2897 2975 3115 2842 2853 2968 2882 3099 2991 2876 2982 2816 2824 2491 1142 522 738 529 312 176 93 30 14 5 1 3 50 77
799 894 848 787 492 499 710 989 954 1010 869 717 656 922 1236 1511 2128 2362 2831 2218 2214 2027 2153 2189 2653 2912 2756 2243 1765 692 651 399 6 185 117 35 85 11 2 15 18 11 38

GFSMW_con_mlcape_027.txt.gz
CAPE
424 382 470 465 496 696 1062 1303 1350 1568 1467 1321 1043 793 552 427 168 181 217 516 1099 1554 1990 1545 1501 1302 1415 1251 964 751 320 22 0 8 23 7 11 26 24 27 6 0 12
604 374 440 453 501 638 1030 1565 1634 1866 1722 1425 1217 811 656 238 200 197 486 865 1380 1825 1696 1635 1388 1380 1234 1253 1212 972 542 10 0 92 38 12 0 7 18 9 1 1 2
835 577 467 466 465 621 1047 1551 1748 1899 1904 1659 1396 1104 723 481 346 377 389 938 1502 1732 2012 1591 1374 1387 1627 1007 1552 1061 656 258 0 14 42 14 17 11 0 0 9 0 2
892 863 576 516 482 634 903 1521 1893 1918 1994 1938 1185 896 527 326 245 371 482 888 1463 1524 1833 1602 1254 1534 1277 1117 1497 1119 946 304 2 0 0 36 174 69 10 5 4 0 4
849 921 846 528 436 471 700 1196 2009 2043 1826 1933 1581 1069 760 264 389 467 837 873 1697 1623 1560 1865 1587 1555 1708 1488 1263 1421 1190 794 429 0 0 0 0 0 27 16 14 0 3
648 923 994 627 435 372 553 1056 1941 2218 2148 2157 1607 1779 968 525 599 722 875 939 972 1741 1853 1606 2067 1816 1907 1649 1899 1877 1624 1273 351 12 0 0 0 1 2 17 23 22 6
541 864 1039 837 486 443 588 982 1907 2413 2485 2442 2082 1757 1708 1053 1781 1753 858 817 812 760 1565 1803 2019 1728 2129 1897 2012 2275 1886 1608 1102 444 0 0 10 5 0 0 1 3 15
524 837 1059 1075 703 577 824 1082 1787 2521 2704 2480 2387 2167 2250 1765 1355 1516 1131 1048 798 735 1109 2183 2009 2078 2100 2094 2207 2094 1996 1672 1480 970 78 8 23 39 10 0 0 6 1
346 795 1021 1208 1060 711 1057 1312 1738 2411 2736 2530 2674 2622 2474 2105 1653 1570 1804 1885 1578 1047 1481 1962 2220 2152 2174 2285 2317 1817 2239 1874 1740 1306 796 67 0 23 27 0 0 0 3
235 682 933 1197 1322 1083 1068 1454 1806 2416 2687 2499 2666 2716 2871 2819 2305 2300 2387 1865 1959 1944 1894 1623 1873 2147 2234 2381 2434 1895 2092 2202 1787 1252 952 427 12 0 19 0 0 0 0
116 593 909 1081 1320 1345 1202 1335 1783 2216 2630 2561 2555 2451 2578 2639 2781 2488 2694 2502 2586 2731 1972 2438 2146 2262 2351 2496 2583 2186 1863 2299 2135 1640 1145 788 321 13 5 0 0 0 0
11 430 688 842 931 1260 1462 1524 1604 1733 2501 2531 2729 2628 2601 2573 2633 2719 2507 2869 2738 2759 3068 2625 2685 2607 2428 2509 2616 2575 1635 2196 2249 1977 1425 875 678 301 71 32 49 0 0
3 107 467 557 754 949 1405 1574 1845 1788 1795 2324 2497 2920 2780 2718 2499 2749 2827 2839 2966 2962 2843 2949 3017 2901 2580 2459 2759 2795 2596 2289 2307 2194 2041 1414 1045 765 69 19 43 25 31
0 27 28 36 369 706 1254 1748 1688 1802 1848 1972 2107 2437 2904 2771 2866 2782 3027 2955 3065 3094 3028 2924 3075 3106 3015 2626 2649 2727 2772 2603 2401 2451 2385 2083 1550 1146 764 478 107 157 58
0 0 0 20 100 528 1386 1690 1560 1726 1852 2151 2264 2375 2819 3087 3141 3078 3037 3178 3151 3197 3188 3127 3098 3380 3248 2640 2620 2471 2719 2891 2717 2544 2693 2516 2060 1453 1111 578 441 117 125
0 0 0 0 177 325 972 1372 1990 1702 1631 2220 2258 2453 2725 3168 3312 3318 3320 3439 3264 3371 3377 3251 3110 3125 3259 2527 1992 2541 2599 2831 3018 2861 2855 2677 2115 1448 962 646 571 505 391
0 0 0 0 0 153 339 740 1552 1896 1761 1847 2472 2353 2746 3034 3382 3570 3542 3497 3533 3521 3478 3394 3358 3234 3325 2604 1836 1823 2565 2815 3004 3023 2882 2843 2260 1894 1355 658 424 238 368
0 0 0 0 0 0 0 233 528 1749 2081 2231 2235 2637 2570 3109 3404 3575 3603 3684 3667 3551 3581 3593 3564 3429 3416 2990 2126 1676 2012 2578 2896 2901 2984 2976 2405 2304 1931 1514 792 481 296
0 0 0 0 0 0 0 0 477 1204 1983 2165 2610 2489 2849 3051 3440 3518 3595 3712 3696 3700 3588 3672 3655 3586 3504 3085 2599 1867 2003 2297 2448 2874 3005 2902 2908 2854 1720 1831 1698 997 567
0 0 0 0 0 0 0 0 0 561 1854 2333 2552 2881 3052 3179 3435 3571 3610 3720 3764 3734 3654 3626 3674 3673 3698 3480 2759 2303 2392 2250 2455 2601 2964 2544 2800 2754 1783 1863 1943 1768 1208
302 41 116 106 0 0 0 36 84 343 1299 1982 2383 3129 3254 3507 3502 3490 3674 3868 3877 3573 3687 3584 3651 3734 3735 3774 3032 2351 2775 2420 2333 2506 2648 2955 2204 2470 1869 1747 2144 1910 1687
362 6 78 514 128 0 301 722 644 1037 1698 2066 2484 2988 3274 3252 3149 3671 3727 3863 3879 3794 3635 3713 3541 3651 3794 3559 3323 2510 2426 2762 2376 2416 2467 2647 2317 1850 1870 1495 1933 1794 1651
898 863 951 708 944 1838 1897 1580 1866 1821 2173 2581 2912 3147 3344 3421 3262 3583 3756 3674 3713 3293 3272 3237 3417 3475 3384 3813 3302 2525 2206 2336 2492 2469 2597 2093 1736 1509 1347 1204 959 1063 1270
1069 1033 1401 1660 2162 2973 2780 2926 3384 2791 2454 2763 2869 2991 3145 3324 3398 3092 3430 3240 3137 3200 3250 2969 3200 2948 3164 3291 3719 2857 1865 1786 1960 2187 2190 1310 1042 1269 1581 638 493 627 745
819 1350 1649 1965 1980 1996 1868 1855 2066 3067 3154 3283 3264 3275 3198 3240 3465 3455 2943 3108 3217 3028 3151 3189 2969 2995 3139 3198 3296 3346 3175 2064 1444 1760 1442 711 390 727 444 475 327 217 297
1392 1672 1765 1457 1311 1515 1625 1679 1716 1784 1966 2881 3092 2986 2865 3106 3183 3138 3420 2826 2654 2399 2281 2001 2039 2658 2623 2244 2048 2573 2576 1986 1281 1274 1099 697 503 394 290 243 119 67 145

GFSMW_con_mlcape_030.txt.gz
CAPE
370 570 464 415 559 756 841 682 957 1264 1233 1193 1064 1173 568 703 464 400 548 1081 1366 1703 1868 1554 922 1215 942 1234 910 642 212 0 0 0 1 0 0 12 33 15 0 24 110
332 530 528 430 477 712 1079 888 1029 1329 1595 1410 1405 1091 1045 846 521 259 589 1217 991 1701 1513 1543 1307 1360 1284 1389 1250 1092 431 0 0 37 30 20 7 5 11 0 0 5 3
403 413 561 495 422 843 1209 1439 1420 1995 1642 1736 1814 1345 1300 916 409 363 635 681 1272 1446 1723 1374 1401 1320 1299 788 1329 1254 811 97 0 4 74 8 8 12 7 0 0 0 0
548 432 585 526 532 824 1364 1831 1856 2105 1869 1897 1658 1461 1007 674 671 397 588 749 973 1796 2131 1736 1647 1459 1569 1126 894 1590 864 376 48 0 0 12 114 5 6 0 0 1 0
693 587 564 591 646 741 1433 1974 2122 2137 2345 1532 2106 1385 1070 899 458 675 658 742 1284 1419 1752 1923 1715 1714 1353 1303 1166 1508 894 1488 82 0 0 0 0 0 33 6 5 0 3
782 892 695 673 629 830 1247 1776 2192 2048 2196 2144 1487 1972 1231 899 666 418 657 1240 1847 1625 1802 2151 1903 1785 1435 1636 1247 1370 1759 956 1057 263 127 0 0 0 2 29 30 4 7
746 1101 1000 850 710 840 1201 1417 2271 2141 2016 2232 1621 1782 1869 809 1180 977 741 1289 977 1863 1789 1833 2221 1777 1738 1870 1621 1698 2015 1317 1209 618 65 31 90 62 12 2 17 27 3
602 1021 1240 1087 833 791 981 1353 2204 2231 2245 2080 2298 1631 2477 1632 752 1941 1114 1049 1235 1015 1912 1544 2102 2091 2047 1810 2374 2064 1918 2124 1317 1522 76 63 45 35 11 5 0 0 8
222 797 1253 1290 1038 810 969 1252 1929 2380 2511 2125 2506 2210 1657 2425 1085 1201 1798 1609 1139 1400 1358 1807 1773 1879 2012 2238 1847 2248 2357 2068 1927 1544 1276 48 49 79 65 24 0 0 0
132 695 1140 1452 1225 901 989 1142 1766 2420 2561 2678 2463 2620 2052 2182 2170 1075 1702 1427 1812 1118 1776 2203 2093 2261 2338 2642 2367 2483 2021 2125 2269 1774 1461 498 10 0 69 23 1 0 0
245 571 1209 1480 1472 1125 1087 1176 1372 2282 2760 2794 2733 2654 2772 2136 1992 2201 1746 2322 1537 2562 1436 2820 2549 2390 2389 2474 2658 2368 2171 2239 2066 2096 1592 1061 135 25 65 22 9 0 0
364 506 887 1409 1680 1427 1222 1285 1520 2003 2678 3072 3058 2856 2820 2992 2512 1769 2118 2351 2908 1878 2855 2267 2388 2625 2429 2500 2529 2623 1937 2326 2335 2087 1870 1597 870 189 215 404 14 0 0
58 450 910 1160 1596 1697 1555 1506 1584 1777 2592 3041 3160 3062 2958 2893 2949 2899 2013 2529 2541 3141 2403 3083 2710 2487 2588 2421 2737 2697 2615 1922 2693 2649 2230 1680 1381 904 126 143 285 51 123
10 475 758 1117 1426 1712 1842 1771 1723 1878 2066 2846 3120 3097 3146 3000 2976 2919 2976 2355 2854 2691 2870 2816 3053 3096 2830 2780 2660 2751 2778 2645 2203 2730 2725 2276 1572 1247 954 103 28 381 145
201 438 676 1205 1190 1474 1818 2033 1980 1975 2046 2107 2901 2977 3057 3275 3042 3036 3023 3196 2810 2866 2913 2923 3005 3022 3211 3035 2803 2691 2802 2904 2725 2517 2790 2655 2273 1618 1438 879 514 42 482
14 19 32 74 284 1575 1878 1969 2077 2298 2212 2227 2371 2689 2904 3067 3445 3260 3216 3230 3294 3216 3235 3283 3144 3101 3223 3153 2793 2745 2798 2985 2853 2807 2657 2858 2559 2188 1593 1375 813 672 102
0 0 0 0 16 199 1900 2132 2114 2163 2465 2429 2588 2613 2825 2987 3228 3478 3443 3385 3419 3488 3413 3447 3465 3225 3261 3061 2772 2625 2787 2846 2893 2898 2926 2851 2779 2487 2024 1436 1207 719 632
0 0 0 0 0 0 248 1089 2213 2172 2092 2378 2477 3167 3033 3056 3276 3469 3626 3673 3671 3688 3624 3638 3672 3564 3513 3156 2754 2553 2628 2774 2805 2887 2959 2939 2841 2814 2415 1814 1301 1107 691
0 0 0 0 0 0 22 279 426 1913 2215 1994 2296 2314 3248 3263 3419 3586 3742 3854 3912 3880 3884 3815 3842 3837 3713 3366 2921 2501 2583 2503 2615 2949 3018 3077 3074 2918 2408 2122 1638 1333 1063
547 510 306 145 14 10 0 0 606 1460 1742 1883 2113 2759 2649 3175 3349 3711 3928 4018 4094 4076 4054 4024 3943 3919 3929 3744 3152 2739 2912 2590 2470 2640 2953 2938 3162 3022 2404 2310 2079 1772 1409
635 524 399 257 424 337 36 110 39 372 1810 2155 2467 2863 3298 3116 3430 3625 4062 4139 4202 4191 4098 4063 4096 4010 3940 3975 3498 2879 3245 3139 2793 2515 2573 2771 2691 2838 2483 2292 2322 2195 1901
887 546 364 104 403 632 215 50 290 655 976 1749 2634 3136 3267 3498 3649 3752 4105 4170 4096 4086 4032 4121 4037 4078 4116 3925 3783 3067 3002 3377 3262 3000 2608 2564 2592 2363 2298 2090 2316 2098 1936
1151 1431 1400 1288 1446 1291 2064 1885 2142 2340 1847 2951 2729 2935 3576 3805 3409 3887 3947 4092 4084 4063 4059 4027 3961 4157 4044 3961 3764 3272 2939 2971 3080 3224 3081 2251 2201 2185 1918 1938 1948 1727 1937
1371 1055 1269 1683 2910 3684 3594 3225 3597 2921 2750 3335 3513 3517 3839 3941 3912 3804 4061 3996 3943 3928 3886 3847 3892 3816 3698 3702 3760 3306 2661 2707 2724 2808 2857 2830 2603 1431 1445 1405 1325 1765 1878
2083 2367 2286 2340 2626 2527 2463 2387 2619 3294 3430 3200 3480 3737 3691 3769 3942 3887 3400 4074 3803 3633 3712 3659 3478 3291 3427 2120 855 1466 2303 2405 2495 2816 2900 2789 2463 2500 1442 1088 870 1338 1715
1070 1755 2208 1919 2010 2074 2008 2150 2239 2500 3296 3792 3745 3650 3456 3578 3434 3761 3529 3361 2903 1979 1266 912 1322 1420 181 1 54 330 969 1412 1914 1931 2512 2725 2600 2087 1995 1408 797 760 1224

GFSMW_con_mlcape_033.txt.gz
CAPE
376 228 302 214 146 130 102 180 369 364 211 354 308 240 43 377 554 220 613 343 733 1123 1511 1336 1032 942 634 974 502 30 58 0 0 9 4 0 2 21 13 57 40 84 35
382 389 217 224 214 282 276 221 478 490 300 469 238 750 696 445 603 132 864 572 976 1298 1443 1062 1024 892 948 927 502 791 248 0 0 15 11 1 0 3 0 0 1 14 11
337 383 272 264 316 374 242 335 258 612 415 612 520 531 924 782 637 282 401 1005 973 1367 1316 1268 1095 1315 1090 1074 776 876 227 0 0 2 15 2 0 4 4 1 0 1 0
262 370 279 285 412 556 416 384 422 870 829 842 978 689 392 847 743 324 195 1002 810 1016 1266 1343 1003 1282 951 681 603 796 444 221 0 0 0 1 16 0 0 0 0 0 0
304 316 348 382 365 691 662 434 578 936 1132 1111 1046 883 818 863 703 401 219 472 673 972 1352 1568 1175 1108 1415 1098 697 905 990 730 173 0 0 0 0 0 18 0 0 0 0
232 278 447 386 334 700 964 905 687 1072 1141 1180 1293 1126 1154 765 797 515 260 579 698 673 1092 1855 1569 1181 1162 1050 843 985 1111 651 919 67 45 0 0 0 0 0 1 0 0
6 468 475 367 432 754 1095 1332 1154 1297 1388 1090 1140 1503 1207 964 591 524 439 564 963 850 958 1373 1681 1556 1227 1215 1169 952 1409 753 865 667 0 19 0 0 0 2 0 0 0
418 533 445 446 457 570 1074 1734 1529 1413 1667 1467 975 932 1845 1241 760 886 539 546 865 1227 1159 1278 1828 1623 1420 1231 1389 1229 1323 1554 609 847 185 0 24 45 0 0 0 0 0
820 510 508 526 392 634 936 1480 1779 1557 1699 1749 1515 954 1114 2007 974 469 1083 872 1108 931 1349 1372 1629 1771 1535 1203 1572 1632 1377 1737 1497 606 586 58 1 22 40 6 0 0 0
487 721 635 595 502 555 876 1134 1908 1680 1615 1602 1701 1403 931 1316 1914 879 485 1421 848 1046 1106 1403 1560 1646 1706 1517 1299 1996 2139 1608 1834 1517 880 121 64 37 60 52 4 0 0
869 1053 839 778 703 591 917 1078 1509 1878 1848 1697 1522 1669 1317 1096 1730 1762 777 640 1594 1455 865 1572 1554 1595 1624 1850 1599 1334 1788 2062 1825 1855 1539 1112 282 22 24 82 49 0 0
797 1272 1163 1074 911 736 884 1012 1258 1849 1911 1962 1733 1858 1878 1628 1121 1917 1782 433 1219 1353 1967 1649 1871 1929 1667 1615 1931 1723 1809 1824 1757 1981 1742 1501 1175 313 0 141 27 17 0
742 1204 1346 1298 1163 882 838 915 1154 1632 2023 2190 2256 1985 2044 2187 1768 1397 1529 2006 768 1416 1250 2114 2331 2104 2058 1976 1986 1969 1962 1969 2048 1934 1947 1731 1433 931 591 31 310 70 5
569 1065 1287 1445 1356 1064 913 959 1017 1388 2087 2310 2376 2411 2350 2383 2438 2137 1676 1340 2078 1659 2046 1544 1989 2528 2294 2080 2120 2039 1901 1960 1750 2112 2376 2017 1715 1382 1047 676 92 329 179
421 952 1210 1456 1552 1325 1061 1051 1066 1229 1514 2312 2500 2514 2629 2595 2597 2543 2631 2272 1433 1920 2131 2313 2263 2289 2534 2429 2255 2192 2129 2016 2025 1755 1984 2434 2218 1772 1440 1130 607 93 380
373 777 988 1406 1601 1609 1385 1224 1215 1318 1451 2040 2339 2707 2765 2745 2686 2710 2576 2777 2676 1964 2177 2469 2266 2511 2671 2736 2394 2414 2398 2330 2187 2078 1945 2178 2336 2254 1797 1442 1068 551 7
0 14 112 1058 1545 1683 1761 1620 1525 1465 1594 1711 2177 2573 2786 2786 2825 2779 2798 2686 2693 2838 2394 2151 2653 2374 2619 2696 2642 2583 2645 2532 2516 2402 2364 2232 2428 2471 2328 1675 1379 1104 798
0 0 0 0 0 748 1933 1895 1888 1881 1750 1812 1933 2106 2726 2866 2901 3021 2890 2969 2881 2915 3004 2905 2586 2880 2834 2671 2566 2518 2852 2759 2600 2721 2672 2547 2494 2515 2513 2356 1786 1428 1113
71 88 54 111 0 0 192 2206 2185 2241 2319 2147 2189 2199 2446 2715 2924 2980 3180 3174 3224 3168 3167 3258 3228 3119 3151 3016 2769 2489 2732 2829 2811 2748 2763 2865 2780 2727 2411 2513 2295 1834 1550
545 274 179 125 330 107 110 1286 2015 2322 2406 2617 2761 2810 2631 2775 2819 3007 3135 3288 3374 3401 3457 3388 3525 3421 3405 3331 2931 2762 2975 2866 2814 2809 2716 2639 2823 2859 2523 2539 2469 2267 1876
851 489 331 236 157 639 89 152 858 1518 1979 2058 2045 2415 2825 3004 3230 3197 3258 3448 3538 3624 3645 3753 3699 3733 3678 3607 3252 2970 3264 3201 3088 2916 2749 2614 2402 2462 2586 2423 2673 2429 2125
1277 1130 1038 1084 645 241 343 132 329 1103 1701 2122 2340 2268 2325 2496 2986 3281 3593 3731 3853 3871 3895 3903 3911 3880 3886 3782 3504 3142 3072 3439 3298 3291 3175 2966 2477 2134 2169 2137 2615 2503 2091
1520 1607 1588 1811 3137 2812 2270 1276 2012 2078 2228 1535 1371 2471 2563 2821 2997 3243 3631 3871 3997 4017 4011 3977 3927 3871 3825 3843 3641 3383 3140 3132 3424 3577 3416 3184 2880 2431 1906 1909 2086 2139 2304
778 1378 1884 2597 2793 2940 2692 2552 2517 2697 2996 1975 2938 3030 3278 3379 3331 3641 3777 3957 4007 4032 3963 3808 3669 3584 3533 3545 3274 2884 2474 2283 2330 2702 3122 3192 3016 2864 2403 1809 1241 1162 1858
1 205 837 1693 2117 2167 2126 2230 2420 2761 3026 3160 3967 3605 3464 3517 3713 3629 3782 3793 3514 3572 3501 3451 3285 3278 3095 1658 482 885 1548 1784 1689 1640 1910 2446 2791 2801 2847 2177 1749 1125 1140
0 11 293 901 1790 1614 1451 1296 1746 1849 2642 3489 3491 3718 3673 3841 3841 3636 2606 1234 1770 1726 1554 1969 1678 40 5 0 0 0 0 0 15 586 1465 1889 2243 2594 2788 2752 2658 1875 1232

GFSMW_con_mlcape_036.txt.gz
CAPE
139 151 105 90 77 79 85 14 0 52 337 186 72 38 0 1 165 473 355 353 426 805 1185 860 885 503 427 515 252 16 0 0 1 1 0 0 0 8 25 48 49 40 50
268 213 204 137 108 75 112 37 0 0 169 40 25 26 0 0 60 326 353 240 444 566 985 974 814 818 559 506 430 271 0 0 0 0 0 0 0 6 8 28 29 33 31
311 293 200 246 139 91 120 69 13 0 19 59 79 132 23 0 43 290 339 333 523 708 993 884 874 742 782 666 490 496 136 0 0 8 0 0 0 0 0 3 8 13 3
275 256 179 280 158 157 66 123 97 38 57 213 91 57 0 44 219 276 266 379 558 874 1044 981 880 831 1048 892 639 688 214 19 0 0 4 11 1 0 0 0 0 1 0
296 184 104 103 99 140 99 128 225 209 201 381 183 131 118 357 522 449 341 392 611 964 1035 918 873 714 1024 742 619 639 350 335 0 0 0 0 0 0 0 0 0 0 0
318 272 186 98 125 174 146 176 422 300 288 437 375 270 261 212 330 587 458 296 624 735 989 967 925 893 985 883 693 577 867 607 442 1 0 0 0 0 0 0 0 0 0
309 276 267 190 151 307 236 256 306 587 464 461 572 498 450 423 206 490 449 309 372 584 765 985 1098 1298 1104 1034 956 739 927 616 806 253 59 0 0 0 0 0 0 0 0
188 296 312 269 198 396 426 289 365 513 678 585 590 707 688 597 478 557 524 363 365 463 529 914 1198 1473 1338 1094 860 878 867 1114 540 702 209 12 24 35 54 15 0 0 0
156 135 326 322 246 418 594 505 433 485 831 746 829 972 913 852 708 655 534 428 461 674 636 667 946 1103 1476 1252 1086 918 954 1093 1214 563 690 157 11 16 48 4 1 0 0
248 188 318 397 312 467 640 751 716 589 884 960 824 848 1075 1252 942 755 705 702 603 672 911 950 1078 1138 1365 1444 1259 1169 1093 1249 1295 1272 519 446 129 25 11 39 0 0 0
371 103 260 445 403 438 691 1080 1068 927 1120 1252 1188 996 810 850 1593 1068 681 516 789 953 885 1203 1140 1318 1320 1441 1351 1235 1344 1355 1390 1540 1351 732 194 24 11 9 26 5 2
358 236 423 471 472 484 698 1040 1419 1283 1218 1374 1430 1374 1300 918 846 1443 1283 785 532 694 1106 1147 1297 1343 1495 1556 1485 1290 1308 1593 1757 1679 1577 1414 1190 584 0 3 9 58 4
295 505 583 516 567 480 641 978 1432 1481 1433 1451 1480 1496 1500 1301 975 907 1415 1447 982 754 858 1556 1370 1230 1452 1584 1674 1523 1376 1291 1444 1674 1705 1620 1528 1297 959 41 0 24 44
628 704 730 617 648 532 534 866 1088 1674 1618 1610 1576 1438 1512 1546 1351 1121 947 1456 1610 981 775 1099 1652 1799 1712 1586 1641 1679 1581 1496 1534 1526 1696 1660 1659 1598 1435 1043 313 4 48
594 762 826 745 779 678 586 918 1059 1398 1740 1754 1747 1646 1520 1647 1777 1628 1343 1105 1244 1520 1264 910 1154 1791 1906 2117 1963 1804 1650 1675 1807 1694 1749 1848 1833 1751 1667 1448 1197 766 348
762 1038 1010 969 1019 905 782 878 1007 1256 1712 1760 1785 1856 1890 1743 1776 1889 1911 1692 1449 1219 1422 1471 1569 1353 1705 2028 1989 2180 2062 1849 1813 1795 1731 1670 1832 1844 1805 1762 1686 1365 1169
864 1165 1218 1153 1215 1111 903 890 947 1100 1633 1769 1867 2031 2039 2155 2068 2049 2144 2156 2006 1871 1368 1322 1642 1682 1947 2020 2059 2090 2265 2203 2136 2064 1989 1958 1875 1859 1913 1476 1594 1635 1357
297 581 1057 1270 1359 1246 1052 929 979 1078 1199 1550 1908 2127 2356 2304 2402 2434 2374 2365 2373 2445 2249 1853 1693 1915 1909 1869 1937 2088 2340 2360 2305 2332 2308 2251 2242 2158 2043 2083 1657 1474 1512
1 119 384 803 1221 1594 1509 1271 1169 1217 1264 1350 1455 2085 2310 2494 2591 2586 2625 2618 2644 2556 2546 2596 2394 2063 2081 2140 1988 1984 2255 2387 2589 2628 2510 2528 2506 2408 2125 2228 2256 2002 1688
113 17 47 151 34 396 1569 1740 1629 1556 1510 1486 1620 1669 2177 2425 2552 2618 2674 2769 2742 2728 2691 2658 2746 2764 2649 2310 2249 2200 2480 2458 2495 2600 2737 2531 2532 2592 2363 2382 2427 2458 2352
980 878 787 448 122 149 261 1545 1895 2003 1947 1828 1671 1772 1840 2068 2425 2607 2783 2846 2958 2880 2912 2927 2886 2978 2988 3010 2571 2393 2892 2965 2932 2842 2847 2792 2568 2366 2310 2267 2666 2653 2557
1436 2190 1773 1712 1702 946 644 1123 1844 2101 2020 2206 2289 2263 2308 2233 2385 2512 2665 2828 2866 3026 3091 3144 3260 3267 3259 3206 2948 2749 2754 3210 3280 3228 3211 3164 2856 2487 2193 1897 2079 2299 2371
709 1390 2160 2453 2427 2191 2034 1592 2031 2216 2155 1913 2225 2344 2540 2793 2913 2864 2853 2910 3074 3120 3233 3346 3406 3512 3544 3611 3317 3133 2956 2915 3285 3509 3507 3346 3090 2723 2307 1905 2076 1837 1744
18 429 1197 1930 1972 1965 2071 2129 2224 2346 2444 1939 1715 1663 1512 2212 2602 2840 2988 3061 3238 3443 3567 3633 3683 3705 3634 3553 3190 2985 2710 2455 2325 2472 2784 2936 2896 2778 2697 2336 1875 1469 1611
1 145 670 1208 1608 1442 1190 1034 1163 1588 2444 2584 2836 2700 2353 2461 2805 2397 2412 3360 3439 3505 3646 3786 3774 3649 3477 2427 1679 1958 2182 1984 1639 1686 1758 1944 2014 2181 2355 2505 2539 2193 1738
0 136 403 798 1190 1273 1084 907 1056 1304 1485 2257 3025 3721 3586 3429 3337 2548 1548 239 1088 2225 2941 3002 2529 643 713 77 44 6 1 0 3 320 602 589 728 1059 1516 1962 2279 1940 1310

GFSMW_con_mlcape_039.txt.gz
CAPE
119 131 159 72 42 31 0 0 0 0 63 11 0 108 160 101 357 442 480 333 830 1203 660 569 523 488 277 371 262 16 0 0 0 0 0 0 0 24 37 38 43 69 39
92 88 101 142 17 45 4 0 0 0 12 30 103 133 60 0 47 308 457 303 686 982 1106 548 668 525 404 533 335 33 0 0 0 0 0 0 0 0 2 26 59 40 36
99 85 72 91 74 0 0 0 0 0 0 62 78 89 16 0 0 66 363 303 372 547 1037 952 790 644 615 435 358 269 0 0 0 0 0 0 0 0 0 0 18 29 18
101 122 101 69 60 0 0 0 0 0 0 59 105 66 0 0 0 0 168 324 358 450 876 865 737 704 688 698 575 375 163 0 0 0 0 0 0 0 0 0 0 0 4
194 133 132 125 115 23 0 0 0 0 0 1 23 2 0 0 0 0 3 377 311 460 706 956 827 809 773 861 802 535 440 56 0 0 0 0 0 0 0 0 0 0 0
283 253 166 157 187 88 15 0 0 1 0 0 0 0 0 0 0 0 0 224 435 397 619 855 891 755 678 804 677 561 452 288 33 0 0 0 0 0 0 0 0 0 0
261 255 172 214 216 199 77 15 6 23 5 0 0 0 0 0 0 0 0 150 362 451 526 764 883 767 777 780 699 495 574 543 535 165 0 0 0 0 0 0 0 0 0
105 239 205 171 194 204 136 81 87 52 35 16 20 36 23 1 32 21 56 265 380 481 446 713 894 848 873 1067 878 826 731 682 535 630 123 37 0 0 0 0 0 0 0
40 154 287 198 122 146 159 152 159 190 117 36 104 191 140 138 140 139 109 80 375 442 330 532 698 821 908 1221 1147 868 736 831 841 504 566 193 45 23 23 10 0 0 10
55 99 260 242 159 134 165 176 171 257 242 170 213 287 302 310 336 284 270 129 385 508 426 413 627 816 889 1107 1246 1108 835 876 941 936 736 598 424 65 15 36 25 3 5
61 106 228 276 218 119 260 203 206 216 394 428 384 395 475 488 512 504 406 435 319 486 604 535 599 745 752 869 1057 1311 1151 892 789 1076 1086 994 559 413 204 15 14 24 0
131 169 192 225 266 219 298 394 277 286 347 565 515 550 657 737 804 665 541 489 595 602 609 734 775 836 1010 994 1021 1182 1474 1231 949 990 1228 1210 1256 1027 509 85 12 1 0
134 226 216 199 297 285 277 558 527 448 378 602 695 662 664 686 820 1094 1041 614 544 668 698 771 1044 1056 1179 1257 1215 1231 1290 1442 1337 1113 1117 1262 1349 1170 1161 976 428 0 0
49 259 270 94 329 358 282 517 783 762 644 721 891 959 968 895 726 734 1046 1237 882 703 799 797 721 1018 1225 1275 1389 1426 1406 1381 1433 1454 1400 1382 1426 1398 1212 1091 1064 785 184
0 220 255 110 285 388 350 585 904 1133 1028 978 1094 1153 1194 1215 1127 956 876 1097 1183 930 785 921 1084 987 1152 1471 1461 1436 1429 1441 1470 1426 1417 1451 1495 1431 1445 1368 1175 953 850
0 42 252 288 365 405 402 496 905 1314 1359 1259 1210 1212 1204 1303 1314 1239 1146 999 1105 1264 1072 753 894 1128 1226 1192 1345 1572 1705 1697 1639 1574 1515 1466 1503 1581 1436 1337 1457 1420 1064
1 83 242 412 473 492 451 526 806 1200 1507 1472 1452 1418 1343 1292 1358 1418 1422 1293 1068 1107 1166 1202 953 833 1018 1152 1250 1403 1736 1721 1784 1852 1806 1772 1726 1694 1786 1508 1423 1286 1329
0 78 403 588 580 592 552 529 875 1000 1423 1600 1622 1657 1692 1594 1514 1602 1683 1686 1589 1353 1230 1112 1232 1301 1319 1245 1033 1232 1650 1811 1876 1892 1856 1860 1913 1905 1847 1911 1868 1622 1548
163 420 653 735 713 789 731 707 895 1046 1253 1498 1680 1823 1854 1842 1926 1864 1807 1874 1946 1961 1847 1735 1489 1314 1405 1441 1411 1371 1643 1859 1985 2114 2117 2179 2182 2127 1932 2066 2161 2196 2046
405 648 839 937 1012 987 859 860 965 1014 1125 1403 1679 1895 1956 2021 2057 2127 2139 2097 2198 2211 2314 2394 2434 2141 1911 1701 1606 1418 1771 1853 1938 2166 2302 2271 2330 2311 2188 2294 2352 2406 2357
990 733 622 744 768 1061 1160 1165 1102 1164 1186 1113 1219 1565 1912 2023 2229 2248 2337 2410 2451 2519 2563 2559 2506 2561 2472 2376 1843 1726 2143 2215 2296 2347 2416 2465 2375 2271 2208 2155 2553 2579 2603
1072 1266 908 737 939 1041 1353 1388 1482 1578 1340 1230 1274 1376 1464 1957 2146 2376 2445 2511 2613 2644 2657 2663 2678 2681 2695 2585 2317 2078 1945 2485 2744 2964 2951 2902 2689 2415 2232 1893 2010 2213 2216
1217 1522 1720 1738 1778 1866 1982 2058 2225 2478 1934 1907 1902 1684 1639 1670 1829 2171 2309 2559 2670 2740 2820 2844 2857 2924 2974 2976 2718 2452 2271 2182 2795 3128 3294 3243 3089 2702 2166 1968 1824 1502 1428
451 994 1421 1438 1298 1096 1240 1483 1883 2142 2239 2132 2235 2145 2306 2311 2118 2129 2289 2432 2619 2739 2804 2904 3003 3053 3146 3278 3338 2771 2329 2015 2124 2325 2595 2719 2630 2517 2623 2560 2366 1834 1647
1 131 721 1194 1126 866 846 893 1035 1283 2085 2205 2340 2789 2492 2048 2233 1659 1915 2648 2735 2765 2972 3030 3139 3303 3447 3393 2981 3020 3100 2871 2419 2346 2340 2495 2496 2320 1901 1736 1796 2134 1687
0 6 101 543 656 622 694 813 883 896 878 1501 2073 2557 3077 2832 1826 1143 845 67 869 1848 2557 3083 3154 1579 1903 1502 984 706 726 828 914 1537 1628 1394 895 786 737 693 545 250 27

GFSMW_con_mlcape_042.txt.gz
CAPE
3 62 79 37 26 43 0 0 0 0 0 0 0 0 0 6 152 156 302 292 353 706 798 571 349 273 250 258 169 22 0 6 0 11 5 0 0 21 24 22 18 38 18
23 57 83 56 22 8 0 0 0 0 0 0 0 0 0 35 117 289 365 348 391 901 929 506 443 218 255 398 199 21 0 0 0 0 0 0 0 0 1 9 18 20 21
29 44 52 75 22 4 0 0 0 0 0 0 0 0 0 5 0 55 245 305 366 618 973 919 548 548 345 459 334 60 0 0 0 0 0 0 0 0 0 0 2 18 5
58 47 38 27 33 27 0 0 0 0 0 0 0 0 10 61 28 0 119 241 269 441 571 754 845 664 537 549 428 247 44 0 0 0 0 0 0 0 0 0 0 0 0
67 66 46 26 60 0 0 0 0 0 0 0 0 0 0 0 0 0 0 165 208 281 449 608 704 638 679 568 690 546 195 3 0 0 0 0 0 0 0 0 0 0 0
71 86 61 17 0 0 0 0 0 0 0 0 0 0 0 0 0 0 0 0 123 213 303 569 729 771 737 658 772 711 406 248 33 0 0 0 0 0 0 0 0 0 0
107 101 81 63 30 0 0 0 0 0 0 0 0 0 0 0 0 0 0 0 0 182 269 400 570 669 706 717 649 646 618 365 264 117 0 0 0 0 0 0 0 0 0
194 151 129 102 61 42 0 0 0 0 0 0 0 0 0 0 0 0 0 0 0 53 337 376 459 592 752 727 744 677 579 713 540 513 331 114 0 0 0 0 0 0 0
209 198 220 172 94 58 55 4 0 0 0 0 0 0 0 0 0 0 0 0 0 68 295 447 457 532 652 762 828 1043 868 788 795 606 456 423 208 21 0 0 0 18 9
94 103 160 153 133 103 98 25 0 5 0 0 0 0 0 0 0 0 0 8 2 94 310 466 536 501 637 730 820 1008 1108 947 811 869 802 641 455 339 59 21 0 0 0
44 35 71 156 124 120 123 69 35 41 21 12 24 46 66 25 32 27 28 22 50 66 163 419 452 461 534 671 847 983 1101 1134 1041 882 1008 943 812 685 462 167 40 0 0
41 20 32 100 141 96 111 95 71 71 125 122 111 125 177 163 120 146 124 106 109 162 165 452 500 488 522 647 795 795 966 1093 1225 1128 929 819 1052 1019 938 847 507 104 0
29 49 45 53 123 129 115 121 103 113 173 225 210 200 246 279 245 285 267 219 268 231 280 378 518 534 623 715 818 945 954 1088 1212 1358 1233 1096 970 994 1104 1101 1026 674 317
7 39 68 104 162 187 137 179 149 139 171 313 345 327 347 381 437 444 444 320 365 449 433 465 543 624 665 976 1031 1110 1204 1219 1295 1375 1443 1430 1273 1150 1196 1066 1070 1094 935
0 1 29 90 167 210 175 308 304 219 224 300 490 485 479 524 550 664 781 666 475 509 527 591 609 705 756 742 1094 1359 1267 1254 1312 1365 1439 1549 1554 1408 1315 1319 1184 920 787
0 0 2 91 142 203 254 337 478 443 371 355 532 599 604 586 580 537 592 881 881 805 746 718 757 674 749 786 644 864 1462 1544 1453 1311 1277 1346 1394 1438 1384 1281 1334 1506 1320
0 0 0 78 130 238 280 333 526 676 641 581 626 777 835 866 816 752 672 663 812 1002 980 871 864 868 873 745 745 809 1018 1253 1443 1484 1546 1597 1623 1562 1665 1480 1255 1216 1270
0 0 4 90 149 256 323 288 598 931 912 877 908 1029 1094 1085 1099 1093 1034 955 887 909 1077 1127 1072 926 887 742 655 752 1096 1186 1200 1250 1390 1524 1595 1691 1682 1730 1770 1777 1660
0 4 74 175 194 265 339 391 691 1098 1151 1106 1169 1238 1262 1210 1217 1258 1280 1273 1266 1141 1043 1083 1150 1173 1162 858 717 648 994 1243 1296 1526 1605 1601 1593 1700 1547 1809 1881 1999 2090
160 3 94 233 319 369 378 502 684 998 1153 1221 1343 1484 1488 1430 1365 1347 1349 1472 1561 1551 1526 1391 1368 1265 1293 1181 1025 877 1216 1236 1312 1587 1796 1747 1925 1947 1799 1946 2131 2307 2364
725 368 421 492 495 499 493 616 736 861 1001 1270 1524 1562 1643 1666 1677 1664 1655 1678 1773 1854 1948 1986 1999 1999 1786 1757 1351 1141 1538 1768 1841 1835 1928 2039 1927 1902 1953 1916 2325 2412 2481
831 992 920 795 598 634 693 748 801 816 859 1098 1403 1574 1722 1863 1941 1951 2024 2114 2115 2164 2237 2283 2352 2409 2491 2195 1998 1613 1452 1960 2082 2225 2258 2362 2285 2085 1901 1632 1767 2013 2083
471 766 887 951 981 963 972 1073 1353 1386 990 993 1134 1277 1627 1836 2054 2128 2145 2258 2369 2437 2461 2521 2555 2607 2599 2611 2168 2041 1767 1709 2152 2415 2627 2647 2723 2449 2148 2041 1896 1606 1473
102 343 681 862 1031 1201 1463 1696 1966 1926 1605 1480 1308 1288 1397 1544 1867 2064 2247 2341 2391 2504 2576 2588 2619 2648 2695 2782 2841 2399 2014 1463 1364 1667 2112 2097 2206 2248 2385 2317 2123 1528 1414
0 72 354 487 492 619 806 897 1119 1824 2126 2334 2428 2058 1895 1668 1530 1021 1330 2135 2266 2419 2585 2623 2733 2838 2888 2954 3071 3164 2976 2703 2400 2053 1987 2228 2280 2351 2152 1858 1602 1570 1262
0 2 283 327 345 548 770 837 807 676 1049 1961 2206 2765 2430 1947 1529 1269 844 4 349 1105 1914 2559 2723 1651 1702 2032 2135 2120 1831 1798 1626 2064 2300 2080 1533 1425 1101 667 347 115 1

GFSMW_con_mlcape_045.txt.gz
CAPE
0 0 37 61 168 206 127 87 22 58 40 0 0 0 0 0 90 391 647 737 763 1010 1223 1094 878 915 857 661 616 100 49 58 68 58 37 28 21 134 133 156 198 285 242
0 0 60 67 100 191 105 78 10 6 0 0 4 5 23 235 570 858 796 872 796 1193 1468 1202 644 735 716 610 655 438 11 29 21 25 30 16 10 17 44 114 195 299 325
4 8 43 107 81 122 140 92 10 0 0 0 63 17 166 227 356 621 867 864 860 1137 1510 1302 1035 814 509 385 460 471 0 0 23 1 10 1 9 22 9 14 113 390 361
0 0 0 85 84 88 92 77 17 0 0 1 0 0 29 149 344 484 658 708 896 977 1370 1585 1232 901 1004 681 969 741 146 0 11 7 13 0 5 5 6 0 6 55 262
47 17 31 68 86 75 47 32 34 0 44 125 30 37 53 176 430 419 445 691 759 915 1148 1278 1070 666 971 844 1154 998 684 35 0 0 37 56 7 0 0 0 1 0 5
210 139 67 46 55 56 46 0 4 0 11 124 65 55 80 174 237 271 266 422 761 791 967 1196 1247 1356 1332 1284 1330 1167 997 822 226 0 18 100 123 87 20 1 62 23 65
275 207 135 83 80 64 73 51 0 0 0 61 86 93 132 198 98 197 235 212 302 660 802 892 1100 1188 1346 1423 1340 1419 1366 1155 874 563 19 0 0 6 65 34 118 102 224
331 290 182 161 134 112 154 69 57 27 0 29 101 142 186 169 168 263 230 240 161 257 732 740 972 1144 1391 1475 1414 1391 1462 1459 1365 1026 879 788 387 10 8 30 37 107 437
434 362 303 201 197 132 76 133 126 67 11 1 140 213 239 207 197 284 319 285 245 224 651 662 923 1050 1175 1328 1466 1449 1657 1490 1550 1673 1569 1289 1053 643 293 85 60 171 245
483 453 413 317 231 180 150 89 89 87 84 9 78 212 235 269 289 353 263 275 252 208 265 733 937 1175 1192 1336 1469 1486 1698 1924 1831 1572 1638 1429 1089 1067 811 581 340 224 241
351 462 592 503 369 243 266 188 92 108 81 45 78 139 250 249 304 298 334 401 290 334 380 656 834 1115 1234 1295 1441 1440 1591 1834 1957 1891 1659 1561 1757 1506 1305 1009 774 557 340
177 258 519 550 524 446 359 342 253 186 156 141 87 82 206 248 246 284 377 434 339 430 534 727 704 1009 1184 1295 1328 1285 1459 1713 1724 1890 1960 1804 1694 1630 1777 1692 1445 994 903
90 219 269 380 553 531 503 461 402 299 278 248 191 156 173 248 301 354 496 530 406 470 584 781 671 952 1083 1231 1295 1275 1453 1731 1724 1798 2007 1989 2016 1867 1664 1804 1656 1607 1580
14 141 146 181 352 446 534 550 485 387 375 352 341 361 364 359 441 539 653 652 556 582 691 817 896 959 1078 1253 1310 1423 1477 1650 1867 1902 1985 2073 2168 2075 2061 2059 2015 2033 1828
0 21 45 86 138 453 433 537 549 488 445 535 515 528 559 625 685 797 826 817 740 769 806 890 932 1084 1114 1134 1231 1414 1659 1691 1834 2006 2118 2166 2170 1978 1986 2169 2239 2179 2019
0 0 47 77 107 301 415 426 522 559 571 633 652 693 716 756 794 921 958 943 825 851 1053 1034 1106 1131 1159 834 804 1037 1452 1894 1967 1736 1951 2043 1779 1611 1311 1242 1345 1795 2296
45 21 0 58 134 279 543 466 557 668 653 677 811 880 918 912 956 1044 1135 1151 1010 1067 1117 1129 1167 1269 1374 926 557 569 1081 1339 1572 1905 2132 2228 2070 1909 1989 1918 1380 1222 1255
12 59 41 2 178 301 487 649 754 744 711 756 846 1006 1039 1036 1115 1184 1218 1295 1443 1457 1342 1366 1390 1389 1524 1176 775 595 870 1309 1629 1720 1760 1888 1896 2022 2062 2064 2094 2189 2253
111 518 502 0 140 383 609 740 970 931 851 862 890 1077 1192 1207 1312 1318 1298 1280 1294 1377 1489 1638 1702 1519 1511 1113 800 721 1105 1273 1477 1805 1871 1914 1913 1929 1686 1601 1450 1743 2247
933 511 35 0 215 465 644 820 1079 1097 976 1028 1050 1255 1398 1416 1505 1548 1563 1589 1524 1436 1482 1530 1765 1855 1810 1607 807 622 1210 1369 1469 1807 2027 1763 1741 1852 1634 1697 1914 2238 2543
724 462 230 263 439 653 787 900 1217 1182 1309 1500 1517 1573 1629 1684 1731 1772 1895 1969 1902 1904 1884 1822 1898 1892 1777 1794 1208 775 1333 1566 1757 1874 1959 2161 1849 1608 1459 1497 2223 2613 2849
407 960 681 664 568 630 795 936 1143 1656 1831 1914 1790 1798 1876 1859 1972 1958 2017 2077 2158 2197 2250 2269 2347 2406 2385 1894 1662 1171 1090 1791 2138 2437 2578 2705 2321 1961 1721 1473 1645 1740 1796
360 745 1112 1169 1122 920 1003 1072 1207 1552 1622 1791 1851 1970 2117 2131 2241 2238 2245 2268 2359 2343 2502 2572 2622 2714 2818 2979 2270 1756 1361 1330 1766 2499 2781 2561 2407 2084 1819 1697 1798 1571 1494
77 426 818 974 1111 1405 1615 1726 1808 1354 1455 1565 1758 2006 2081 2174 2314 2446 2536 2558 2650 2676 2762 2840 2879 2965 3099 3224 3240 2459 1709 1218 1101 1378 1993 2131 2149 2174 2313 2206 1965 1551 1427
0 105 382 680 871 1068 1108 1176 1595 2195 1664 1467 1521 1687 1993 2011 2408 2561 2224 2751 2807 2773 2977 3091 3150 3179 3273 3339 3355 3417 3073 2583 2168 2122 2148 2263 2282 2311 2217 2006 1709 1561 1261
0 0 30 377 498 485 447 414 416 963 2196 2868 2312 1838 1732 1803 2319 1364 910 43 471 1084 2112 2679 3093 2412 2149 2579 2549 2566 2826 2857 2353 2151 2439 2326 2137 2023 1631 1229 861 516 280

GFSMW_con_mlcape_048.txt.gz
CAPE
0 0 11 0 1 0 0 0 96 184 203 62 0 65 245 334 537 669 1049 1497 1374 1535 1899 1092 763 829 460 524 789 191 431 80 74 43 13 6 21 144 95 72 36 49 61
0 0 8 31 29 43 75 107 107 280 383 0 0 0 154 182 417 882 1382 1537 1483 1701 1624 1214 825 1093 765 365 412 735 55 45 44 57 31 22 19 39 67 61 52 85 82
13 18 15 60 52 116 143 201 255 267 404 0 0 154 248 489 740 1062 1007 1313 1554 1645 1760 1100 1057 643 824 610 769 807 283 44 39 109 55 18 25 29 2 78 51 149 123
36 44 35 73 83 133 234 232 441 387 370 63 0 88 146 119 98 532 645 1156 1568 1547 1718 1563 1188 887 1028 918 865 830 130 242 22 17 17 45 43 40 44 0 31 130 183
99 73 109 155 80 89 228 352 509 532 303 303 7 7 4 0 18 306 642 1009 1660 1607 1490 1623 1180 1151 887 1136 1345 1378 937 0 35 29 13 74 94 62 41 44 85 90 82
199 149 122 196 216 130 167 297 540 738 460 256 190 91 0 0 9 246 328 473 709 1235 1599 1756 1822 1118 969 1468 1290 1272 1572 821 284 17 64 111 220 238 174 114 258 200 226
488 298 195 189 287 281 172 174 445 820 627 443 543 175 169 111 234 574 383 248 159 393 887 1696 1933 1630 1550 1641 1541 1406 1676 1521 919 1019 0 0 9 119 158 237 184 283 316
538 571 463 236 278 346 279 232 310 748 784 463 729 898 596 289 303 632 469 378 130 133 335 1487 1526 1721 1808 1816 1900 1686 1570 1541 1536 1538 1190 325 302 315 51 66 210 201 452
535 655 692 524 341 415 436 479 508 603 698 505 801 989 886 646 413 619 708 543 582 271 429 648 1268 1216 1500 1756 1835 1441 1861 1759 1795 1833 1820 1475 640 795 533 389 278 270 356
535 680 746 717 508 454 461 443 474 667 657 491 557 689 668 850 755 755 838 888 616 840 429 778 792 937 1399 1612 1868 1485 1701 1953 1910 1426 1532 1865 804 920 946 822 588 474 445
507 657 749 768 692 517 461 533 554 643 768 699 637 609 609 656 917 826 892 1087 1070 986 1194 782 713 1074 1546 1686 1878 1714 1507 2070 2079 1946 1747 1873 2008 1435 1018 937 835 758 644
267 513 608 674 720 691 543 506 558 603 701 767 959 725 749 732 675 956 953 1154 1259 1269 1318 1172 1050 994 1182 1629 1956 1889 1397 1838 1963 2001 1990 1969 1791 2025 1994 1497 1376 905 809
97 359 441 549 674 767 728 584 562 535 586 708 695 603 655 714 762 1010 1148 1219 1323 1453 1316 1287 1352 1310 1112 1569 1856 1937 1865 1801 1932 2032 2028 2122 2249 2259 1885 1750 1488 1478 1789
5 71 241 369 719 795 1092 965 709 585 515 665 660 768 768 810 846 1073 1258 1236 1409 1550 1529 1313 1426 1477 1205 1147 1580 1780 1933 1850 1889 2139 2175 2279 2441 2601 2736 2746 2613 2498 2333
1 60 108 273 735 979 1330 1262 945 867 733 927 754 965 1116 1090 1105 1279 1369 1391 1522 1613 1698 1512 1483 1580 1341 1023 1208 1394 1503 1802 1980 2090 2368 2410 2509 2569 2694 2644 2665 2622 2461
0 0 13 99 352 804 1312 1519 1402 1138 1042 1281 1127 1203 1511 1460 1439 1561 1672 1644 1643 1741 1822 1601 1587 1654 1449 799 699 963 1102 1383 1872 2078 2251 2418 2428 2412 2125 1928 1694 1743 2333
54 91 40 22 126 501 1079 1257 1510 1345 1252 1457 1454 1500 1688 1715 1744 1732 1882 1810 1766 1870 1937 1816 1737 1855 1937 1226 683 692 947 993 1467 1919 1995 1924 1506 1871 2230 2030 1898 1738 1508
125 187 247 287 32 224 490 993 1156 1488 1512 1628 1667 1743 1900 1861 1969 2005 2037 2134 1986 2004 2001 1965 2042 2119 2139 1744 1245 752 1175 1329 1454 1591 1718 1956 1911 1841 1960 2208 2154 2167 2275
276 431 513 531 671 70 290 841 974 1330 1564 1680 1821 1877 1974 1933 1977 2013 2103 2101 2125 2125 2098 2100 2232 2259 2287 1722 1393 1150 1408 1467 1759 1838 1922 2134 2208 2171 1973 2054 1879 1866 1937
294 525 1008 1233 973 949 219 567 1075 1227 1637 1718 1802 2052 2129 2102 2092 2171 2168 2257 2241 2271 2243 2326 2426 2416 2517 2295 1472 1268 1610 1498 1525 1887 2314 1916 1889 2046 1880 2035 1870 1938 2043
265 827 1192 1233 1085 796 253 871 1226 1347 1709 1576 1689 1959 2189 2248 2291 2445 2465 2366 2219 2155 2328 2308 2412 2508 2479 2585 1858 1283 1740 1516 1424 1437 1338 1567 1555 1652 1506 1404 2026 2327 2765
636 1360 875 463 331 147 734 1434 1514 1710 1830 1824 1891 2131 2376 2133 2199 2610 2647 2561 2510 2465 2583 2491 2462 2304 2541 2262 2003 1537 1409 1767 1752 1693 1713 2558 2528 2080 1858 1623 1728 1731 1661
113 1350 1360 913 813 987 1013 1459 1794 1881 1921 1999 2228 2333 2430 2411 2486 2729 2880 2761 2875 2587 2583 2596 2513 2380 2482 2856 2179 1475 1247 1332 1655 2336 2820 2581 2599 2335 2154 1967 1889 1539 1896
0 349 1122 1692 1625 1336 1340 1515 1857 2257 2307 2367 2460 2560 2714 2672 2507 2760 2785 2670 2682 2680 2607 2665 2695 2712 2822 3066 3431 2626 1695 1304 1326 1519 2234 2653 2583 2432 2628 2944 2391 2101 1971
0 0 174 680 856 1037 1299 2023 2268 2166 2410 2536 2644 2757 2797 2702 2807 2785 1943 2753 2726 2500 2778 2825 2958 3064 3174 3353 3546 3664 3594 2874 2246 2520 2718 2837 2795 2811 2815 2641 2442 2132 1629
0 0 0 28 113 194 489 843 1562 2437 1904 2076 2285 2434 2482 2774 2802 2916 1774 278 168 498 1555 2085 2814 2845 2587 2787 3185 3226 3307 3053 2441 2261 3025 2964 2856 2715 2559 2236 1702 1310 1084

GFSMW_con_mlcape_051.txt.gz
CAPE
118 104 67 41 14 6 2 35 121 357 265 242 262 290 322 375 535 797 1210 1452 1210 1244 1570 885 1011 993 389 760 393 71 46 53 14 6 8 12 17 40 30 31 30 1 32
134 102 60 46 7 1 0 43 270 635 360 147 248 291 365 321 374 401 1134 1454 1434 1437 769 1099 1122 740 938 975 684 425 79 29 20 60 29 17 27 52 109 20 21 63 87
207 119 62 47 12 4 4 64 428 694 603 110 51 103 348 322 305 885 1080 1330 1534 1562 1485 1136 1273 1031 1423 655 820 732 417 97 8 64 64 26 18 107 3 87 100 210 204
236 161 100 83 25 11 38 236 389 763 788 462 0 106 199 82 68 402 509 1046 1388 1542 1535 1376 1459 1086 983 1246 888 975 549 511 32 1 27 60 53 43 183 16 62 153 196
176 161 141 127 86 12 151 150 634 778 684 694 101 76 207 17 43 44 1135 971 1592 1505 1539 1347 1438 1542 1144 1203 1389 1428 812 26 541 20 13 11 29 47 152 294 154 203 109
273 180 172 144 139 92 172 325 772 1043 1006 932 265 375 39 105 3 6 613 594 957 1143 1386 1540 1591 1448 1258 1617 1453 1339 1219 981 315 372 159 162 125 282 172 162 293 228 271
352 271 224 210 296 258 271 488 863 1233 1203 1023 463 518 518 108 315 471 146 152 148 317 1150 1635 1790 1612 1568 1515 1608 1810 1518 1311 838 724 162 11 87 136 215 180 226 283 334
352 357 360 301 467 459 447 508 949 1328 1370 944 707 475 628 54 1 156 230 146 58 91 1736 1816 1537 1823 1894 1595 1718 1581 1505 1395 1340 1380 1114 671 128 316 255 181 366 430 573
489 470 411 423 483 552 603 558 906 1325 1377 717 950 1012 740 138 0 0 610 965 465 180 401 1287 1522 1402 1383 1717 1738 1256 1619 1859 1903 1617 1613 1360 673 589 491 329 376 423 611
443 529 659 553 509 560 656 652 790 1259 1368 956 1130 1104 1203 1262 539 731 1304 858 829 650 648 561 796 1304 1300 1447 1906 1318 1735 1722 1625 1217 1906 1809 1219 847 925 800 606 426 463
346 547 690 800 670 594 630 694 735 974 1094 1193 1163 795 877 1024 1110 1390 1426 1406 1258 1434 1273 1164 1075 1123 1148 1504 2084 1732 1628 1636 1722 1899 1673 1784 2023 1454 846 867 774 716 703
213 555 658 891 937 806 694 753 680 695 993 1058 1397 1139 974 879 929 1033 1455 1651 1770 1663 1644 1755 1420 1189 1098 1765 1990 1785 1127 1825 1818 1825 1846 1800 1880 2291 2289 1954 1634 1133 1244
63 429 619 738 930 999 915 757 742 643 668 1091 1199 1225 969 1114 890 1329 1390 1668 1852 2009 1635 1910 1973 1574 1295 1700 2120 2140 1863 1639 1655 1726 1976 2048 2104 2328 2071 2229 1522 1344 1803
44 173 500 493 769 1029 1224 1128 860 684 544 776 871 1165 1282 1314 1102 1167 1590 1691 1960 2159 2125 2217 2152 1905 1689 1505 1548 2000 2098 2054 1810 1957 2041 2151 2295 2577 2839 2670 2754 2545 2292
18 101 310 550 973 1078 1454 1473 1069 1036 739 820 826 1111 1461 1370 1385 1234 1679 1852 2105 2222 2396 2447 2296 2139 1809 1445 1456 1874 2105 2203 2066 2038 2155 2185 2338 2286 2734 2679 2724 2624 2661
0 10 88 195 734 1207 1536 1750 1463 1332 1060 1090 983 1023 1396 1395 1371 1381 1775 2056 2212 2331 2469 2449 2491 2200 1689 1115 864 1284 1634 1885 2133 2282 2403 2400 2275 2128 2107 2240 2283 2255 2688
0 2 0 81 157 575 1395 1514 1805 1481 1473 1506 1302 1355 1668 1706 1708 1742 1967 2146 2230 2484 2653 2635 2633 2501 2362 1304 777 645 1078 1538 1791 2002 2402 2373 1660 2082 2596 2441 2219 2035 1759
79 74 101 62 36 229 523 1121 1557 1880 1840 1641 2073 1617 1984 2066 2105 2155 2189 2289 2405 2344 2551 2763 2822 2718 2722 1966 1212 713 1035 1189 1426 1982 2231 2440 2199 2249 2367 2554 2457 2726 2989
615 564 545 440 399 114 134 810 1262 2183 1951 2231 2087 2157 2141 2335 2508 2498 2519 2645 2660 2616 2675 2931 2945 2853 2833 2046 1553 1230 1306 1355 1712 1974 1958 2085 2410 2759 2267 1924 1917 2187 2461
517 614 709 725 775 848 486 356 1065 1534 2129 2356 2287 2438 2312 2544 2689 2736 2807 3001 2943 2903 2567 2827 3079 3143 3153 2785 1775 1462 1817 1644 1713 2100 2381 2170 2098 2283 2218 2458 2561 2629 2820
582 730 1014 1014 1171 1318 1001 550 841 1423 2009 2272 2487 2687 2605 2809 2893 2991 3072 3131 3103 2535 2963 2768 2957 3025 2908 3288 2274 1484 2149 1803 1596 1550 1208 1517 1575 1596 1467 1425 2128 2405 2624
92 457 1693 1737 1728 1660 1734 1484 959 1552 1867 2257 2396 2662 2899 2740 2715 3144 3215 3228 3233 3078 3222 3111 3138 2811 3260 2847 2343 1907 1809 2209 1967 1409 788 993 929 960 1240 1321 1593 1781 1810
2 196 1641 1998 1084 1064 1694 1822 1028 2063 2078 2300 2470 2649 2962 3064 2784 3151 3369 3162 3217 2634 2675 2863 2595 2326 2316 2852 2317 1798 1799 1877 1996 1984 1398 1342 1778 2148 1747 1754 2093 1972 2289
1 1 734 2362 2180 1942 1081 1061 2602 2277 2565 2617 2597 2877 2939 3088 2887 2950 3156 2717 2633 2674 2424 2327 2140 1872 1520 1364 2100 2104 1374 1348 1683 1841 1984 2129 2352 2656 3050 3001 2253 2661 3058
0 3 5 98 534 1095 1699 1906 2233 2444 2515 2676 2846 2791 2771 2769 2887 3111 2697 2750 1445 1813 2336 1719 1363 1127 1303 1364 1733 2464 2945 2395 2118 2214 2287 2327 2624 2979 3260 3262 3487 3554 2810
0 0 1 2 2 4 22 398 1170 2588 2517 2694 2673 2792 2548 2849 2957 2066 1543 677 734 827 843 802 1488 2501 1668 1962 2074 2828 3255 3102 2482 2346 2928 3164 3201 3177 3326 3149 2850 2400 2060

GFSMW_con_mlcape_054.txt.gz
CAPE
42 35 11 15 34 0 0 234 220 722 497 408 600 531 252 248 245 679 1138 1369 1336 1341 523 913 961 857 786 109 779 91 46 167 30 12 1 1 10 16 155 138 32 13 742
47 44 5 10 25 0 0 213 271 698 410 656 630 603 264 453 607 290 1592 1300 1185 1315 1310 1025 903 539 962 1034 916 900 299 28 34 41 169 9 31 102 47 150 78 115 221
170 128 8 19 26 0 0 146 437 649 427 544 368 707 810 918 343 1392 1260 1475 1309 1413 1493 1339 1050 966 863 897 757 861 667 144 28 24 330 11 41 141 37 42 243 82 171
191 226 71 44 17 30 11 176 575 1030 400 493 158 290 347 449 33 1173 1193 1243 1560 1359 1872 1229 1548 887 1090 686 1066 830 852 47 160 8 176 159 79 56 158 226 205 154 187
226 238 136 112 18 50 61 124 491 1052 700 416 407 68 325 237 568 136 1413 1457 1523 1788 1826 1512 1621 1285 1327 1090 1068 1080 760 916 416 2 10 4 94 60 313 169 243 210 406
262 244 230 142 66 91 72 318 378 683 989 360 667 192 113 414 269 65 1050 1445 1598 1602 1918 1603 1675 1686 1331 1094 1394 1357 1160 859 938 526 692 30 182 348 418 495 473 426 227
282 309 309 260 162 78 159 331 540 471 915 1036 315 1000 183 164 524 373 971 947 1403 1051 1451 1642 1525 1491 1516 1307 1444 1301 1689 1113 1322 643 620 496 113 193 232 266 520 380 412
342 302 296 308 227 126 198 343 802 710 804 1201 482 534 833 39 227 563 95 375 518 875 1218 1805 1604 1632 1591 1705 1482 1432 1457 1494 1103 1380 997 919 1132 182 312 213 344 525 822
254 293 387 341 354 334 260 526 807 1019 1102 764 1203 373 1032 751 105 137 262 708 277 615 1606 1510 2231 1809 1951 1338 1693 1469 1050 1787 1624 1500 1506 1084 1314 1186 500 481 384 587 528
59 191 445 483 595 470 566 512 934 1136 1320 1107 1160 889 329 787 415 1 60 220 1008 492 1865 1883 1691 1811 1855 1969 1779 1665 1239 1479 1874 1555 1919 1632 1158 1489 1155 1005 963 664 502
54 6 97 670 662 691 821 665 849 1280 1487 1507 1110 940 732 502 211 573 3 1068 524 1577 837 1663 1835 1683 1545 1872 1884 1445 1775 1713 1354 1877 2038 1991 1664 1639 1986 1510 966 850 1041
103 56 79 2 726 787 808 890 830 1312 1547 1659 1281 1000 1000 663 510 6 1239 763 1795 1176 2288 1226 1781 1329 1753 1752 1733 2037 1372 1808 1705 1643 1518 2144 2329 2020 1611 1887 1993 2059 2160
152 1 19 38 747 745 850 1016 944 916 1519 1740 1424 1316 1070 1147 1023 648 448 1532 1276 1835 1445 2292 1569 1970 1510 1610 1901 2210 1765 1726 2287 2185 2031 1870 2028 2137 2722 2431 2008 1652 1823
138 138 530 395 854 861 827 910 1037 1035 1061 1542 1558 1464 1282 1150 924 1214 723 1473 1879 1646 1915 1798 2264 2138 1860 1573 2010 2458 2362 2068 1889 2271 1905 2206 2390 2348 2498 2394 2239 2361 2285
0 6 124 138 512 1171 1003 953 1074 979 1015 1153 1347 1534 1694 1423 1217 1106 1335 935 1425 1921 2147 2121 2335 2393 2261 1824 1724 1914 2415 2384 2226 2128 2228 2282 2490 2498 2630 2898 2975 2835 2757
29 13 9 721 1127 1326 1216 1178 1079 1128 1020 977 1231 1368 1586 1584 1468 1206 1388 1573 1441 1836 2155 2361 2343 2596 2391 1925 1350 1665 1768 2438 2367 2247 2216 2536 2320 1956 1769 1913 2234 2381 2545
1 16 1 29 88 1163 1542 1467 1330 1244 1169 1106 1178 1280 1624 1792 1559 1719 1293 1708 1703 1844 2160 2399 2594 2619 2656 1823 1176 1135 1549 1825 2252 2555 2529 2598 2431 2160 2314 1892 1670 1775 1848
0 484 42 58 231 76 99 2011 1776 1440 1496 1296 1470 1344 1557 1713 1889 1698 1816 1515 1887 1911 2125 2438 2628 2752 2783 2339 1262 896 1085 1476 1903 2064 2104 2217 2396 2047 2532 2695 2808 2544 2490
0 614 461 312 284 383 631 1630 2128 1820 1628 1703 1579 1626 1472 1742 1809 1818 1766 1771 2000 2214 2234 2513 2678 2626 2890 2535 1906 1004 933 1094 1159 1294 1402 2202 2751 2450 1741 1327 1481 1829 2189
729 554 513 506 509 476 640 698 1572 2298 1785 1770 1938 2069 1593 1961 1944 1934 1933 2021 2175 2344 2444 2495 2724 2891 2859 2693 2181 1542 1491 1356 1352 1588 1741 1743 1473 1451 1862 2394 2555 2354 2348
270 673 765 892 769 784 981 958 813 1473 2477 1988 2074 2200 2215 1977 2399 2419 2418 2434 2552 2644 2662 2567 2743 3037 3030 3077 2227 1642 1963 1771 1872 1859 1904 2191 1965 1612 1433 1463 1845 1973 2459
259 354 720 924 1519 1884 1348 1027 1357 1286 1938 2588 2164 2728 2631 2391 2643 2765 2939 2859 2849 2967 2905 3026 3076 3168 3409 3014 2533 2106 1664 2130 2081 2047 2121 1975 1540 1497 1358 1189 1259 1498 1635
53 62 440 1303 2805 2298 2578 1550 1632 1905 1969 2391 2447 2577 2797 2913 2753 2989 3097 3195 3153 3170 3093 3145 3153 3128 3187 3358 2749 2116 2014 2009 2198 2366 2146 1447 1316 1018 723 590 921 1109 1440
4 1 149 473 478 633 1257 2795 2029 2174 1925 2399 2714 2685 3052 3068 2910 3099 3197 3314 3250 3273 3220 2958 3040 3042 3061 3111 3379 2394 1716 1721 1831 2079 2257 2000 1791 2130 2586 2420 1494 1934 2629
3 3 4 9 18 43 462 912 1261 2319 1835 2885 2862 2847 2988 3037 3165 2877 3279 3280 3161 3131 3090 2958 2745 3046 2850 2605 2451 2723 2187 1987 1835 2045 2181 2268 2100 2004 2513 3143 3347 3013 3007
2 1 2 2 2 4 5 192 618 1458 3124 2993 3016 2928 3003 3077 3187 2821 2204 886 1854 1415 2139 2186 2692 1717 1320 1078 1134 1012 1902 1673 1662 1876 2346 2341 2302 2280 2474 2973 3261 3149 3083

GFSMW_con_mlcape_057.txt.gz
CAPE
133 80 10 8 10 0 0 0 145 107 135 117 42 351 217 335 361 776 1270 957 1095 811 414 388 598 263 20 17 223 52 57 83 34 10 33 23 83 78 156 158 343 643 563
193 54 17 10 21 0 0 0 89 124 345 224 125 369 274 117 225 678 874 1003 948 707 297 396 669 656 332 720 565 752 88 171 26 32 70 13 3 35 68 107 62 142 565
91 97 13 1 3 30 0 0 211 151 166 131 39 486 124 168 158 485 790 982 1151 1007 1062 867 853 277 738 611 574 458 414 22 31 29 76 13 28 122 90 50 132 44 248
46 107 4 0 0 3 26 0 380 203 251 76 0 242 504 455 143 198 836 1154 1019 899 1248 865 672 720 764 827 329 640 575 36 33 5 33 78 78 38 28 114 156 84 325
56 63 23 1 10 15 0 49 297 247 136 355 4 70 156 301 328 473 835 819 1034 1145 1182 1044 1360 744 639 474 745 962 999 695 621 11 39 0 11 93 267 155 136 74 140
190 148 72 21 58 47 23 84 301 250 114 47 212 9 41 140 368 277 426 926 1241 1313 1535 1185 1056 998 892 911 940 1402 794 447 713 503 271 14 74 299 347 389 216 148 137
233 249 163 84 47 85 86 95 207 334 213 63 241 145 0 23 66 254 663 937 951 1233 1504 1244 1240 1362 987 973 666 1266 1220 921 686 788 492 580 539 216 308 183 284 429 254
90 300 256 182 119 165 100 122 121 283 483 148 17 295 147 0 124 640 1022 917 1044 932 1238 1257 1234 945 1243 1164 1105 1037 849 1090 769 795 1075 462 552 783 542 127 131 278 422
202 174 384 251 220 211 173 143 148 126 507 379 12 91 486 1 16 111 503 604 939 922 708 1387 1138 1131 1337 1157 1302 933 905 1477 1347 748 562 563 559 871 1039 350 201 323 305
393 393 398 386 224 243 228 230 329 175 423 532 265 3 202 376 0 6 108 376 58 252 913 1555 1346 1339 1207 1192 1562 1161 1291 1017 1511 1297 1587 1076 371 390 1646 934 763 699 458
202 88 31 354 172 202 211 304 623 430 401 410 677 156 30 474 279 33 0 166 238 1018 962 1517 1500 1617 1550 1455 1406 1378 1378 1219 1137 1595 1379 1552 1590 966 1383 1862 1586 991 782
261 128 1 0 189 252 344 317 496 745 644 587 527 682 99 87 364 179 2 0 63 287 1571 1449 1219 1371 1487 1535 1609 1544 1400 1375 1505 1540 1354 1629 2059 1606 1476 1401 1406 1614 1781
294 105 3 3 358 241 366 496 451 843 912 968 639 773 631 36 195 52 124 1 0 113 487 1514 1575 1461 1310 1161 1353 1445 1258 1351 1371 1717 1574 1415 1258 2016 2110 1863 1932 2010 1911
256 110 74 53 93 145 310 497 509 694 964 1088 1133 844 721 603 52 47 0 358 105 526 565 1104 1345 1210 1110 1275 1313 1449 1416 1422 1257 1756 1962 1845 1833 1785 1738 1948 2005 1881 1857
197 65 32 8 92 91 301 601 648 529 941 1175 1267 1153 900 670 636 166 89 0 806 278 1271 1228 1565 1525 1400 1279 1210 1427 1535 1678 1565 1338 1367 2089 1988 1855 2038 2180 2205 2359 2312
0 0 0 0 61 54 183 57 472 712 630 1221 1391 1329 1108 895 748 770 766 259 0 1402 782 902 1398 1701 1846 1603 1342 1244 1611 2106 1999 1815 1778 1577 2013 2012 1887 2070 2355 2492 2484
0 0 0 57 35 20 0 0 199 837 824 836 1342 1374 1224 1184 916 837 720 946 467 278 1587 1452 1381 1398 1656 1779 1630 1374 1229 1326 1760 2025 2018 1926 1890 1889 2126 1993 1765 1632 1582
0 0 155 197 46 106 122 183 189 436 943 951 1052 1313 1330 1298 1284 1086 891 846 1004 727 607 1229 1667 1695 1695 1871 1688 1522 1266 1342 1292 1664 2158 2139 2037 2052 2071 2030 2062 1942 1680
0 0 0 5 331 27 33 122 19 2 246 1040 1040 1232 1265 1314 1430 1230 1171 921 1059 1222 1043 1291 1657 1823 1951 1806 1822 1493 993 1068 1285 1373 1477 1669 1923 1928 1885 1673 1635 2138 2659
0 0 0 0 0 534 47 0 1 1 226 537 1263 1169 1202 1381 1387 1358 1227 1370 989 1069 1482 1316 1609 1924 1949 1987 1793 1581 1517 915 917 1088 1239 1495 1789 1941 2024 2105 1913 1603 1149
0 10 69 1 35 361 786 624 22 29 469 1080 1440 1489 1262 1360 1414 1498 1439 1340 1452 1263 1290 1576 1611 1958 2199 2254 1874 1643 1910 1392 999 969 985 1149 993 827 766 724 1062 1481 1744
0 46 0 10 77 615 843 1245 1138 929 980 1900 1776 1543 1605 1428 1586 1456 1540 1469 1436 1474 1487 1704 1866 1889 2232 2275 2116 1756 1570 1883 1500 1186 1185 1175 1207 1159 1032 838 933 1038 1100
0 2 0 0 80 200 351 752 1301 1860 1765 1333 2136 2100 2080 1622 1738 1637 1569 1636 1672 1654 1787 1882 1977 2050 2207 2511 2235 1949 1668 1542 1928 1753 1523 1593 1575 1301 1116 1051 1031 932 1044
0 0 12 32 39 7 75 257 640 1208 1683 2055 2010 2145 2279 2207 1680 2154 1955 2010 2071 2085 2033 2171 2188 2296 2344 2576 2881 2199 1662 1537 1430 1858 1694 1501 1459 1393 1471 1241 591 398 751
0 1 1 5 0 0 17 21 27 351 1218 1940 2444 2319 2346 2407 2262 2287 2454 2418 2441 2385 2308 2322 2388 2370 2563 2445 2673 2794 2219 2031 1824 1849 1751 1647 1654 1708 1693 1881 1867 1485 1495
0 0 1 2 1 0 1 1 1 15 536 1313 2251 2662 2351 2623 2624 2452 1812 767 1414 2008 2277 2382 2510 2560 2019 2440 2330 2250 2385 2187 1884 1600 1978 1956 2001 2034 1918 1889 2057 2168 2384

GFSMW_con_mlcape_060.txt.gz
CAPE
22 14 23 89 54 96 13 0 9 228 406 315 37 242 302 426 570 730 855 681 475 0 97 207 399 33 50 43 135 55 46 94 29 10 24 36 131 117 220 384 457 545 654
32 15 6 2 13 4 0 0 3 113 238 212 109 334 242 170 374 759 949 777 661 436 92 166 160 120 43 81 293 123 175 41 19 21 33 0 4 33 42 129 266 392 594
35 68 6 39 2 1 0 57 85 96 140 86 92 350 251 150 214 542 797 857 923 523 313 337 164 413 257 447 278 155 61 6 19 29 16 0 0 75 68 55 97 106 271
96 52 0 16 0 0 52 123 129 179 134 111 16 197 311 159 129 366 555 891 856 760 729 770 771 153 551 383 290 567 175 21 28 22 48 43 64 38 29 50 128 8 237
139 67 7 51 0 0 0 124 144 193 194 63 0 101 439 211 85 313 528 745 1009 850 1081 707 583 524 591 444 104 642 611 339 200 11 30 10 11 70 174 150 120 74 51
107 124 21 14 13 0 0 115 88 99 180 97 4 10 225 357 444 182 452 659 1096 975 892 775 791 556 501 350 456 756 409 344 578 182 106 20 89 244 320 260 208 94 63
88 101 106 14 0 32 40 120 108 81 176 148 67 0 85 169 376 280 375 703 1004 952 1061 939 873 411 555 661 576 1107 926 442 391 616 360 322 416 260 272 97 321 310 257
38 171 175 55 0 21 52 136 136 91 117 190 180 50 45 72 139 379 536 915 931 850 1140 1102 978 917 657 793 540 700 745 671 426 556 726 524 420 731 638 193 79 221 284
176 181 194 81 14 12 25 65 132 86 72 65 49 123 145 64 40 405 747 779 864 830 1170 1171 1123 965 974 754 669 718 599 648 662 353 250 429 447 414 603 912 101 182 202
270 342 237 124 94 105 39 19 76 106 93 69 21 11 93 190 5 2 437 1036 898 859 853 1120 1115 1013 816 919 856 649 711 700 1127 933 709 557 387 314 441 1464 736 473 395
232 361 349 182 161 165 156 109 22 54 273 253 132 5 6 161 178 0 3 182 558 815 953 1027 920 1015 884 987 1035 842 776 920 860 1048 1095 928 1313 1224 935 1241 1363 1380 977
327 365 417 313 191 214 195 205 152 81 43 317 344 127 0 4 197 85 0 0 60 491 646 710 1011 1097 1000 834 998 981 1110 971 1102 930 1133 1302 1528 1612 1442 1396 1267 1163 1270
382 295 113 13 0 94 235 263 286 244 111 151 301 310 99 0 17 213 138 3 0 90 1035 1310 1154 1227 1098 1109 1089 1068 1056 1130 1147 1236 1260 1201 1144 1301 1848 1795 1740 1610 1729
234 61 60 25 6 2 50 176 254 463 333 222 278 325 413 144 0 17 177 119 16 0 77 863 1390 1220 1186 1292 1205 1189 1119 1042 1048 1150 1141 1549 1522 1285 1164 1455 1527 1610 1636
135 0 0 0 0 0 0 44 182 393 570 495 479 352 465 567 240 0 4 2 52 20 0 133 835 1340 1172 1041 918 943 911 856 818 989 1196 1287 1732 1885 1701 1820 1775 1832 1824
0 0 0 41 198 44 0 0 8 323 746 771 745 724 476 612 608 345 31 0 0 63 50 72 198 820 1325 1153 1058 1017 943 937 899 716 1209 1344 1280 1336 1760 1824 1924 2035 2051
0 0 0 0 0 80 30 19 2 61 408 879 921 976 965 749 658 627 390 124 20 0 109 218 497 1022 1261 1256 1028 955 1041 1017 1023 973 1323 1453 1611 1646 1557 1599 1862 1821 1983
0 0 0 0 0 0 55 88 46 14 158 396 1074 1233 1205 1096 875 692 688 527 363 69 0 289 493 609 1252 1386 1220 1084 1109 1055 1106 1224 1375 1507 1487 1611 1724 1691 1554 1628 1703
0 0 0 0 3 0 0 1 183 342 85 339 336 988 1461 1294 1104 944 816 750 739 640 170 184 846 793 901 841 919 961 1088 1144 1155 1111 1164 1306 1322 1291 1574 1774 1742 1731 1731
0 0 0 0 9 185 49 124 212 37 174 195 400 243 524 1364 1227 1152 989 894 751 791 814 482 376 916 1289 1371 1098 897 1134 985 1063 1172 1155 1165 1441 1420 1313 1430 1423 1432 1340
0 0 0 0 0 0 248 258 292 173 17 0 3 151 101 558 1294 1247 1187 1090 974 841 928 932 806 832 1027 1149 1012 902 1332 1243 912 876 881 945 958 1004 1083 986 1401 1331 1353
0 0 0 0 0 3 33 310 520 440 179 0 1 31 73 460 1061 1283 1289 1199 1164 1042 910 1064 1190 1065 1192 1327 1212 1081 1058 1462 1352 1070 841 856 689 595 640 667 862 774 611
0 0 0 0 0 88 11 0 62 466 166 21 667 437 703 1182 1121 1233 1251 1270 1189 1296 1205 989 1052 1301 1370 1493 1408 1170 1035 1115 1596 1594 1325 952 791 651 588 596 555 437 498
0 0 0 0 0 0 0 0 1 33 46 0 136 1032 1400 1591 1325 1204 1171 1319 1289 1260 1316 1320 1258 1301 1489 1603 1766 1454 1102 1087 970 1542 1655 1399 1136 984 1000 911 791 541 588
0 0 0 0 0 0 0 0 0 1 2 17 221 758 1472 1429 1572 1361 1397 1324 1383 1328 1325 1330 1382 1438 1508 1628 1821 1980 1693 1559 1427 1324 1210 1193 1209 1299 1205 1155 1162 852 725
0 4 0 0 0 0 0 0 0 1 3 3 106 615 1708 1743 1922 1685 1331 433 671 1178 1237 1197 1482 1639 1650 1753 1780 1780 1921 1772 1566 1087 1310 1317 1269 1352 1482 1454 1590 1447 1336

GFSMW_con_mlcape_063.txt.gz
CAPE
0 0 3 5 18 30 22 19 50 192 246 148 104 238 273 303 376 285 593 602 451 210 245 355 288 214 35 35 51 30 45 66 36 15 30 28 39 103 352 455 402 440 424
0 0 0 21 25 5 1 0 18 140 272 152 100 230 313 280 286 437 671 697 425 5 184 179 207 24 37 112 193 66 244 64 11 16 23 5 0 49 63 162 250 332 487
0 1 7 53 19 9 4 0 0 72 242 192 120 201 229 167 285 587 664 832 688 500 224 317 228 169 60 255 217 78 79 17 6 18 5 0 0 19 27 21 52 164 227
26 57 14 45 66 10 14 0 0 28 216 190 97 200 196 202 201 396 564 875 1006 842 299 178 264 399 325 416 213 348 69 12 11 18 57 18 18 14 6 16 52 51 47
79 50 10 0 0 0 0 0 0 31 111 114 111 94 154 152 126 233 505 850 921 826 752 724 902 450 481 480 349 519 360 51 57 16 29 11 0 3 67 101 74 89 48
115 86 29 1 0 0 0 0 0 30 51 35 10 18 75 163 149 120 249 482 854 861 874 827 746 602 478 592 162 497 570 367 429 100 28 10 59 136 158 180 164 91 77
101 89 8 0 0 0 8 0 0 0 30 17 0 0 0 152 265 222 108 430 710 906 911 899 723 630 505 517 370 566 465 357 412 319 87 66 272 111 134 49 215 249 218
9 123 36 27 0 0 0 69 0 0 17 29 9 0 0 68 222 245 314 298 571 812 1001 914 887 873 493 707 596 728 745 700 375 607 797 440 422 601 736 184 84 147 156
73 123 85 19 18 0 1 61 32 0 0 24 11 3 0 0 95 145 221 389 457 785 912 917 919 1035 856 586 831 538 661 833 638 387 366 406 516 420 412 881 84 140 134
246 108 120 24 23 39 33 57 46 12 0 13 5 18 1 0 0 23 126 409 550 802 917 940 855 1030 1085 930 763 738 701 638 572 742 533 361 288 431 341 1055 798 446 348
120 76 45 62 23 47 58 85 107 89 38 36 28 0 3 37 4 0 13 66 681 857 870 951 1017 934 1125 1060 948 816 757 775 585 871 1036 867 825 915 1162 907 1181 1161 967
40 133 177 108 56 19 12 47 114 156 121 70 54 0 0 0 10 0 0 4 1 246 666 879 1014 1006 1060 1065 908 904 996 884 846 954 969 1029 1094 1233 1497 1280 1287 1283 997
132 37 49 47 22 41 37 8 18 48 137 160 100 23 0 0 0 0 0 0 0 0 90 376 869 1054 885 999 991 930 989 1063 1063 1044 1254 1103 1099 1365 1406 1547 1661 1545 1557
0 0 0 0 0 0 0 17 16 39 46 113 236 157 35 0 0 0 0 0 0 0 0 138 705 927 778 990 1097 999 943 1013 1172 1164 1154 1254 1315 1446 1354 1204 1437 1629 1405
0 0 0 0 0 0 0 0 2 20 47 48 131 248 233 131 0 0 0 0 0 0 0 1 257 856 1292 1213 1102 1064 1114 1064 1067 1222 1219 1174 1247 1356 1656 1621 1496 1531 1640
0 0 0 0 0 0 11 0 0 15 110 169 136 182 271 265 135 9 0 0 0 0 0 0 0 162 603 1172 1128 1045 1161 1166 1065 983 968 1050 1131 1218 1146 1425 1849 2035 1907
0 0 0 0 0 0 0 25 4 0 120 292 241 231 264 285 367 239 35 0 0 0 0 0 0 0 161 344 752 964 1081 938 908 927 904 927 1026 1088 1385 1327 1214 1225 1497
0 0 0 0 0 0 0 61 57 27 16 466 494 452 443 339 380 448 298 115 15 2 0 0 0 0 87 32 24 274 921 1079 1007 1040 1002 1013 1062 1093 1383 1492 1509 1577 1480
0 0 0 0 0 0 0 0 110 113 157 37 273 732 713 705 525 532 525 434 216 61 35 0 0 0 3 100 60 99 754 958 981 982 1033 1164 1159 1219 1096 1411 1257 1324 1556
0 0 0 0 0 0 0 0 8 175 177 87 78 129 725 948 929 796 664 564 494 391 237 74 0 0 117 58 116 183 573 870 974 1091 1017 811 975 1117 1081 1108 1180 1102 1161
0 0 0 0 0 0 0 0 0 0 111 160 48 0 30 363 1112 1075 852 702 667 625 597 581 256 32 227 436 171 150 498 405 588 576 596 697 468 613 871 867 1261 1223 1288
0 0 0 0 0 0 0 0 0 0 52 335 209 66 22 11 36 346 1129 948 838 676 725 698 701 583 316 276 454 439 483 790 753 724 745 597 463 289 343 413 610 870 903
0 0 0 0 0 0 0 0 0 0 0 0 36 119 102 301 141 73 382 1063 1105 1001 900 824 831 829 792 683 439 343 344 550 936 1015 1027 963 628 348 270 287 437 331 333
0 0 0 0 0 0 0 0 0 0 0 0 0 0 14 210 867 949 879 755 1173 1228 1138 1050 951 840 926 1011 964 622 363 381 456 839 1100 1197 1026 798 727 599 450 265 287
2 0 0 0 0 0 0 0 0 0 0 0 0 0 5 145 772 1185 1234 1086 1162 1215 1231 1187 1138 1017 917 930 1086 1147 990 855 772 820 815 1127 1062 1187 993 831 813 696 509
1 0 0 0 0 0 0 0 0 0 0 0 0 0 0 0 192 1010 1253 570 883 1053 1054 1067 1143 1207 1060 951 879 987 1080 999 865 818 1124 966 1052 1020 1081 1120 1023 984 948

GFSMW_con_mlcape_066.txt.gz
CAPE
0 5 0 0 16 27 29 43 60 135 63 56 182 162 153 207 230 237 280 452 409 348 263 320 149 76 56 49 56 45 103 108 21 41 71 90 68 133 247 536 540 450 461
0 0 0 0 0 10 19 35 39 106 159 92 104 167 181 198 245 285 313 515 498 96 146 291 208 135 41 157 129 66 247 93 9 16 11 0 0 14 127 133 279 355 383
0 0 0 0 0 0 0 0 19 55 184 54 76 108 126 170 225 253 352 629 566 168 80 224 254 29 33 254 263 96 110 28 5 6 19 5 0 10 58 100 50 57 149
0 0 0 5 0 5 0 0 0 24 133 62 78 87 134 183 250 245 434 608 790 659 373 173 324 276 311 217 144 320 170 19 22 0 60 34 18 59 119 34 94 104 109
0 0 0 0 0 0 0 0 0 7 63 90 54 40 76 149 145 202 429 531 777 837 511 299 340 277 368 402 329 430 284 51 35 18 22 17 13 57 161 209 201 141 158
89 47 0 2 1 0 0 0 0 0 20 85 92 60 45 74 118 128 224 415 707 800 741 719 504 302 361 531 355 343 518 370 236 145 28 15 125 188 188 212 240 183 173
205 109 25 12 15 28 20 0 0 0 5 1 93 75 28 65 78 77 88 170 370 675 693 750 665 384 493 459 436 250 471 441 381 329 122 53 407 238 270 82 202 326 342
299 151 69 5 0 0 1 14 0 0 0 0 0 47 26 17 64 83 77 86 247 457 640 778 768 599 601 495 356 446 640 487 360 575 753 473 463 602 677 663 169 225 181
266 206 109 41 2 11 2 34 2 0 0 2 0 0 0 0 33 117 139 206 305 343 592 696 629 675 745 525 584 527 464 533 550 396 421 492 566 489 403 865 251 257 237
69 136 119 32 11 0 7 33 33 0 0 34 22 0 0 0 0 30 139 207 258 367 446 615 748 645 865 793 583 541 642 526 591 747 574 364 339 398 448 725 791 590 533
181 96 26 9 14 0 0 6 68 37 21 41 49 16 0 0 0 0 51 138 175 327 473 703 872 757 711 753 934 641 627 672 694 565 769 801 796 740 1029 1150 1142 1088 878
150 137 71 34 0 0 0 0 27 51 30 21 44 25 15 0 0 0 0 0 76 197 632 777 867 838 840 783 825 902 766 614 716 794 773 888 1070 1105 1114 1451 1366 1311 1232
0 8 22 34 1 1 0 19 22 52 16 6 19 9 0 0 0 12 0 0 0 3 43 311 697 852 932 982 987 1051 934 809 803 871 904 985 1038 1038 1287 1474 1404 1607 1606
0 0 0 0 0 1 0 18 15 15 29 29 9 5 3 0 0 0 0 0 0 0 0 8 89 293 502 762 913 823 965 966 825 872 1050 1116 1180 1266 1288 1330 1370 1364 1437
0 0 0 0 0 0 7 35 1 19 3 44 60 36 2 0 0 0 0 0 0 0 0 0 1 107 287 550 779 822 858 951 827 840 855 974 1114 1105 1139 1250 1565 1549 1511
0 0 0 0 0 0 0 0 20 0 21 38 64 141 85 20 0 0 0 0 0 0 0 0 0 0 130 263 481 909 1113 1029 932 859 949 1025 1021 995 905 928 1080 1455 1721
0 0 0 0 0 0 0 0 0 51 3 41 78 62 150 152 102 29 0 0 0 0 0 0 0 0 0 5 31 177 734 1056 941 918 979 927 920 865 972 802 815 927 932
0 0 0 0 0 0 0 0 0 27 52 0 88 113 96 138 186 171 43 3 0 0 0 0 0 0 0 0 0 0 159 419 718 887 947 929 909 924 949 982 974 1086 1296
0 0 0 0 0 0 0 0 0 0 39 82 72 327 201 173 188 232 299 166 10 0 0 0 0 0 0 0 0 0 0 23 92 295 478 729 908 912 754 1023 917 1065 1100
0 0 0 0 0 0 0 0 0 0 0 53 170 20 222 521 405 305 340 368 269 126 13 24 0 0 25 0 0 0 1 0 0 65 205 279 762 803 682 853 769 827 879
0 0 0 0 0 0 0 0 0 0 0 0 38 94 0 26 698 686 492 460 460 414 280 169 128 8 5 21 0 4 110 122 7 0 34 271 90 341 402 401 635 515 856
0 0 0 0 0 0 0 0 0 0 1 0 0 0 38 26 11 512 953 741 644 610 604 510 438 325 141 10 4 0 19 222 166 73 151 293 185 0 0 4 76 191 425
0 0 0 0 0 0 0 0 0 0 0 0 0 0 0 7 96 164 86 969 931 917 807 717 682 735 648 342 116 78 47 74 276 349 275 245 217 162 88 37 65 48 110
4 0 0 0 0 0 0 0 0 0 0 0 0 0 0 0 12 180 318 221 450 800 913 733 715 746 701 727 651 241 43 72 62 260 463 586 497 490 505 335 196 95 219
2 2 2 1 0 1 0 0 0 5 0 0 0 0 0 0 0 98 445 811 451 552 869 897 936 904 863 870 825 715 435 271 242 258 352 629 686 712 751 595 589 433 361
0 1 0 0 0 0 1 0 0 6 0 0 0 0 0 0 0 0 6 458 784 691 389 849 1059 1100 952 741 591 620 510 425 192 207 612 628 677 772 704 711 757 481 313

GFSMW_con_mlcape_069.txt.gz
CAPE
80 121 82 142 77 0 0 37 111 206 180 113 149 464 481 489 524 665 789 651 841 893 833 693 644 686 434 423 434 493 619 586 461 498 450 573 723 722 723 924 1037 1082 1011
69 64 89 106 84 5 4 52 137 223 280 189 358 574 626 652 898 839 788 888 1032 839 809 880 571 600 286 469 419 407 717 608 271 290 352 167 224 343 537 655 644 764 830
49 46 64 62 80 56 23 12 110 252 421 319 318 453 511 548 643 708 719 890 1084 364 551 832 769 556 469 799 666 473 568 317 170 243 285 220 270 527 501 609 483 451 568
24 38 49 13 47 82 44 103 113 196 521 455 333 384 426 539 638 681 777 983 1188 887 548 786 826 501 441 861 857 961 650 124 191 163 374 350 374 483 482 536 532 550 548
54 22 20 11 5 60 87 125 113 173 402 533 434 478 525 576 736 797 941 983 1374 1031 1037 718 915 725 1022 837 837 835 171 204 172 154 314 283 326 631 818 523 641 685 637
114 75 30 55 23 55 68 93 64 75 302 388 427 421 449 492 484 572 798 970 1268 905 1281 1063 937 1017 1018 858 1005 1007 1074 940 724 645 442 271 559 848 843 845 935 790 852
225 102 80 50 108 107 106 130 92 84 201 264 408 383 467 511 426 489 635 906 1048 1292 1253 1271 1152 942 982 771 1213 887 962 1084 1065 1063 780 564 1083 1185 1175 792 692 767 894
385 261 140 127 184 175 157 154 157 150 170 273 331 456 530 561 530 612 594 709 815 1040 1304 1257 1018 1165 1193 1106 1038 1161 1103 1116 1115 930 1432 1245 1273 1430 1479 1548 837 752 741
547 413 263 189 223 244 221 190 208 205 191 224 338 376 532 496 491 566 619 586 715 905 1156 1303 1264 1271 1282 1325 1067 1130 1050 1287 1386 1230 1237 1329 1421 1306 1193 1486 1127 989 798
613 590 404 195 205 271 282 225 242 237 216 217 273 287 245 509 511 544 535 626 670 886 1058 1155 1309 1327 1361 1291 1186 1199 1325 1113 1209 1273 1349 1131 1086 1122 1223 1331 1422 1441 1490
284 538 516 318 203 182 194 216 258 296 296 293 295 227 145 213 386 357 460 728 734 863 1030 1118 1218 1424 1386 1534 1433 1374 1192 1309 1368 1245 1258 1445 1639 1208 1312 1656 1792 1699 1503
45 292 425 233 199 152 153 152 229 293 276 345 360 288 181 174 233 185 223 486 766 824 884 1106 1285 1528 1555 1567 1514 1093 1383 1206 1200 1306 1370 1203 1524 1810 1927 1769 2002 1884 2102
0 0 0 0 100 198 140 64 123 248 243 250 219 253 313 306 245 227 176 157 398 808 879 1063 1303 1451 1551 1544 1463 1494 1197 1580 1380 1405 1461 1485 1757 1759 1702 1983 2010 1955 2241
0 0 0 0 0 0 39 127 131 103 200 236 145 165 130 215 329 507 366 206 135 197 586 784 900 1326 1594 1642 1695 1683 1727 1840 1733 1615 1575 1579 1727 1823 2113 1982 2141 2121 2056
0 0 0 0 0 0 0 1 23 38 155 274 314 309 347 195 110 203 470 430 320 195 137 386 605 756 960 1178 1363 1533 1544 1455 1585 1782 1676 1483 1478 1395 1499 1560 1727 2060 2193
0 0 0 0 0 0 0 0 0 5 50 69 358 447 496 500 415 252 161 379 402 329 269 204 178 447 566 360 466 918 1352 1485 1409 1539 1660 1621 1114 850 724 749 864 1211 1835
0 0 0 0 0 0 0 0 0 3 84 133 81 312 495 578 481 423 361 322 313 368 301 204 207 95 251 208 117 126 782 1372 1563 1568 1628 1625 1371 1297 1539 1114 652 585 583
0 0 0 0 0 0 0 0 0 0 0 245 105 205 422 524 655 603 497 403 356 311 366 341 284 208 216 23 0 0 261 920 1183 1388 1459 1502 1565 1701 1466 1536 1587 1583 1575
0 0 0 0 0 0 0 0 0 0 0 6 274 454 442 493 543 692 744 692 530 440 395 414 425 354 231 19 0 0 88 335 876 1053 1173 1349 1236 1107 585 1003 1373 1530 1602
0 0 0 0 0 0 0 0 0 0 0 0 3 84 371 243 903 715 713 782 864 604 504 395 414 417 416 219 0 0 43 78 138 537 897 624 642 695 226 204 777 1218 1049
0 0 0 0 0 0 0 0 0 0 0 0 4 0 0 155 139 362 1131 904 914 896 830 640 535 476 425 442 81 0 98 279 362 253 140 151 138 0 6 5 598 737 977
0 0 0 0 0 0 0 0 0 0 0 0 0 0 0 2 118 143 111 978 1035 980 1013 1011 920 768 673 277 181 3 4 259 447 622 546 448 83 0 0 0 20 240 477
0 1 0 0 0 0 0 0 0 0 0 0 0 0 0 0 2 80 152 183 577 1093 1068 1149 1198 1217 1148 923 248 16 0 0 174 540 719 522 253 0 0 0 19 8 153
4 3 5 6 1 0 0 0 0 2 0 0 0 0 0 0 0 0 81 188 275 564 1143 1132 1135 1309 1313 1277 1190 472 13 0 0 38 325 440 287 206 329 289 24 73 443
1 1 1 5 9 7 0 0 0 0 4 0 0 1 0 0 1 0 0 175 478 497 398 829 1146 1072 1222 1242 1183 1238 885 420 164 90 256 536 625 651 724 735 803 843 655
2 6 6 6 6 6 6 0 0 4 8 6 0 3 1 0 0 1 0 0 0 20 267 395 380 914 1040 915 806 659 617 358 168 203 751 891 849 852 793 893 946 868 812

GFSMW_con_mlcape_072.txt.gz
CAPE
36 32 218 269 294 75 0 0 121 397 403 473 404 535 635 752 829 1047 1269 1278 1250 1362 1102 884 842 930 514 883 1172 771 757 337 582 385 235 233 555 398 290 430 414 630 702
75 75 246 285 185 14 0 0 108 535 456 192 273 499 679 777 922 1047 1260 992 1302 1035 1015 1014 939 718 398 980 1000 992 247 271 486 273 309 181 314 294 273 329 318 461 490
121 182 343 264 109 29 0 74 236 536 415 171 492 1100 1116 1147 865 1183 1090 1154 1553 1356 1314 1439 644 1206 723 307 953 899 933 112 335 813 339 332 251 471 263 406 215 529 387
312 207 261 245 127 69 30 125 401 635 626 698 543 743 539 424 567 802 913 1266 1438 1201 1148 1433 1407 1460 693 818 995 969 860 490 29 166 399 1029 753 581 342 157 265 350 329
168 311 249 277 186 156 174 233 568 697 701 910 577 862 862 516 833 804 1093 1301 1582 1253 1230 1375 1494 1457 1084 1151 1135 1561 1106 348 53 62 313 752 854 1399 685 189 173 186 314
209 227 308 276 236 193 263 296 507 901 972 1170 1306 943 739 813 445 750 924 705 1327 1175 1340 1273 1543 1440 1277 1324 1106 1523 1456 959 583 215 533 465 821 743 619 430 447 478 570
594 419 380 341 259 184 271 363 563 882 958 1045 1160 1147 1110 1130 1022 880 304 967 1148 824 1276 1167 1016 990 1103 1098 976 1662 1204 1518 840 1105 487 568 1041 1260 1203 780 596 674 764
745 587 508 415 370 315 372 444 593 889 909 931 1076 1229 1167 975 900 793 418 752 776 945 1118 1270 1083 1299 1252 1128 1127 1021 761 897 1238 1449 1568 860 1146 1329 1293 1205 968 602 565
884 756 633 559 471 491 459 582 636 1007 1009 914 1017 1221 1293 1090 594 664 877 725 717 871 1572 1014 956 990 1365 1497 1497 1201 1226 1231 1397 1141 1219 1258 1161 1219 1202 1270 1199 1070 799
873 984 825 699 568 600 582 671 721 976 1093 1045 1020 1069 1189 1245 1067 982 1082 790 625 1036 1097 1629 1451 1116 1285 1605 1834 983 1331 1282 1034 728 1338 1599 926 1275 1169 1115 1179 1226 1117
366 477 725 695 713 738 718 731 772 835 1063 1070 1008 982 979 1040 1169 1062 1125 1155 912 1027 1459 1446 1491 1528 1311 1534 2051 1483 1204 1784 1428 1053 1215 1630 1663 1037 954 1210 1250 1220 1210
0 0 0 2 82 653 716 740 806 803 906 961 1062 1065 1072 1012 829 1046 940 1015 1039 1052 1463 1634 1492 1546 1552 1836 1849 1429 1155 1270 1321 1517 1309 1340 1143 1804 1643 1349 1297 1120 1303
0 0 0 0 0 0 46 630 686 719 677 892 942 948 991 972 909 796 980 871 969 1049 1230 1483 1623 1413 1445 2075 2089 1557 1460 1701 1609 1627 1504 1591 1414 1404 988 1563 1098 1242 1545
0 0 0 0 0 0 0 0 226 575 630 814 798 824 824 849 917 955 972 947 985 1001 1026 1283 1529 1580 1077 1412 1700 1957 1623 1610 1563 1866 1834 1551 1579 1729 1947 1806 1954 1954 1648
0 0 0 0 0 0 0 0 1 16 322 599 859 811 872 884 915 953 1085 1148 1061 1041 982 900 1084 1408 1543 1110 1434 1914 1851 1884 1787 2023 2152 1826 1340 1489 1788 1821 1846 1888 1891
0 0 0 0 0 0 0 0 0 0 0 409 495 729 999 1039 1106 1064 975 1106 1202 1227 1119 1023 777 782 778 782 920 1527 1894 1869 1867 1864 2131 2053 1616 1370 1143 914 634 1015 1756
0 0 0 0 0 0 0 0 0 0 0 0 460 505 626 1047 1167 1273 1251 1129 1020 1076 1257 1193 1026 868 767 232 323 571 857 1106 1448 1676 1677 1877 1479 1640 1730 1208 718 674 633
0 0 0 0 0 0 0 0 0 0 0 0 0 353 372 609 963 1145 1171 1224 1274 1199 1209 1304 1349 1236 1134 562 159 123 627 796 1000 1224 1516 1700 1438 1355 1690 1687 1425 1549 1515
0 0 0 0 0 0 0 0 0 0 0 0 0 0 18 796 859 889 1124 1163 1160 1246 1202 1188 1328 1422 1342 744 372 104 277 227 684 1018 1294 1623 1708 1672 1238 1364 1164 1263 1287
0 0 0 0 0 0 0 0 0 0 0 0 0 0 7 1 329 719 997 976 1019 1087 1249 1269 1274 1303 1434 1233 529 166 378 345 216 365 925 1097 1186 1419 1244 1589 1234 950 683
0 0 0 0 0 0 0 0 0 0 0 0 0 0 0 0 0 72 658 786 1088 1065 1174 1278 1325 1341 1326 1312 742 291 399 428 429 354 114 84 260 483 423 828 1393 1100 640
0 0 0 0 0 0 0 0 0 0 0 0 0 0 0 0 0 1 6 544 774 1175 1302 1350 1513 1537 1502 1132 936 371 160 496 586 697 600 674 369 38 25 32 261 503 421
0 0 0 0 0 0 0 0 0 0 0 0 0 0 0 0 0 0 0 0 432 698 1142 1198 1279 1489 1534 1645 1076 497 180 64 146 711 946 811 565 239 3 1 40 1 208
0 0 0 0 0 1 1 0 0 1 0 0 0 0 0 0 0 0 0 0 0 158 573 954 1433 1301 1515 1621 1824 1270 428 48 8 42 141 514 670 637 754 574 35 63 258
5 3 4 4 2 0 3 2 0 0 0 0 0 0 0 0 0 0 0 0 0 9 111 573 968 1284 1310 1457 1662 1705 1914 1628 678 345 548 772 790 872 905 738 573 603 457
5 7 3 9 4 3 2 5 7 3 2 2 0 0 0 0 0 0 0 0 0 0 0 0 3 417 800 603 568 830 798 796 703 609 732 1086 1211 1196 1160 929 723 677 659

GFSMW_con_mlcape_075.txt.gz
CAPE
117 115 38 175 142 95 1 109 185 486 419 467 304 422 459 913 786 1100 1322 1239 1304 1088 1286 838 973 1690 836 983 878 789 767 521 443 778 372 193 277 235 132 280 322 384 635
97 134 81 316 225 130 4 1 173 600 511 495 563 349 463 666 797 1267 1150 1261 1185 1196 1111 1101 632 883 755 1138 936 911 775 283 487 947 638 260 189 133 228 190 178 433 394
110 104 155 260 325 135 1 0 146 593 511 301 532 716 846 964 1139 1181 873 1127 1290 1199 1305 1563 1158 666 1177 571 1014 859 935 598 104 360 658 890 303 228 330 233 239 372 362
159 100 142 270 256 100 0 0 174 544 576 381 418 808 540 512 329 782 992 1078 1386 1356 1350 1208 1358 1009 827 848 596 474 1331 519 119 128 306 1048 1148 1423 48 124 151 210 354
238 178 224 323 220 63 2 176 436 683 603 624 980 860 889 479 576 940 1363 1430 1433 1366 1225 1452 1447 1499 1330 684 1211 1391 1076 231 308 215 334 502 454 693 1059 102 136 222 273
436 199 303 291 224 64 45 255 758 913 969 927 1121 1133 1018 1011 942 600 1108 942 821 1076 1262 1390 1561 1544 1528 1107 1028 1255 1321 1243 823 715 335 663 695 1129 394 234 567 416 563
600 417 339 353 241 175 53 197 806 1276 1225 1211 1254 1168 1253 1105 1521 1176 733 667 1007 553 1390 1433 1634 1345 1445 1159 1130 1412 1334 883 736 354 1024 512 758 1238 638 884 789 761 690
612 442 480 365 348 238 103 188 641 1293 1391 1337 1433 1616 1540 1054 715 1073 622 748 872 676 1667 1427 1176 1296 1409 1341 1290 1307 834 879 965 758 1227 1365 770 984 996 1165 1095 640 765
721 676 467 567 330 368 241 194 663 1247 1509 1402 1494 1672 1751 1495 619 954 993 950 944 684 1512 1325 1256 1236 1277 1392 1384 1059 818 1306 1081 1102 962 1156 1039 628 997 818 892 1344 1177
90 159 241 573 455 393 385 243 469 1152 1484 1408 1443 1530 1646 1764 1414 951 1022 797 941 865 957 1363 1406 1288 1232 1403 1563 1215 1368 1079 983 539 1078 1116 1148 841 794 865 949 965 1115
1 2 0 56 118 165 652 546 580 871 1387 1415 1346 1417 1525 1613 1705 1285 1196 1189 988 1193 1239 1814 1631 1649 1472 1374 1626 1789 1437 1394 1301 1268 1070 1712 1728 1332 738 643 796 938 1062
0 0 3 3 0 0 7 300 797 804 1012 1198 1408 1403 1468 1511 1467 1589 1404 1426 1429 1118 1074 1629 1635 1730 1690 1671 1675 1571 876 1403 1342 1325 1290 1153 1260 1884 1689 1471 1436 1226 1749
0 0 0 0 1 0 0 7 207 539 796 986 1151 1311 1364 1475 1451 1386 1564 1518 1479 1380 983 1444 1556 1438 1469 1803 1884 1728 1482 1531 1413 1366 1384 1378 1510 1544 1449 1607 1086 1187 1642
0 0 0 0 0 0 1 0 0 75 336 666 1029 1188 1383 1424 1399 1519 1521 1470 1595 1483 1368 1277 1697 1780 1340 1328 1841 1845 1794 1804 1799 1765 1584 1477 1553 1795 1908 1740 1926 1582 1606
0 0 0 0 0 0 0 0 0 1 0 155 882 1083 1324 1453 1298 1439 1637 1574 1623 1596 1534 1414 1458 1543 1612 1138 1479 1666 1674 1758 1934 1886 1821 1832 1529 1451 1826 1745 1804 1632 1948
0 0 0 0 0 0 0 0 0 0 0 0 66 971 1133 1158 1456 1514 1584 1722 1800 1786 1822 1625 1411 1339 1011 704 858 1282 1664 1831 2080 2103 2283 2281 1575 1333 1096 1236 1293 1469 2175
0 0 0 0 0 0 0 0 0 0 0 0 0 15 407 997 1024 1364 1501 1630 1730 1902 2023 1863 1714 1672 1543 667 308 773 991 1593 2147 1936 2249 1967 1211 1626 1904 1293 713 391 210
0 0 0 0 0 0 0 0 0 0 0 0 0 0 0 90 560 925 1114 1402 1643 1641 1693 1893 2104 2094 2016 1256 553 191 891 1173 1279 1626 2035 2004 1978 1959 2186 1992 1882 1855 1667
0 0 0 0 0 0 0 0 0 0 0 0 0 0 0 0 3 138 770 1262 1455 1443 1543 1683 1917 2158 2242 1653 1077 439 468 517 1075 1392 1322 1590 2025 2208 1482 1715 2084 1918 2037
0 0 0 0 0 0 0 0 0 0 0 0 0 0 0 0 0 0 0 341 1152 1597 1537 1580 1606 1826 1951 2087 1527 838 961 688 739 884 1124 909 1168 1494 1711 1587 1628 1731 1752
0 0 0 0 0 0 0 0 0 0 0 0 0 0 0 0 0 0 0 2 223 980 1433 1457 1556 1531 1699 1997 1414 1143 1302 1068 919 796 780 794 540 252 613 918 1783 1847 2077
0 0 0 0 0 0 0 0 0 0 0 0 0 0 0 0 0 0 0 0 7 95 1262 1379 1428 1496 1543 1588 1545 1087 865 1360 1077 1027 820 837 394 66 25 61 325 482 998
0 0 0 0 0 0 0 0 0 0 0 0 0 0 0 0 0 0 0 0 0 0 17 988 992 1142 1443 1306 1380 971 793 745 890 1129 1040 665 356 349 0 0 54 47 238
0 0 0 0 0 0 0 0 0 0 0 0 0 0 0 0 0 0 0 0 0 0 0 150 394 966 1260 1328 1544 1466 576 338 353 608 668 597 576 613 679 731 339 126 289
0 0 0 0 1 1 0 1 0 0 0 0 0 0 0 0 0 0 0 0 0 0 0 0 30 26 32 1305 417 227 389 1137 935 826 1030 913 750 711 922 1125 1196 1290 898
2 0 0 1 1 0 1 1 3 4 2 0 0 0 0 0 0 0 0 0 0 0 0 0 0 0 0 0 0 0 6 67 182 846 1147 1285 1303 1421 1361 1378 1420 1485 1197

GFSMW_con_mlcape_078.txt.gz
CAPE
57 122 59 15 9 23 44 117 648 404 664 250 452 343 617 621 639 1032 1096 860 593 1253 1253 1526 990 1692 770 363 1231 1090 846 1047 754 767 767 513 101 132 433 610 632 524 947
57 126 42 106 98 93 43 171 596 644 622 326 687 462 808 820 650 863 1369 1384 1130 1161 1263 870 564 919 1214 1024 1170 1130 932 812 545 765 857 480 414 351 228 347 388 570 471
42 92 77 181 131 139 58 193 551 692 393 711 429 717 174 404 48 203 1078 1307 1256 1164 1390 1040 1376 324 1364 831 955 985 751 679 138 154 895 817 962 353 129 174 312 306 585
18 72 140 165 181 82 139 233 500 712 302 768 403 319 667 593 846 1164 1213 1380 1127 1144 1260 1361 1623 1143 494 706 975 891 805 519 532 158 276 869 679 1396 332 373 220 672 333
142 47 78 178 226 119 17 218 210 1073 323 610 669 565 444 481 501 903 770 991 1281 989 1055 959 1306 1149 660 118 741 1079 1094 1300 1049 376 674 356 1443 1244 1523 205 278 398 365
253 147 61 131 198 86 0 182 247 983 1048 409 802 702 667 336 129 654 31 1110 974 1188 1042 894 1459 1561 723 967 85 1071 1112 1167 1111 563 1052 1115 768 1157 1557 453 243 473 555
515 309 141 239 303 33 15 343 707 1086 932 538 828 1218 1087 952 467 210 265 1098 946 1028 1176 1476 1622 1100 1244 1077 1336 1144 1307 888 714 1520 534 1643 618 1219 1281 1356 879 765 640
492 315 223 402 359 68 112 595 1013 1170 1277 1251 1246 954 1159 950 938 394 1059 626 179 681 882 1172 1529 1584 1242 1379 1386 1315 1226 1377 372 573 854 1242 1230 1330 828 1308 1245 1437 1075
47 235 403 504 332 166 204 615 1173 1491 1579 1440 1637 1392 1228 941 997 502 866 932 430 730 799 1018 1312 1249 1129 1446 1354 837 1019 474 934 1683 519 791 1092 1112 598 952 1035 1118 1464
5 24 44 247 95 478 126 682 1137 1485 1650 1643 1728 1841 1819 1699 1272 1399 931 1448 781 294 13 383 1049 1298 1419 1197 1236 1496 746 1132 812 546 1189 378 171 1359 1499 769 1003 1023 1148
3 16 14 0 4 87 156 69 1282 1554 1823 1808 1794 1757 1805 1972 1645 1484 1369 771 1116 810 17 0 168 1171 1349 1260 1444 1046 988 1045 791 1429 1420 1064 1499 879 1913 1800 1604 935 1240
0 1 1 2 2 0 0 0 113 307 1549 1761 1755 1742 1914 1939 2064 1778 1571 1428 1069 1249 743 274 537 997 1454 1462 1306 1356 1537 1154 1353 876 881 1279 1659 1324 1440 1295 1328 1373 1296
0 0 1 1 2 0 1 0 0 9 76 764 1736 1815 1683 1795 1955 2034 1907 1855 1772 1555 1370 949 1515 1536 1270 1321 1338 1304 1605 1131 1428 1667 1476 1190 1561 1418 1290 1544 1856 1624 1908
0 0 0 0 0 0 0 0 2 13 2 16 485 1058 1603 1624 1623 1821 1864 1716 1807 1847 1560 1396 1688 1310 1548 1647 1502 1432 1434 1385 1510 1609 1681 1856 1659 1621 1408 1569 1546 1555 1738
0 0 0 0 0 0 0 0 0 0 0 0 35 83 97 1625 1903 1410 1450 1711 1793 1870 1899 1723 1462 1766 1487 1612 1516 1811 1680 1136 915 1445 1773 1922 2172 1833 1842 1807 1842 1840 1549
0 0 0 0 0 0 0 0 0 0 0 0 1 0 279 432 862 1031 1257 1729 1687 1649 1864 1953 1892 1532 1932 1220 984 1355 1883 1906 1922 1285 1469 2119 1759 1867 1179 1145 1275 1447 1573
0 0 0 0 0 0 0 0 0 0 0 0 0 0 0 0 241 957 1474 1599 1526 1596 1717 1941 1992 1902 1774 1265 395 425 1246 1784 1953 1714 1495 1702 1482 1924 1588 1015 904 698 448
0 0 0 0 0 0 0 0 0 0 0 0 0 0 0 0 3 122 218 738 1173 1291 1479 1781 2050 2173 2171 1756 1158 614 486 1185 1183 1461 1940 1845 1580 1558 1910 2259 2062 1527 1202
0 0 0 0 0 0 0 0 0 0 0 0 0 0 0 0 0 6 2 15 388 1018 1157 1268 1552 1944 2236 2060 1623 1274 883 734 837 1332 1320 1238 1954 1970 1408 1188 1427 2238 2415
0 0 0 0 0 0 0 0 0 0 0 0 0 0 0 0 0 0 0 0 0 118 799 1177 1396 1527 1750 2234 1982 1368 1402 1287 975 772 860 1090 1227 865 1296 1921 1695 1233 1058
0 0 0 0 0 0 0 0 0 0 0 0 0 0 0 0 0 0 0 0 0 0 103 330 1099 1231 1493 1712 1726 1532 1828 1627 1460 1287 1106 993 802 608 515 381 1036 1672 1698
0 0 0 0 0 0 0 0 0 0 0 0 0 0 0 0 0 0 0 0 0 0 0 17 354 1090 1556 1655 1422 1156 917 1745 1705 1571 1403 1344 977 624 546 323 183 227 623
0 0 0 0 0 0 0 0 0 0 0 0 0 0 0 0 0 0 0 0 0 0 0 0 0 77 1209 1434 1424 1252 619 763 1126 1626 1626 1414 803 461 181 58 9 1 31
0 0 0 0 0 0 0 0 0 0 0 0 0 0 0 0 0 0 0 0 0 0 0 0 0 54 477 601 1215 1206 680 333 88 180 941 1189 1107 953 661 512 282 26 112
0 0 0 0 0 1 0 0 0 0 0 0 0 0 0 0 0 0 0 0 0 0 0 0 0 0 0 34 2 23 0 0 5 121 715 994 1049 1022 960 871 841 924 619
2 0 0 0 0 1 2 1 2 0 0 0 0 0 0 0 0 0 0 0 0 0 0 0 0 0 0 0 0 0 0 0 0 5 675 995 1295 1515 1539 1233 1000 958 1122

GFSMW_con_mlcape_081.txt.gz
CAPE
55 47 8 0 0 29 12 270 198 202 0 7 459 293 319 38 322 446 157 759 482 1142 1022 853 969 853 677 566 562 1077 606 797 364 493 549 612 501 586 479 417 575 564 819
50 45 5 2 4 27 6 68 92 191 33 0 454 370 346 496 499 652 597 840 423 1190 1089 800 707 260 675 1104 1022 960 815 730 428 419 729 317 86 73 159 482 544 398 721
29 23 0 0 4 2 6 69 141 266 152 0 323 392 446 243 91 247 548 1006 866 903 1127 499 1007 615 1031 917 923 635 450 628 4 41 705 509 487 176 23 214 242 177 455
39 57 8 1 4 0 37 59 320 164 129 610 519 287 253 346 108 48 577 1034 1026 864 1227 1251 1004 583 686 549 1063 1354 883 907 587 232 575 519 703 625 87 168 77 270 468
88 78 62 40 35 0 68 36 368 306 0 283 642 440 157 375 413 613 845 974 905 1022 1118 959 1151 616 226 418 587 1006 823 978 987 515 1045 484 1343 1269 1275 84 35 204 280
193 79 84 89 60 24 72 91 308 309 107 104 530 588 225 13 21 413 361 739 937 808 771 793 1027 818 366 411 406 934 935 526 847 1120 656 1362 543 837 1237 413 116 215 255
209 91 81 165 158 80 148 131 151 469 312 145 408 410 396 94 0 253 329 615 792 981 813 790 1134 836 855 691 610 1160 938 621 220 1041 429 1067 1115 1203 1089 1258 528 350 526
319 154 136 229 222 93 119 147 76 316 556 497 286 348 478 280 459 299 147 561 478 762 934 1007 1140 1047 395 1025 892 801 807 954 102 84 301 497 728 1144 1125 932 957 1094 1171
131 331 156 176 263 103 59 161 189 263 739 530 383 531 647 641 413 139 54 583 30 433 877 994 1027 1016 956 958 1210 720 526 949 661 330 1259 314 256 321 1216 1301 1044 844 1088
52 138 29 22 180 69 127 395 550 518 705 1085 969 910 878 825 824 921 737 779 522 544 547 365 579 1002 1070 1057 1104 822 618 634 270 544 470 883 571 24 562 1493 1407 1116 878
3 3 2 31 37 0 35 223 298 471 401 887 988 1049 1093 1011 693 895 864 935 575 340 232 249 19 408 997 1200 1025 735 985 823 451 623 1342 980 1303 995 701 690 1151 1237 1430
3 0 4 0 0 0 0 1 4 45 70 294 670 853 1321 1379 1007 918 702 1343 689 634 255 0 79 345 794 1182 1067 991 575 767 851 586 774 709 1220 1470 1470 1215 860 1234 1313
1 0 0 1 1 0 0 0 0 36 19 66 162 650 1138 1432 1070 1167 1249 1446 995 588 348 66 18 414 722 1035 1264 892 1285 1110 913 814 942 583 821 675 972 918 749 1046 1251
0 0 0 0 2 4 1 3 2 3 5 0 6 154 288 558 841 1357 1776 1480 1554 1372 1018 1144 949 1092 1078 1279 1387 1144 924 1103 1210 1069 1432 1385 1022 961 1082 833 748 954 902
0 0 0 0 0 0 0 0 0 0 0 0 0 3 37 35 76 368 1018 1677 1786 1838 1694 1339 1456 1577 1195 1285 1495 1476 1095 1007 1006 1062 1253 1306 1694 1643 1464 1261 1103 1065 1117
0 0 0 0 0 0 0 0 0 0 0 0 0 0 2 27 24 4 196 1116 1392 1687 1670 1547 1515 1280 1710 1267 1139 1434 1338 1363 1183 892 762 1157 1227 1515 1897 1584 1502 1431 1195
0 0 0 0 0 0 0 0 0 0 0 0 0 0 0 0 1 54 75 305 1070 1315 1474 1614 1840 1493 1494 1507 1351 996 1368 1444 1465 1214 1144 1258 1214 1080 1422 1266 1245 1078 966
0 0 0 0 0 0 0 0 0 0 0 0 0 0 0 0 0 15 43 35 216 643 1348 1278 1378 1551 1876 1783 1335 971 763 815 1377 1870 1800 1645 1378 1178 1171 1476 1524 1266 1005
0 0 0 0 0 0 0 0 0 0 0 0 0 0 0 0 0 0 0 0 0 13 253 910 1097 1258 1347 1390 1683 1537 1037 889 789 817 1091 1527 1449 1430 1355 1315 1419 1663 1662
0 0 0 0 0 0 0 0 0 0 0 0 0 0 0 0 0 0 0 0 0 0 0 65 274 969 1084 1242 1280 1267 1115 1118 1077 982 881 740 924 1116 1292 1321 1366 1396 1256
0 0 0 0 0 0 0 0 0 0 0 0 0 0 0 0 0 0 0 0 0 0 0 0 0 12 507 1082 1088 1042 1174 1315 1072 1164 1200 1007 824 579 461 463 748 682 715
0 0 0 0 0 0 0 0 0 0 0 0 0 0 0 0 0 0 0 0 0 0 0 0 0 0 8 325 732 767 607 1136 1248 1316 1316 1383 1128 883 650 415 393 370 341
0 0 0 0 0 0 0 0 0 0 0 0 0 0 0 0 0 0 0 0 0 0 0 0 0 0 0 0 841 920 691 400 430 441 831 812 734 905 874 484 357 141 122
0 0 0 0 0 0 0 0 0 0 0 0 0 0 0 0 0 0 0 0 0 0 0 0 0 0 0 0 46 0 115 21 0 0 7 288 369 532 837 832 647 335 182
0 0 0 0 0 0 0 0 0 0 0 0 0 0 0 0 0 0 0 0 0 0 0 0 0 0 0 0 0 0 0 0 0 0 0 0 220 610 801 935 982 944 524
0 0 0 0 0 0 0 0 0 0 0 0 0 0 0 0 0 0 0 0 0 0 0 0 0 0 0 0 0 0 0 0 0 0 0 0 0 393 996 1038 1060 981 933

GFSMW_con_mlcape_084.txt.gz
CAPE
9 4 86 202 196 125 83 44 15 16 96 350 257 226 158 169 455 351 66 354 594 1051 465 534 628 636 668 742 567 474 513 596 329 309 348 542 370 399 398 373 640 660 660
8 2 31 100 89 112 164 103 27 0 0 204 435 362 281 142 343 486 383 405 406 862 997 726 569 543 612 608 964 832 683 586 406 414 418 175 61 24 168 370 354 480 721
15 0 0 14 25 22 174 178 162 31 0 10 402 448 373 215 354 395 566 696 660 842 746 312 702 383 878 843 799 394 459 336 121 148 500 439 196 119 36 297 351 464 403
30 0 0 2 35 40 159 244 206 104 42 87 197 429 333 250 211 267 525 877 947 885 658 759 679 522 432 505 851 1213 836 496 475 280 563 597 722 253 7 135 249 43 397
50 5 0 0 19 79 123 163 184 137 160 383 249 328 360 401 329 247 278 909 951 899 1075 603 575 431 245 488 630 923 722 928 606 767 1001 1078 1349 953 940 76 69 121 281
37 41 4 15 2 80 115 180 205 208 173 406 561 546 291 250 399 332 409 760 915 850 889 902 781 670 376 513 355 749 758 658 694 755 1035 837 728 958 1114 712 20 71 106
109 28 38 19 30 97 138 213 200 175 170 72 402 562 430 143 261 441 424 643 709 771 833 903 762 539 168 262 427 688 968 600 164 540 334 829 996 1049 989 1002 456 201 191
192 97 95 69 85 67 151 177 262 204 211 167 183 482 451 201 17 151 448 421 639 601 941 891 941 832 722 427 558 798 715 720 567 162 334 504 348 611 1264 1043 882 706 863
252 262 77 145 152 90 165 168 274 282 220 210 199 386 475 362 240 414 257 195 599 512 661 845 891 822 777 573 755 579 630 464 697 391 480 808 279 56 774 1270 1183 743 833
41 74 62 114 196 92 139 224 224 332 329 298 328 347 423 491 181 314 189 56 369 413 624 854 875 764 669 489 824 749 549 410 363 173 331 423 773 560 528 674 1013 1177 882
1 1 0 32 145 93 80 166 208 197 209 369 401 550 414 604 558 391 688 700 583 488 500 491 489 566 578 978 1063 838 627 529 538 213 624 750 1067 1073 1174 893 685 928 1037
1 2 2 1 54 19 37 95 132 32 64 94 206 376 353 413 691 787 957 840 775 501 397 265 207 63 399 773 1092 862 696 625 778 467 270 524 744 991 1312 1032 794 952 1311
0 0 1 0 0 1 28 61 23 20 16 5 69 148 199 303 374 600 738 836 779 701 467 328 14 3 174 562 973 1007 829 576 557 1001 592 710 561 435 485 437 595 590 850
0 0 0 0 1 1 0 0 7 17 36 12 0 13 93 116 187 365 499 577 668 775 598 432 279 111 50 393 726 960 976 872 975 910 831 807 886 813 644 688 827 711 625
0 0 0 0 0 0 2 2 0 0 0 6 19 2 26 20 51 108 2 33 439 896 651 585 505 471 605 822 715 1187 1113 833 746 880 1005 1013 1195 1326 1175 1212 1195 1004 943
0 0 0 0 0 0 0 0 0 0 0 0 0 1 11 4 0 7 9 0 13 575 978 1056 1190 1352 1534 1447 1286 1149 1078 1051 1014 831 821 836 1057 1058 1101 1416 1508 1589 1083
0 0 0 0 0 0 0 0 0 0 0 0 0 0 0 0 0 11 40 1 2 180 643 1034 1079 1193 1239 1328 1181 1112 1044 1114 1160 1130 1020 921 820 738 873 999 1235 1267 1153
0 0 0 0 0 0 0 0 0 0 0 0 0 0 0 0 0 0 0 0 9 43 145 446 892 1002 1200 1182 1118 1051 851 933 1075 1180 1261 1209 1154 1093 1119 1000 869 852 980
0 0 0 0 0 0 0 0 0 0 0 0 0 0 0 0 0 0 0 0 0 0 0 3 96 422 739 958 815 831 948 948 812 724 853 1061 1207 1497 1416 1261 1217 1118 1096
0 0 0 0 0 0 0 0 0 0 0 0 0 0 0 0 0 0 0 0 0 0 0 0 0 0 17 78 377 743 680 806 901 899 835 790 866 885 761 792 952 1004 967
0 0 0 0 0 0 0 0 0 0 0 0 0 0 0 0 0 0 0 0 0 0 0 0 0 0 0 0 0 160 501 835 981 770 837 903 761 639 636 671 907 887 830
0 0 0 0 0 0 0 0 0 0 0 0 0 0 0 0 0 0 0 0 0 0 0 0 0 0 0 0 28 22 146 287 470 762 1011 1181 946 453 330 258 396 489 359
0 0 0 0 0 0 0 0 0 0 0 0 0 0 0 0 0 0 0 0 0 0 0 0 0 0 0 0 0 0 0 0 0 9 10 1 19 49 292 577 512 347 279
0 0 0 0 0 0 0 0 0 0 0 0 0 0 0 0 0 0 0 0 0 0 0 0 0 0 0 0 0 0 0 0 0 0 0 0 0 0 0 0 205 249 333
0 0 0 0 0 0 0 0 0 0 0 0 0 0 0 0 0 0 0 0 0 0 0 0 0 0 0 0 0 0 0 0 0 0 0 0 0 0 0 0 0 336 443
0 0 0 0 0 0 0 0 0 0 0 0 0 0 0 0 0 0 0 0 0 0 0 0 0 0 0 0 0 0 0 0 0 0 0 0 0 0 0 0 0 110 542

GFSMW_con_mlcape_087.txt.gz
CAPE
46 82 120 171 145 169 196 174 0 47 40 220 223 172 182 249 342 366 373 513 632 767 638 533 822 715 723 650 527 531 507 564 315 302 387 224 430 368 381 311 409 548 624
43 139 124 165 137 107 143 175 109 158 162 100 159 170 116 162 337 396 298 273 555 542 664 413 491 477 581 591 628 903 613 504 386 304 429 138 42 68 88 209 401 387 591
10 90 139 164 151 131 101 140 91 30 167 204 256 236 248 124 120 380 534 459 580 533 854 662 617 513 673 544 695 450 367 327 262 175 218 473 199 102 20 162 238 341 374
0 46 130 136 158 126 100 72 38 0 45 211 330 213 238 307 197 293 376 539 836 826 695 449 785 452 468 667 800 1213 850 457 518 371 499 471 687 258 20 78 205 201 194
0 5 47 104 111 116 163 79 22 0 21 88 210 231 293 234 235 249 189 588 858 776 737 526 509 449 335 452 558 713 751 772 661 831 822 957 921 888 724 132 97 25 121
0 0 3 16 77 78 190 191 110 58 83 114 110 135 232 368 331 267 137 480 832 767 650 711 251 437 342 297 415 914 606 596 873 554 947 848 935 1013 1003 641 131 45 88
12 0 0 1 37 54 163 195 185 126 119 239 213 209 290 257 230 347 221 432 662 719 863 760 564 458 472 498 375 487 895 555 224 387 383 578 750 943 1008 894 681 150 150
19 17 0 0 11 26 130 145 146 133 141 218 305 339 293 217 152 310 373 426 516 624 790 810 791 637 451 210 417 527 778 677 666 331 324 685 259 444 1136 994 780 393 496
146 33 26 6 20 41 99 164 152 141 133 112 102 310 302 267 133 25 209 347 391 489 529 744 851 744 697 606 450 466 512 483 416 554 446 481 626 339 350 859 1072 640 752
22 72 84 131 49 28 158 168 345 201 182 195 164 173 321 336 263 185 299 208 153 345 478 620 774 818 695 596 447 701 496 465 365 333 212 270 653 765 925 546 827 889 811
0 0 4 156 178 96 162 158 180 221 213 295 319 281 300 366 328 262 154 191 68 215 410 403 694 785 690 632 429 664 730 647 280 419 402 617 786 1021 1152 1098 706 897 1044
3 1 0 1 74 144 190 195 139 70 29 116 258 399 516 528 370 288 370 373 683 555 332 362 500 505 503 542 661 968 891 705 425 467 444 99 481 645 1044 1170 801 640 739
1 2 1 1 17 43 130 133 71 28 7 36 71 123 129 224 354 344 551 459 578 540 388 353 305 256 89 217 567 836 954 817 665 418 464 788 515 424 354 461 379 434 555
0 1 1 0 1 0 5 42 41 27 19 51 20 8 46 44 42 0 58 254 434 609 544 400 260 123 15 9 286 599 766 837 820 765 709 599 638 653 634 587 574 702 729
0 0 0 0 0 0 0 0 0 6 17 7 17 3 3 0 0 6 4 0 11 183 560 624 457 308 208 123 133 301 684 798 741 813 792 785 812 834 1033 1134 988 991 1052
0 0 0 0 0 0 1 2 1 0 0 0 0 0 0 5 0 15 0 0 0 15 99 439 702 702 673 602 657 791 778 911 1033 911 844 848 718 731 749 891 887 1112 1146
0 0 0 0 0 0 0 0 0 0 0 0 1 1 1 0 0 0 0 0 0 0 0 26 276 614 797 964 957 1005 1027 1186 1112 995 961 925 1000 920 832 681 554 571 614
0 0 0 0 0 0 0 0 0 0 0 0 0 0 0 0 0 0 0 0 0 0 0 0 0 27 223 278 407 424 546 799 824 905 1006 1057 1002 890 980 1026 1027 964 869
0 0 0 0 0 0 0 0 0 0 0 0 0 0 0 0 0 0 0 0 0 0 0 0 0 0 0 2 5 55 372 504 751 744 720 897 908 894 847 762 681 749 1051
0 0 0 0 0 0 0 0 0 0 0 0 0 0 0 0 0 0 0 0 0 0 0 0 0 0 0 0 0 0 39 329 451 646 663 604 624 686 635 678 798 814 698
0 0 0 0 0 0 0 0 0 0 0 0 0 0 0 0 0 0 0 0 0 0 0 0 0 0 0 0 0 0 0 39 274 442 501 601 614 433 342 125 439 727 660
0 0 0 0 0 0 0 0 0 0 0 0 0 0 0 0 0 0 0 0 0 0 0 0 0 0 0 0 0 0 0 0 0 0 62 111 1 0 21 60 319 315 89
0 0 0 0 0 0 0 0 0 0 0 0 0 0 0 0 0 0 0 0 0 0 0 0 0 0 0 0 0 0 0 0 0 0 0 0 0 0 0 0 0 0 0
0 0 0 0 0 0 0 0 0 0 0 0 0 0 0 0 0 0 0 0 0 0 0 0 0 0 0 0 0 0 0 0 0 0 0 0 0 0 0 0 0 0 0
0 0 0 0 0 0 0 0 0 0 0 0 0 0 0 0 0 0 0 0 0 0 0 0 0 0 0 0 0 0 0 0 0 0 0 0 0 0 0 0 0 0 0
0 0 0 0 0 0 0 0 0 0 0 0 0 0 0 0 0 0 0 0 0 0 0 0 0 0 0 0 0 0 0 0 0 0 0 0 0 0 0 0 0 0 0

GFSMW_con_mlcape_090.txt.gz
CAPE
108 57 42 117 170 189 211 181 164 96 56 95 139 167 191 230 331 345 333 558 668 665 679 545 612 625 673 558 535 659 473 572 468 441 505 221 355 416 433 437 444 553 611
85 79 54 66 148 154 178 172 105 10 78 132 108 134 143 180 319 328 293 321 483 606 497 382 488 471 510 536 603 676 550 459 269 174 282 229 79 59 89 93 285 477 516
18 73 84 71 106 124 106 184 0 0 27 146 159 151 131 106 203 318 376 308 524 421 672 565 361 416 508 466 579 413 528 322 381 164 208 547 327 89 32 185 268 358 411
14 97 100 101 109 107 103 147 20 58 0 106 141 150 153 193 97 189 341 434 641 510 564 568 363 468 526 568 681 1030 762 479 671 522 488 428 761 599 94 90 173 220 268
10 81 92 109 129 114 75 79 106 19 54 145 192 178 145 170 197 203 229 384 703 715 660 378 611 292 339 296 525 769 739 730 579 851 824 743 620 731 793 376 135 118 122
1 68 120 111 110 85 68 57 97 39 0 91 138 168 162 231 201 241 180 217 711 610 569 523 327 285 250 268 331 814 495 460 752 432 818 833 932 1105 962 831 496 106 120
0 9 86 39 74 73 101 81 55 25 0 0 65 96 122 239 263 244 174 139 550 680 523 543 519 209 386 325 285 509 793 360 220 192 348 355 594 1080 989 909 775 179 198
0 0 15 21 6 58 132 122 107 38 13 79 86 76 89 206 193 174 301 234 405 594 497 690 678 479 453 233 253 295 610 646 569 399 338 631 308 233 694 1069 1009 579 501
3 0 0 28 3 1 38 98 125 86 64 99 196 213 183 164 168 96 110 246 366 448 535 690 581 635 555 403 259 335 491 473 330 289 328 258 469 723 395 672 974 755 745
9 16 17 7 0 2 29 110 111 99 77 76 181 263 260 209 167 103 62 87 213 272 347 458 499 485 516 566 452 464 388 391 429 235 184 179 300 796 1036 749 696 704 773
8 10 20 36 2 7 46 117 255 219 93 12 103 127 187 256 271 221 175 136 150 59 55 213 457 598 514 595 477 278 505 540 372 231 229 338 536 762 1037 1141 792 830 928
0 0 3 19 92 49 94 132 154 104 97 57 149 234 319 330 352 296 244 282 256 240 224 251 262 400 626 664 617 286 401 556 568 323 251 318 250 422 619 1038 982 798 632
1 1 1 7 18 88 156 95 76 68 71 19 46 69 136 239 276 281 239 231 382 410 361 299 231 222 277 299 423 496 501 595 431 567 462 343 515 337 352 290 440 471 456
0 0 1 1 1 15 53 73 56 34 13 7 28 24 13 0 0 0 0 52 186 443 433 377 308 279 192 50 32 34 403 556 559 465 536 530 471 537 584 572 472 531 591
0 0 0 0 1 0 4 33 33 29 36 46 41 23 3 0 0 0 0 0 0 25 220 477 443 397 286 208 120 32 145 362 544 639 661 663 636 548 531 681 878 784 749
0 0 0 1 1 2 1 1 0 0 6 1 0 3 0 5 1 0 0 0 0 0 0 85 303 423 543 540 295 231 445 633 658 695 890 816 658 695 622 538 554 761 930
0 0 0 0 0 0 0 1 1 0 0 1 1 1 0 0 0 0 0 0 0 0 0 0 0 24 140 36 121 246 581 839 965 993 1034 992 967 826 850 710 553 470 406
0 0 0 0 0 0 0 0 0 0 0 0 0 0 0 0 0 0 0 0 0 0 0 0 0 0 0 0 0 0 120 436 664 794 878 890 886 913 855 820 810 862 845
0 0 0 0 0 0 0 0 0 0 0 0 0 0 0 0 0 0 0 0 0 0 0 0 0 0 0 0 0 0 0 140 390 505 579 653 772 770 598 645 552 667 711
0 0 0 0 0 0 0 0 0 0 0 0 0 0 0 0 0 0 0 0 0 0 0 0 0 0 0 0 0 0 0 0 74 234 336 381 412 461 221 399 569 639 692
0 0 0 0 0 0 0 0 0 0 0 0 0 0 0 0 0 0 0 0 0 0 0 0 0 0 0 0 0 0 0 0 0 1 34 28 0 0 0 0 157 437 496
0 0 0 0 0 0 0 0 0 0 0 0 0 0 0 0 0 0 0 0 0 0 0 0 0 0 0 0 0 0 0 0 0 0 0 0 0 0 0 0 0 0 0
0 0 0 0 0 0 0 0 0 0 0 0 0 0 0 0 0 0 0 0 0 0 0 0 0 0 0 0 0 0 0 0 0 0 0 0 0 0 0 0 0 0 0
0 0 0 0 0 0 0 0 0 0 0 0 0 0 0 0 0 0 0 0 0 0 0 0 0 0 0 0 0 0 0 0 0 0 0 0 0 0 0 0 0 0 0
0 0 0 0 0 0 0 0 0 0 0 0 0 0 0 0 0 0 0 0 0 0 0 0 0 0 0 0 0 0 0 0 0 0 0 0 0 0 0 0 0 0 0
0 0 0 0 0 0 0 0 0 0 0 0 0 0 0 0 0 0 0 0 0 0 0 0 0 0 0 0 0 0 0 0 0 0 0 0 0 0 0 0 0 0 0

GFSMW_con_mlcape_093.txt.gz
CAPE
167 169 187 203 253 372 320 287 342 409 335 420 583 574 463 754 841 621 928 1023 1244 803 1298 1225 1276 1317 1450 1155 1478 1239 1276 1247 1007 1032 1017 825 776 1104 1122 1246 1235 1308 1336
207 104 139 210 249 365 366 386 386 398 351 476 557 658 610 660 868 884 806 968 1070 1203 1145 1019 1129 1090 1159 1206 1384 1207 1089 938 792 763 974 770 587 748 592 687 867 1133 1284
167 144 129 185 233 320 339 363 342 349 291 391 443 433 444 503 698 766 737 691 1007 986 1220 1010 983 993 1100 1175 1259 1161 1169 1008 1151 988 977 1132 709 725 416 666 958 1042 1185
171 201 218 230 182 230 358 386 343 245 187 386 450 252 324 256 513 752 931 927 973 931 1181 1296 1030 1171 1317 1133 1413 1617 1307 1380 1414 1559 1318 1302 1583 1399 661 667 649 625 868
127 194 225 266 231 254 260 354 291 204 133 235 445 410 206 647 594 525 774 923 1101 1137 1203 1113 1094 979 974 1138 1316 1464 1568 1446 1529 1646 1705 1592 1462 1672 1668 748 680 675 676
50 157 98 206 242 239 246 275 324 207 305 244 356 413 344 164 497 562 596 753 1224 1320 1241 1066 1103 937 865 949 1100 1368 1192 1310 1299 1404 1552 1623 1718 1906 1826 1722 1533 696 683
22 185 150 163 216 201 150 81 225 314 232 301 438 483 486 532 288 375 627 557 1000 1098 1025 1005 894 807 853 846 993 1302 1115 930 982 768 1086 1135 1359 1875 1744 1905 1700 905 952
33 90 212 128 76 66 121 111 203 262 311 189 216 425 459 501 619 487 697 658 614 739 888 769 783 975 1014 968 984 922 1336 1497 1399 1101 953 1298 1292 1114 1389 1779 1824 1557 1401
50 70 269 264 103 34 50 287 236 279 234 268 231 275 303 288 555 561 634 781 835 921 1081 681 532 934 1126 1071 682 727 1064 1283 1258 1202 1164 882 1011 1603 1349 1488 1842 1483 1369
60 32 126 259 225 26 15 64 86 300 291 233 267 186 210 244 536 385 313 365 680 789 902 947 945 688 1050 1161 925 995 926 1039 1181 1047 794 906 882 1176 1672 1768 1518 1475 1425
35 29 51 98 102 37 8 43 50 252 219 108 127 244 254 307 390 595 630 506 507 414 488 667 716 981 793 911 657 683 1043 930 1080 923 877 857 1124 1056 1387 1863 1648 1556 1438
7 6 18 55 102 80 31 13 65 247 267 204 101 97 278 248 258 530 638 660 558 495 512 478 610 611 502 649 892 916 837 729 684 1038 838 719 842 1082 1278 1292 1779 1592 1696
0 0 14 66 175 132 79 26 19 121 104 38 32 23 114 283 410 609 731 660 627 424 387 573 634 654 687 827 1072 1108 857 588 785 786 1053 1056 1141 993 737 904 805 701 1115
2 6 6 42 93 216 223 222 113 134 94 61 47 43 77 143 251 302 310 411 633 817 830 832 774 636 616 552 444 543 645 661 595 602 572 722 1044 980 1185 1273 1309 1044 998
0 0 1 2 6 37 96 108 91 63 41 51 49 40 18 92 148 167 119 110 164 286 654 949 920 846 681 531 479 381 341 460 623 843 752 1082 870 849 887 960 973 795 644
0 0 1 3 2 1 1 0 1 10 94 94 68 21 18 0 0 33 2 6 47 81 140 326 505 561 349 115 239 362 642 812 953 1215 1031 937 664 771 529 527 520 701 789
0 0 1 0 0 1 1 1 1 1 1 1 1 0 1 3 0 0 0 0 0 0 0 0 32 65 22 0 0 30 698 1124 1195 1223 1243 977 1013 1126 1132 760 582 461 411
0 0 1 3 1 1 0 0 0 0 0 0 0 0 0 0 0 0 0 0 0 0 0 0 0 0 0 0 0 0 116 452 822 1083 1216 1301 1179 1184 1125 1036 1283 1145 1178
0 0 0 0 0 0 0 0 0 0 0 0 0 0 0 0 0 0 0 0 0 0 0 0 0 0 0 0 0 0 21 117 219 405 644 673 833 92 39 594 1168 1372 1404
0 0 0 0 0 0 0 0 0 0 0 0 0 0 0 0 0 0 0 0 0 0 0 0 0 0 0 0 0 0 0 0 0 39 14 0 0 0 0 0 490 965 1297
0 0 0 0 0 0 0 0 0 0 0 0 0 0 0 0 0 0 0 0 0 0 0 0 0 0 0 0 0 0 0 0 0 0 0 0 0 0 0 0 0 0 0
0 0 0 0 0 0 0 0 0 0 0 0 0 0 0 0 0 0 0 0 0 0 0 0 0 0 0 0 0 0 0 0 0 0 0 0 0 0 0 0 0 0 0
0 0 0 0 0 0 0 0 0 0 0 0 0 0 0 0 0 0 0 0 0 0 0 0 0 0 0 0 0 0 0 0 0 0 0 0 0 0 0 0 0 0 0
0 0 0 0 0 0 0 0 0 0 0 0 0 0 0 0 0 0 0 0 0 0 0 0 0 0 0 0 0 0 0 0 0 0 0 0 0 0 0 0 0 0 0
0 0 0 0 0 0 0 0 0 0 0 0 0 0 0 0 0 0 0 0 0 0 0 0 0 0 0 0 0 0 0 0 0 0 0 0 0 0 0 0 0 0 0
0 0 0 0 0 0 0 0 0 0 0 0 0 0 0 0 0 0 0 0 0 0 0 0 0 0 0 0 0 0 0 0 0 0 0 0 0 0 0 0 0 0 0

GFSMW_con_mlcape_096.txt.gz
CAPE
108 117 113 169 221 148 336 555 666 979 967 920 688 705 765 961 777 1042 1497 1498 1549 1437 1802 1276 1639 1674 1580 1808 1897 1305 1526 754 827 776 571 486 799 994 1011 989 1174 1276 1262
133 185 200 215 274 404 274 453 738 1207 984 923 740 734 744 871 950 1050 1375 1429 1415 1582 1639 1466 1350 1586 1388 1863 2080 2039 1042 789 1316 791 831 484 376 523 632 794 836 1258 1070
215 240 258 249 297 474 645 634 772 1046 1038 800 840 737 1054 1049 1082 1212 1224 1186 1348 1398 1652 1578 1403 1533 1771 1340 1765 1760 1796 736 1326 1896 1295 732 581 457 387 751 822 1240 1109
259 314 294 321 325 408 713 779 905 1087 1080 1061 689 546 534 538 662 985 1064 1179 1305 1109 1229 1688 1529 1785 1331 1526 1826 1696 1667 1950 1140 1327 1791 2235 2234 945 502 416 547 1000 1028
205 299 368 371 371 373 617 779 949 1093 705 1018 735 520 261 573 426 882 1311 1271 1359 1361 1123 1630 1638 1890 1305 1900 1914 2050 2150 1428 1500 1184 1684 2191 2063 2310 1123 437 369 589 768
173 233 337 440 516 408 539 667 955 1094 923 908 921 850 654 398 444 700 856 1035 1148 1364 1267 1433 1632 1730 1524 1584 1546 2084 2057 1927 1779 1689 1806 1619 1643 1634 1357 966 889 593 739
195 260 406 469 603 559 557 617 903 987 875 851 789 896 754 593 562 560 492 821 838 915 1343 1433 1365 1306 1701 1547 1387 1282 1746 1687 1477 1758 1372 1517 1647 2010 2035 1600 1103 768 889
225 218 367 257 460 624 593 477 665 1013 968 843 958 1010 1056 291 510 624 641 755 915 720 1124 815 932 1281 1352 1559 1734 1160 1020 1247 1314 1648 1835 1256 1448 1563 1741 1995 1809 1154 986
430 286 461 577 628 529 505 192 148 619 994 845 841 883 986 881 488 624 558 779 765 1172 918 679 655 761 989 1326 1465 855 1415 1694 1450 1354 1499 1223 973 1163 1359 1722 1851 1677 1200
728 459 444 606 411 189 69 39 506 356 779 596 744 599 306 309 329 598 545 702 1112 1399 937 907 781 766 831 1202 1479 961 1125 1580 1360 1025 1131 1181 592 931 1017 1132 1148 1411 1475
755 556 638 770 699 214 23 53 114 172 745 648 772 441 415 421 408 378 499 590 946 1285 1077 827 687 842 699 768 967 1038 1125 1430 1169 1279 1252 1201 1101 698 645 888 1027 807 841
268 360 554 626 660 538 90 37 7 63 96 734 487 276 450 438 407 410 468 723 622 915 996 1156 960 805 846 1045 1010 993 946 1183 964 746 938 1038 586 868 825 723 795 905 1020
71 103 222 315 498 282 114 64 75 135 384 249 270 266 106 195 340 532 513 711 891 698 616 744 764 733 990 927 1011 1364 1248 942 781 822 763 927 822 925 428 388 395 280 376
40 36 66 230 288 413 505 346 164 114 125 98 24 40 41 52 127 421 665 759 925 919 591 702 783 837 1347 1273 1270 1297 1382 1202 898 881 784 682 780 991 1123 1296 1047 1078 1138
104 34 18 31 60 269 674 558 409 296 320 160 76 77 80 61 46 239 585 742 858 920 970 1187 1335 1382 1364 1067 1348 1138 1076 1075 935 897 1021 932 811 812 814 911 951 1173 1006
69 9 2 2 7 13 109 336 327 217 305 164 109 49 93 68 89 145 294 388 418 524 823 983 1207 1164 941 45 97 380 1173 1218 1177 1292 1515 1319 1056 778 549 577 542 705 1033
46 3 5 3 3 1 1 0 0 0 12 6 2 2 5 14 0 0 1 60 141 167 166 297 616 68 0 0 0 0 752 1358 1466 1429 1353 1232 544 810 906 783 575 423 442
0 1 4 4 3 2 1 2 1 1 0 0 0 1 2 3 3 0 0 0 5 90 91 112 89 0 0 0 0 0 273 969 1294 1311 1354 1452 1361 17 338 1147 985 1042 1251
1 0 0 2 2 1 1 0 0 0 0 0 0 0 0 0 0 0 0 0 1 12 24 63 11 0 0 0 0 0 237 493 763 523 74 106 20 0 0 565 1193 1195 1216
1 4 0 0 0 0 0 0 0 0 0 0 0 0 0 0 0 0 0 0 0 1 2 3 0 0 0 0 0 0 0 0 22 250 2 0 0 0 0 0 90 409 761
0 0 0 0 0 0 0 0 0 0 0 0 0 0 0 0 0 0 0 0 0 0 0 0 0 0 0 0 0 0 0 0 0 0 0 0 0 0 0 0 0 0 0
0 0 0 0 0 0 0 0 0 0 0 0 0 0 0 0 0 0 0 0 0 0 0 0 0 0 0 0 0 0 0 0 0 0 0 0 0 0 0 0 0 0 0
0 0 0 0 0 0 0 0 0 0 0 0 0 0 0 0 0 0 0 0 0 0 0 0 0 0 0 0 0 0 0 0 0 0 0 0 0 0 0 0 0 0 0
0 0 0 0 0 0 0 0 0 0 0 0 0 0 0 0 0 0 0 0 0 0 0 0 0 0 0 0 0 0 0 0 0 0 0 0 0 0 0 0 0 0 0
0 0 0 0 0 0 0 0 0 0 0 0 0 0 0 0 0 0 0 0 0 0 0 0 0 0 0 0 0 0 0 0 0 0 0 0 0 0 0 0 0 0 0
0 0 0 0 0 0 0 0 0 0 0 0 0 0 0 0 0 0 0 0 0 0 0 0 0 0 0 0 0 0 0 0 0 0 0 0 0 0 0 0 0 0 0

GFSMW_con_mlcape_099.txt.gz
CAPE
54 65 73 65 102 174 208 263 628 734 971 873 519 637 607 643 620 1421 1297 1569 1411 1613 1913 1547 1539 1569 1759 1727 1264 1335 1624 438 485 1460 488 421 832 1089 1036 1304 1478 1466 1137
79 96 91 88 66 130 236 384 652 1257 1212 872 964 898 627 703 739 1271 1222 1426 1397 1658 1600 1635 1587 1758 1387 1854 1770 1910 1647 374 683 1074 995 440 647 728 769 971 1199 1434 946
111 109 107 89 132 192 210 343 581 1238 1021 1016 840 1361 1230 1114 1108 1243 1213 1315 1415 1431 1864 1878 1776 1531 2193 1611 1811 1341 1512 1017 509 1635 1895 1342 945 592 714 866 1158 1276 1001
48 124 133 142 135 345 476 558 585 1064 1138 791 842 651 536 356 859 910 1024 1431 1359 1250 1462 1558 1681 1960 1676 2001 1952 1360 1911 1522 735 525 1211 1740 2080 2103 531 516 849 1009 990
125 141 127 160 165 310 513 693 765 827 1054 944 1175 769 724 668 825 836 1172 993 1362 1310 1068 1406 1536 1762 1581 1610 2188 2036 2298 1207 1761 1003 1111 1783 1177 1084 1394 598 540 748 710
113 226 128 226 227 315 664 653 1015 1016 960 1121 1118 995 862 855 614 475 758 816 1295 1126 1171 1398 1516 1763 1869 1880 1760 1998 1998 2385 2086 2044 1539 1304 1470 1520 1333 835 540 791 664
112 125 179 218 305 357 612 833 1208 1291 1123 1111 864 649 874 1001 944 1042 452 471 600 767 1502 1284 1381 1461 1804 1634 1617 1837 2085 1850 1980 2083 1736 726 1144 1219 1445 1338 994 522 668
116 169 255 216 408 508 502 753 1238 1260 1179 968 976 860 734 551 487 892 1017 611 616 483 1481 1181 1229 1167 1560 1554 1416 1128 1098 1335 1443 1619 1962 1794 969 1259 1217 1352 1175 1139 591
246 246 313 514 819 794 781 929 1422 1326 1185 998 976 1149 1009 908 771 1044 1085 962 913 1155 1116 662 811 936 1052 1308 1418 937 1047 1454 1658 1648 1587 1333 1008 687 1167 1215 984 1070 959
605 313 597 700 362 294 1001 515 450 646 1070 1140 961 1073 974 799 608 680 800 811 624 925 1094 551 674 759 839 964 1383 1161 890 1178 1367 1134 1149 1353 873 840 600 772 794 790 850
899 863 645 832 1033 863 688 199 727 532 660 1189 977 959 830 654 736 596 479 588 691 1011 912 1125 995 950 1003 1047 1247 1244 1202 1574 1189 1306 1500 1160 1343 933 660 840 711 599 642
1247 1112 983 1019 876 657 163 75 24 48 142 734 578 962 555 701 714 553 566 479 894 961 1067 1077 1157 1205 1094 1121 1379 1279 863 1288 1159 910 852 923 793 1032 1107 507 543 425 625
915 1080 1129 1251 1200 660 335 279 145 52 18 23 216 614 695 740 805 651 696 577 541 1021 886 1036 953 858 994 1338 1403 1406 1369 1062 1079 896 843 820 735 751 584 826 697 426 385
270 380 593 812 817 901 816 495 308 131 98 235 126 135 121 103 112 128 330 615 680 813 858 916 1131 1011 1041 772 1303 1323 1310 1155 925 910 939 847 816 948 909 797 1136 847 626
212 116 125 231 427 843 861 600 342 297 369 286 271 204 57 65 48 68 208 375 797 692 819 811 939 1091 1027 474 564 1294 1307 1398 1267 1228 1118 1083 937 761 889 929 963 1187 1135
345 118 37 41 50 172 979 933 832 511 418 658 485 337 284 383 298 241 88 371 498 668 936 943 1229 1126 85 0 4 233 1217 1105 1253 1186 1259 1318 1198 918 632 290 247 498 955
205 98 32 22 8 5 53 272 520 661 738 466 350 281 228 194 254 228 143 161 202 343 538 654 329 42 0 0 0 0 163 989 1233 1368 1193 1417 699 821 1248 878 544 563 400
159 91 6 5 3 2 1 2 2 32 71 46 26 20 23 19 8 31 1 0 26 186 238 257 60 0 0 0 0 0 20 633 1213 1144 1308 1457 983 0 59 547 847 1137 1195
169 67 2 4 3 1 0 1 2 1 0 3 1 0 0 0 1 1 22 19 55 135 196 164 37 0 0 0 0 0 279 630 769 265 92 417 98 0 0 117 800 1166 1170
19 0 2 1 2 2 0 0 0 0 0 0 0 0 0 0 0 1 0 1 0 35 50 0 0 0 0 0 0 0 0 44 7 520 0 0 0 0 0 0 10 319 586
0 0 0 0 0 0 0 0 0 0 0 0 0 0 0 0 0 0 0 0 0 5 2 3 1 0 0 0 0 0 0 0 0 0 0 0 0 0 0 0 0 0 0
2 3 1 0 0 0 0 0 0 0 0 0 0 0 0 0 0 0 0 0 0 0 1 2 0 0 0 0 0 0 0 0 0 0 0 0 0 0 0 0 0 0 0
0 0 0 0 0 0 0 0 0 0 0 0 0 0 0 0 0 0 0 0 0 0 0 0 0 0 0 0 0 0 0 0 0 0 0 0 0 0 0 0 0 0 0
0 0 0 0 0 0 0 0 0 0 0 0 0 0 0 0 0 0 0 0 0 0 0 0 0 0 0 0 0 0 0 0 0 0 0 0 0 0 0 0 0 0 0
0 0 0 0 0 0 0 0 0 0 0 0 0 0 0 0 0 0 0 0 0 0 0 0 0 0 0 0 0 0 0 0 0 0 0 0 0 0 0 0 0 0 0
1 0 0 0 0 0 0 0 0 0 0 0 0 0 0 0 0 0 0 0 0 0 0 0 0 0 0 0 0 0 0 0 0 0 0 0 0 0 0 0 0 0 0

GFSMW_con_mlcape_102.txt.gz
CAPE
23 37 77 55 61 11 111 192 197 467 386 837 614 510 467 748 1079 762 1458 1662 1328 1346 1935 1677 1057 559 1199 932 1169 1549 1850 1051 1098 1592 724 567 853 1136 1134 1525 1593 1525 1851
43 46 68 59 22 26 117 140 838 945 953 760 734 791 426 793 1132 1567 1184 1147 1172 1505 1655 1543 1746 679 1313 1448 1551 1670 1935 593 832 1285 1731 732 990 986 977 1148 1339 1311 834
38 52 73 46 36 153 340 190 335 1163 832 795 516 713 281 739 717 980 1342 1185 1132 1234 1334 1710 994 1459 1320 1529 1636 1682 2079 1327 527 525 1866 1631 1106 556 529 652 1165 884 1218
68 70 69 41 37 84 251 896 598 845 891 518 572 667 454 123 673 666 654 903 1282 1243 1093 1339 1402 1435 237 715 1928 1624 1656 2211 1364 485 995 1018 1329 1492 841 764 845 1128 1227
96 61 54 57 57 12 70 311 865 1015 746 812 560 586 380 587 774 657 606 629 1178 1184 1023 1340 1420 1544 1286 1147 630 1749 1777 2156 1972 2095 1320 887 1876 1416 1268 619 499 796 1112
48 17 97 47 276 212 341 679 798 866 1084 907 909 488 713 659 607 217 430 707 1030 1173 1020 925 1389 1490 99 356 1615 1742 1552 1955 1620 1963 2153 552 319 457 490 922 633 787 550
114 98 63 148 261 517 396 800 945 959 1068 834 725 725 794 785 821 333 528 462 474 359 705 1151 1035 1206 1123 1371 1423 1591 1670 1929 1630 1853 1862 463 155 156 510 1744 332 520 754
138 95 152 54 478 650 983 1062 970 1191 1153 794 814 602 896 793 762 969 722 73 322 37 705 845 989 1211 1443 1095 1106 1084 902 1649 1505 1470 1558 1562 1512 892 1244 1151 137 733 625
22 67 111 144 112 116 650 102 1077 995 1211 1051 932 877 1004 720 725 860 1284 1144 316 32 226 129 850 726 1059 664 1138 928 901 877 503 898 1699 1104 1070 1089 1138 858 871 932 646
45 28 55 3 0 0 60 800 1102 1062 845 1079 1069 1114 1135 1085 877 949 948 776 215 7 0 1 519 800 657 740 859 1080 957 1003 317 1119 1151 1179 1159 1081 992 1251 831 1299 803
290 74 55 219 7 0 330 1097 982 1005 1025 951 804 874 979 990 819 764 632 677 373 76 108 566 809 828 674 746 941 958 871 796 895 862 865 946 1008 566 638 560 426 596 685
303 91 14 4 538 781 917 742 405 248 223 630 778 874 362 536 654 382 331 485 635 889 783 989 873 976 871 842 1016 1010 972 991 1071 1001 1014 941 467 930 1060 1073 1070 896 910
1126 466 844 896 966 865 726 760 366 216 137 392 158 100 589 621 733 470 105 275 636 651 1034 896 803 529 787 843 843 823 1054 946 958 1066 991 887 973 621 664 644 636 674 594
1196 1309 1206 1168 1064 1170 812 349 286 200 103 33 37 0 57 90 270 266 333 382 442 435 734 650 700 752 1105 905 924 1156 931 919 1145 941 866 988 972 678 734 595 763 693 690
477 827 545 705 1206 1178 909 771 651 392 208 151 111 81 61 13 6 48 59 80 53 321 597 669 665 280 145 51 97 250 787 735 1030 1012 964 1136 841 606 535 759 751 514 431
382 231 224 349 367 752 1137 807 517 415 446 283 247 248 284 145 91 74 26 29 42 164 367 258 584 172 0 0 0 0 556 659 734 767 945 1077 771 796 561 376 362 154 133
293 207 121 64 5 2 253 588 1100 738 631 617 548 359 302 415 355 234 147 72 32 84 73 268 79 0 0 0 0 0 67 347 478 614 718 687 457 42 57 475 460 362 361
185 101 21 2 2 2 1 12 127 374 368 327 384 297 278 132 108 85 37 0 21 59 105 117 0 0 0 0 0 0 9 108 587 1037 1299 1117 12 0 0 22 435 857 736
230 69 4 3 4 1 2 1 0 0 3 2 4 10 16 7 0 10 44 44 2 4 89 88 0 0 0 0 0 0 0 452 604 31 0 3 0 0 0 0 19 231 717
0 0 2 3 1 1 2 1 1 0 0 0 0 0 0 0 0 0 0 0 0 67 2 0 0 0 0 0 0 0 0 0 0 0 0 0 0 0 0 0 0 0 0
0 0 0 0 0 0 0 0 0 0 0 0 0 0 0 0 0 0 0 0 0 0 0 0 0 0 0 0 0 0 0 0 0 0 0 0 0 0 0 0 0 0 0
0 0 0 0 0 0 0 0 0 0 0 0 0 0 0 0 0 0 0 0 0 0 0 0 0 0 0 0 0 0 0 0 0 0 0 0 0 0 0 0 0 0 0
3 2 0 0 0 0 0 0 0 0 0 0 0 0 0 0 0 0 0 0 0 0 0 0 0 0 0 0 0 0 0 0 0 0 0 0 0 0 0 0 0 0 0
2 0 0 0 0 0 0 0 0 0 0 0 0 0 0 0 0 0 0 0 0 0 0 0 0 0 0 0 0 0 0 0 0 0 0 0 0 0 0 0 0 0 0
2 1 0 0 0 0 0 0 0 0 0 0 0 0 0 0 0 0 0 0 0 0 0 0 0 0 0 0 0 0 0 0 0 0 0 0 0 0 0 0 0 0 0
14 1 0 0 0 0 0 0 0 0 0 0 0 0 0 0 0 0 0 0 0 0 0 0 0 0 0 0 0 0 0 0 0 0 0 0 0 0 0 0 0 0 0

GFSMW_con_mlcape_105.txt.gz
CAPE
7 37 3 3 0 0 0 252 152 163 266 265 491 420 297 628 757 1057 1259 1246 1239 1577 1607 1456 112 0 1142 1446 1476 1539 1705 1142 1173 1169 807 724 734 868 913 1300 1262 1151 1255
4 38 14 12 0 0 78 220 209 223 431 557 638 564 453 750 745 924 1272 1543 950 1303 1628 1309 1023 855 1068 1618 1364 1412 2030 1315 632 1288 1356 438 555 691 834 1010 1290 1133 1309
9 23 15 10 0 0 117 203 261 260 431 532 490 375 428 652 573 973 857 1029 1258 1157 1250 954 710 730 744 706 849 1897 1983 1654 1624 1238 1509 1297 929 671 468 519 862 772 753
33 31 46 49 8 0 33 142 304 241 329 614 414 304 247 289 475 444 554 692 927 1118 1020 767 501 770 57 0 483 1683 1932 1792 1586 1652 1405 1082 1343 1182 323 403 632 400 705
19 31 36 31 74 148 95 112 232 127 356 283 566 523 237 179 549 480 461 145 528 1186 1056 1312 1258 926 530 850 1199 1063 1821 1736 1483 1433 997 846 553 265 647 677 467 507 551
45 31 87 65 149 217 405 212 217 197 774 601 523 350 400 467 417 361 379 604 548 626 1065 1028 1092 953 512 354 638 1610 1738 1768 1608 1241 682 206 189 12 440 237 8 23 205
63 54 67 57 97 131 425 630 424 317 662 524 327 342 745 479 339 90 239 576 538 363 538 632 1000 843 606 256 670 1080 1245 1588 1523 1472 876 452 412 9 1 574 379 0 21
48 36 17 52 152 159 288 328 707 441 491 886 774 763 649 494 626 686 399 159 186 168 312 559 867 832 1027 1062 1088 616 879 1010 1111 907 1476 1058 579 480 307 353 55 0 29
33 57 94 58 162 357 711 823 688 555 718 526 655 310 765 687 635 812 627 506 242 9 214 281 314 459 884 993 1004 798 602 775 649 489 809 1307 1332 1177 879 682 234 662 356
32 61 124 105 131 92 482 889 891 653 711 761 815 859 825 788 904 789 302 342 129 68 271 74 57 266 735 744 669 950 883 819 466 11 1229 1052 926 891 391 422 296 480 359
3 30 80 82 51 43 157 288 411 761 819 1069 743 557 539 471 758 712 663 330 133 6 0 0 299 577 793 650 758 677 695 472 732 685 879 643 614 973 1034 702 1008 730 786
28 41 91 59 84 3 49 0 0 522 815 930 639 446 48 359 494 366 359 370 321 265 325 535 862 823 911 771 840 928 928 951 685 672 826 727 680 390 690 655 607 525 524
1 42 101 49 32 20 1 45 23 569 446 668 491 272 183 24 464 333 112 156 410 753 940 845 827 687 673 707 830 876 723 644 754 709 794 810 789 909 527 320 234 672 568
37 69 73 91 15 31 218 195 500 411 331 271 166 129 155 179 271 339 259 63 175 271 372 528 755 595 329 323 364 497 554 603 679 861 855 788 699 559 589 580 446 683 411
400 244 123 167 13 132 453 433 403 235 174 83 46 50 54 22 24 29 22 20 4 12 150 473 277 113 43 9 7 41 228 467 550 725 777 618 561 418 426 465 529 628 337
367 436 330 289 163 545 434 460 526 436 347 169 144 165 97 46 19 10 15 0 2 0 37 39 24 0 0 0 0 0 87 476 703 549 362 463 153 119 121 237 393 230 246
102 150 91 120 145 257 425 612 644 551 451 343 353 323 298 202 276 196 154 67 1 0 4 0 0 0 0 0 0 0 0 126 295 406 483 327 0 0 0 16 350 410 313
172 25 7 1 1 4 135 238 528 587 598 703 580 425 308 177 119 59 27 0 13 17 0 0 0 0 0 0 0 0 17 115 228 136 174 21 0 0 0 0 68 250 117
70 0 0 1 1 1 1 18 144 181 202 159 183 164 120 41 11 0 29 7 0 10 3 0 0 0 0 0 0 0 30 193 1 0 0 0 0 0 0 0 0 0 3
3 0 0 1 0 1 1 0 0 0 0 0 0 0 0 0 0 0 0 0 0 6 0 0 0 0 0 0 0 0 0 0 0 0 0 0 0 0 0 0 0 0 0
0 0 0 0 0 0 0 0 0 0 0 0 0 0 0 0 0 0 0 0 0 0 0 0 0 0 0 0 0 0 0 0 0 0 0 0 0 0 0 0 0 0 0
0 0 0 0 0 0 0 0 0 0 0 0 0 0 0 0 0 0 0 0 0 0 0 0 0 0 0 0 0 0 0 0 0 0 0 0 0 0 0 0 0 0 0
0 0 0 0 0 0 0 0 0 0 0 0 0 0 0 0 0 0 0 0 0 0 0 0 0 0 0 0 0 0 0 0 0 0 0 0 0 0 0 0 0 0 0
0 0 0 0 0 0 0 0 0 0 0 0 0 0 0 0 0 0 0 0 0 0 0 0 0 0 0 0 0 0 0 0 0 0 0 0 0 0 0 0 0 0 0
0 0 0 0 0 0 0 0 0 0 0 0 0 0 0 0 0 0 0 0 0 0 0 0 0 0 0 0 0 0 0 0 0 0 0 0 0 0 0 0 0 0 0
3 2 0 0 0 0 0 0 0 0 0 0 0 0 0 0 0 0 0 0 0 0 0 0 0 0 0 0 0 0 0 0 0 0 0 0 0 0 0 0 0 0 0

GFSMW_con_mlcape_108.txt.gz
CAPE
5 12 110 39 41 37 52 0 60 322 194 388 423 210 427 778 775 1168 1107 985 1202 1409 1326 1224 191 640 975 1523 1499 1517 1447 707 744 999 726 523 390 578 691 938 1149 890 902
19 21 14 0 2 64 76 0 67 148 161 352 447 412 466 751 634 692 1139 1144 927 1105 1115 1098 737 748 829 778 1211 1899 1525 1543 1390 1121 791 308 433 439 676 709 1119 1047 1054
18 1 0 0 0 95 132 105 42 126 360 418 350 362 510 560 565 852 847 923 1113 1143 971 790 707 551 416 111 734 1474 1839 1260 1348 1216 1436 863 677 612 320 442 589 665 698
18 1 3 0 11 26 112 82 99 231 386 315 316 246 332 341 363 472 513 622 427 948 1084 652 540 572 1 23 831 1007 1699 1360 1208 1321 944 620 763 836 353 364 405 446 386
10 14 13 0 28 82 91 129 168 207 308 273 247 260 196 213 418 396 379 376 334 871 1152 415 763 634 423 654 900 1282 1303 1477 1079 821 391 400 232 312 402 396 71 291 356
15 45 26 19 23 45 103 122 107 132 171 261 355 343 206 179 267 263 396 298 352 579 840 1163 1055 600 535 327 344 1265 1376 1446 1150 762 144 170 52 162 167 282 113 63 44
80 44 22 46 42 38 6 0 92 107 122 288 415 289 289 335 295 252 143 415 384 397 509 735 876 586 409 4 148 970 890 1147 871 1190 852 221 268 6 108 478 331 47 0
98 72 6 63 66 110 53 63 120 94 311 359 272 263 459 413 282 82 83 472 410 257 311 415 757 761 769 743 870 782 636 852 691 587 731 1050 551 236 457 366 245 311 145
102 93 43 76 124 182 251 211 194 191 361 332 228 336 387 366 403 525 371 196 153 180 193 408 314 437 573 692 800 795 626 609 569 240 376 834 995 636 450 355 148 450 389
79 124 96 63 161 165 241 669 331 264 367 481 546 452 430 437 498 546 359 413 330 125 37 277 171 219 384 672 761 702 602 633 638 177 375 741 555 764 699 540 365 519 328
28 135 165 150 181 290 369 277 399 496 454 490 618 371 593 707 614 424 206 195 127 65 109 80 0 209 467 705 646 576 595 500 317 465 397 414 585 440 642 579 674 380 502
43 103 158 137 111 127 31 7 171 432 548 624 516 709 645 587 550 516 400 240 152 9 0 0 189 545 631 736 605 512 677 457 474 396 504 463 714 389 489 463 290 301 437
65 100 107 54 46 30 11 1 111 95 274 369 351 322 200 61 358 308 238 262 295 308 232 457 551 571 594 624 570 642 621 670 605 588 494 570 574 516 584 341 248 362 432
21 59 87 79 48 109 42 28 117 84 216 154 283 221 114 52 197 215 105 107 276 195 282 435 678 364 116 100 115 243 242 361 359 497 595 590 678 555 416 449 436 416 387
53 60 51 81 114 94 149 64 117 196 148 186 187 217 177 129 129 94 106 71 49 78 72 173 114 56 26 1 0 4 33 221 33 330 399 244 183 211 175 217 310 424 325
156 92 104 131 93 76 87 213 222 219 216 150 86 85 77 65 62 44 18 0 23 19 59 2 0 0 0 0 0 0 0 95 360 291 255 42 20 37 33 92 194 302 253
355 179 183 161 128 108 95 6 66 233 183 158 176 175 130 136 153 138 101 58 42 47 3 0 0 0 0 0 0 0 1 39 255 277 261 55 0 0 0 14 235 217 115
260 151 31 24 6 14 71 65 50 202 249 243 258 307 327 307 250 147 58 21 59 47 0 0 0 0 0 0 0 0 8 42 68 81 15 0 0 0 0 0 0 63 0
3 1 1 0 1 1 8 82 183 181 386 396 425 381 317 234 128 35 0 0 23 0 0 0 0 0 0 0 0 9 15 0 1 0 0 0 0 0 0 0 0 0 0
0 0 1 1 1 0 1 61 72 156 194 137 157 151 136 83 19 0 0 0 32 2 0 0 0 0 0 0 0 0 0 0 0 0 0 0 0 0 0 0 0 0 0
0 0 0 0 1 1 1 6 3 24 1 0 0 0 0 0 0 0 0 0 22 0 0 0 0 0 0 0 0 0 0 0 0 0 0 0 0 0 0 0 0 0 0
0 0 0 0 0 0 0 0 0 1 0 0 0 0 0 0 0 0 0 0 0 0 0 0 0 0 0 0 0 0 0 0 0 0 0 0 0 0 0 0 0 0 0
0 0 0 0 0 0 0 0 0 0 0 0 0 0 0 0 0 0 0 0 0 0 0 0 0 0 0 0 0 0 0 0 0 0 0 0 0 0 0 0 0 0 0
0 0 0 0 0 0 0 0 0 0 0 0 0 0 0 0 0 0 0 0 0 0 0 0 0 0 0 0 0 0 0 0 0 0 0 0 0 0 0 0 0 0 0
0 0 0 0 0 0 0 0 0 0 0 0 0 0 0 0 0 0 0 0 0 0 0 0 0 0 0 0 0 0 0 0 0 0 0 0 0 0 0 0 0 0 0
0 0 0 0 0 0 0 0 0 0 0 0 0 0 0 0 0 0 0 0 0 0 0 0 0 0 0 0 0 0 0 0 0 0 0 0 0 0 0 0 0 0 0

GFSMW_con_mlcape_111.txt.gz
CAPE
43 67 83 40 7 0 0 68 213 234 278 287 307 398 455 515 574 868 918 1101 953 1044 1001 777 0 640 1016 1096 1729 1524 1069 791 713 778 552 386 344 290 431 433 635 654 564
23 84 82 55 16 0 0 20 122 177 220 252 187 317 450 613 547 746 902 953 921 1103 740 835 653 602 515 787 1505 1599 1163 1277 1132 1104 354 216 275 267 224 358 450 634 742
1 86 85 50 0 0 0 0 91 111 207 300 269 285 443 466 547 566 691 743 1005 1131 929 730 491 442 178 382 984 1489 1198 1109 1045 1033 825 461 492 433 235 348 360 449 582
9 90 71 38 39 6 44 0 120 114 208 220 234 217 254 322 412 425 542 631 478 695 1023 650 492 271 0 473 877 1064 1263 956 922 562 411 427 553 641 279 267 323 313 417
7 63 61 39 26 59 10 0 68 163 209 215 222 180 201 226 297 277 356 380 322 686 929 557 434 425 319 561 976 1060 996 1030 622 296 275 281 156 121 273 304 116 147 303
17 49 67 39 46 42 105 0 0 105 208 151 183 182 176 208 273 274 301 269 339 507 819 904 538 597 479 391 553 1033 1165 973 768 294 172 204 89 103 94 161 89 124 53
14 39 57 4 38 34 120 26 0 45 180 147 149 197 203 180 158 183 204 288 274 296 507 794 841 591 343 93 1 776 688 957 805 770 453 204 43 16 184 323 235 101 6
8 48 79 32 57 41 113 84 15 35 64 70 132 290 243 158 177 228 188 161 301 209 249 421 775 560 397 175 517 677 584 727 589 361 723 686 263 114 304 279 156 358 209
34 74 92 82 58 34 56 85 5 0 92 45 176 273 263 269 312 257 73 97 324 256 194 316 466 621 548 611 696 702 463 449 395 287 163 738 611 299 190 197 61 234 180
56 51 65 133 110 96 72 91 59 7 30 93 262 156 214 347 325 337 397 240 189 158 51 183 211 219 280 407 647 706 601 411 392 186 57 511 458 574 490 420 287 283 322
36 52 23 136 166 189 162 157 154 140 142 270 316 226 332 324 344 438 399 253 253 154 29 54 132 54 180 357 563 508 509 503 268 235 386 280 419 383 447 391 521 311 290
77 87 109 184 217 223 239 237 234 276 317 320 417 496 427 445 494 456 331 158 111 21 0 7 30 0 321 554 580 526 606 529 360 198 204 365 492 532 358 459 345 207 311
43 93 130 146 187 214 194 262 251 235 314 433 312 217 194 281 217 296 347 294 205 84 48 48 181 487 545 540 522 528 554 599 671 537 475 459 498 499 495 332 254 229 381
41 33 102 154 154 120 98 89 13 35 146 277 217 189 140 110 18 140 98 137 166 173 273 326 432 463 217 176 158 207 362 368 386 488 506 490 516 508 387 300 259 330 303
38 47 89 93 93 49 14 0 9 43 80 164 109 52 80 217 125 66 90 81 85 47 87 219 153 70 58 14 0 0 26 105 134 225 331 232 118 103 88 61 80 132 212
23 32 40 59 74 81 98 47 78 90 128 66 104 108 114 154 124 98 83 61 11 4 44 39 25 0 0 0 0 0 0 45 170 160 160 78 3 3 14 11 29 99 151
107 92 117 100 95 82 126 180 131 104 123 126 87 74 79 134 117 73 46 9 2 29 17 3 0 0 0 0 0 0 0 22 144 223 224 24 0 0 0 6 1 0 0
76 56 50 111 89 80 79 47 37 93 72 141 84 142 102 129 210 216 169 102 77 35 4 0 0 0 0 0 0 0 0 10 11 16 14 0 0 0 0 0 13 0 0
1 1 0 1 0 0 1 31 35 8 42 181 197 183 212 228 226 156 53 62 44 0 0 0 0 0 0 0 0 0 0 4 0 0 0 0 0 0 0 0 0 0 0
0 0 1 1 1 1 2 1 39 1 3 6 84 233 283 239 150 72 11 9 11 0 0 0 0 0 0 0 0 0 0 0 0 0 0 0 0 0 0 0 0 0 0
0 0 0 0 2 3 1 0 1 0 2 2 1 1 39 25 10 0 0 12 17 0 0 0 0 0 0 0 0 0 0 0 0 0 0 0 0 0 0 0 0 0 0
0 0 0 0 0 0 0 1 1 2 1 2 2 1 0 0 0 0 0 1 2 0 0 0 0 0 0 0 0 0 0 0 0 0 0 0 0 0 0 0 0 0 0
0 0 0 0 0 0 0 0 0 0 0 0 0 0 0 0 0 0 0 0 0 0 0 0 0 0 0 0 0 0 0 0 0 0 0 0 0 0 0 0 0 0 0
0 0 0 0 0 0 0 0 0 0 0 0 0 0 0 0 0 0 0 0 0 0 0 0 0 0 0 0 0 0 0 0 0 0 0 0 0 0 0 0 0 0 0
0 0 0 0 0 0 0 0 0 0 0 0 0 0 0 0 0 0 0 0 0 0 0 0 0 0 0 0 0 0 0 0 0 0 0 0 0 0 0 0 0 0 0
0 0 0 0 0 0 0 0 0 0 0 0 0 0 0 0 0 0 0 0 0 0 0 0 0 0 0 0 0 0 0 0 0 0 0 0 0 0 0 0 0 0 0

GFSMW_con_mlcape_114.txt.gz
CAPE
84 82 56 27 7 54 92 173 285 348 264 260 228 336 366 456 279 562 757 707 766 854 891 579 59 930 928 1330 1432 1031 885 866 530 659 434 330 273 263 245 305 404 596 806
70 90 68 36 21 73 64 119 183 221 250 188 170 278 306 421 473 685 821 795 800 889 612 427 374 742 499 1145 1374 1127 918 892 739 791 221 238 238 269 282 334 414 474 564
0 72 84 27 21 9 3 10 122 151 182 186 197 296 358 400 471 609 672 862 869 805 869 695 594 489 65 791 1066 1121 919 771 693 663 600 346 415 353 308 379 391 440 568
36 80 94 44 20 0 0 0 64 90 152 173 157 207 282 339 304 381 380 626 618 829 745 632 332 79 0 691 866 1054 953 711 637 442 286 328 510 572 370 291 338 347 432
19 63 77 82 35 0 0 0 0 43 128 171 174 147 180 218 239 322 363 485 388 524 855 677 445 162 99 600 909 809 838 664 353 255 251 225 119 97 300 367 241 116 211
2 74 103 107 64 1 0 0 0 50 108 126 122 139 143 150 221 251 212 294 291 367 661 781 54 481 310 307 676 880 882 691 394 171 194 181 74 113 97 175 148 166 157
3 39 70 63 46 17 0 0 0 68 95 114 131 130 133 148 184 188 196 242 241 290 430 626 631 611 425 166 12 586 648 803 631 530 327 216 0 15 270 273 232 177 63
0 10 16 50 57 61 75 89 0 42 105 145 120 118 125 134 135 146 164 211 198 237 209 374 680 614 399 40 0 537 453 560 610 357 565 531 202 102 267 244 198 289 262
0 0 20 46 69 84 81 99 85 33 67 125 116 121 187 165 108 124 169 115 120 228 168 195 453 566 495 411 485 606 327 320 282 185 212 656 619 187 169 138 53 112 117
0 9 28 32 43 84 96 102 113 39 0 115 87 65 153 199 174 233 233 120 140 187 137 129 210 365 352 365 432 561 579 422 290 107 13 339 467 509 388 411 155 189 233
16 14 8 24 23 61 73 108 126 78 67 113 106 108 211 151 271 250 252 241 197 157 138 61 75 134 113 192 337 450 533 412 306 246 238 342 284 306 346 440 355 239 207
7 34 29 59 38 80 87 94 119 122 113 133 132 197 209 231 298 301 269 148 131 80 73 58 98 67 0 206 380 411 413 432 446 325 143 184 362 413 352 275 417 270 147
18 26 46 56 82 135 145 145 140 135 160 154 196 305 275 350 352 333 222 164 106 52 7 0 0 41 201 383 450 406 379 481 463 484 424 321 337 378 401 432 280 188 197
36 79 105 93 53 101 186 202 180 197 200 214 240 251 264 313 127 33 24 55 74 93 127 135 232 315 368 315 292 209 234 229 340 492 499 477 459 427 450 309 242 186 229
74 98 132 137 65 102 156 162 174 165 211 242 250 223 144 157 104 86 36 30 64 52 38 94 120 83 66 33 31 12 14 48 149 277 418 318 182 133 88 99 58 45 27
87 100 83 120 127 187 160 85 48 0 73 203 164 137 48 42 56 94 108 35 56 79 49 25 19 7 0 0 0 0 0 0 30 154 214 66 1 0 0 6 45 56 97
126 139 137 139 85 107 96 58 31 7 14 62 66 65 72 96 91 107 88 77 58 24 14 0 0 0 0 0 0 0 0 0 30 122 129 6 0 0 0 0 0 0 0
67 56 92 112 47 90 176 122 78 72 40 43 65 66 76 47 65 86 85 61 25 13 6 0 0 0 0 0 0 0 0 0 0 1 0 0 0 0 0 3 28 0 0
14 5 1 2 1 7 41 78 102 79 65 44 51 76 53 43 86 92 66 56 38 1 0 0 0 0 0 0 0 0 0 0 0 0 0 0 0 0 0 0 0 0 0
0 1 2 2 1 2 1 26 46 109 40 55 87 89 90 103 55 24 14 2 11 0 0 0 0 0 0 0 0 0 0 0 0 0 0 0 0 0 0 0 0 0 0
0 0 0 1 1 3 1 0 0 0 0 0 0 0 36 62 18 2 0 3 0 0 0 0 0 0 0 0 0 0 0 0 0 0 0 0 0 0 0 0 0 0 0
0 0 0 0 1 2 1 1 1 2 1 1 0 0 0 1 1 0 4 7 0 0 0 0 0 0 0 0 0 0 0 0 0 0 0 0 0 0 0 0 0 0 0
0 0 0 0 0 0 0 0 1 0 0 1 1 1 2 1 0 0 0 12 0 0 0 0 0 0 0 0 0 0 0 0 0 0 0 0 0 0 0 0 0 0 0
0 0 0 0 0 0 0 0 0 0 0 0 0 0 0 0 0 0 0 0 0 0 0 0 0 0 0 0 0 0 0 0 0 0 0 0 0 0 0 0 0 0 0
0 0 0 0 0 0 0 0 0 0 0 0 0 0 0 0 0 0 0 0 0 0 0 0 0 0 0 0 0 0 0 0 0 0 0 0 0 0 0 0 0 0 0
0 0 0 0 0 0 0 0 0 0 0 0 0 0 0 0 0 0 0 0 0 0 0 0 0 0 0 0 0 0 0 0 0 0 0 0 0 0 0 0 0 0 0

GFSMW_con_mlcape_120.txt.gz
CAPE
164 303 333 225 159 191 290 565 665 883 961 970 915 839 803 1120 1060 1026 1696 1587 1945 2165 2287 1239 1443 2013 1949 2227 2274 1993 2091 1471 1724 1028 835 870 842 755 818 952 1007 1211 1283
109 245 329 295 202 183 316 543 683 899 1208 995 1023 904 724 974 912 1010 1324 1441 1912 1934 1934 1929 1322 2101 1562 2574 2442 2343 1345 1332 1740 1168 719 395 443 366 702 1051 1157 1273 1362
67 178 288 323 213 223 230 423 711 803 869 897 930 1067 1255 1052 1175 1271 1176 1268 1580 1729 2096 1931 1483 1883 1423 1484 2543 2377 2074 1163 1767 2258 1458 496 492 724 898 1219 1221 1680 1457
41 75 207 309 242 244 296 289 587 821 695 827 895 734 405 547 835 1070 1053 1218 1336 1433 1749 1675 1725 1860 1200 1647 1783 1946 2443 1812 1328 1437 1356 1869 1719 860 768 1037 1080 1281 1326
4 65 131 229 240 237 304 314 582 906 876 1172 925 486 429 450 645 786 1079 1069 1442 1493 1178 1803 1822 1582 861 1365 2144 2099 2551 1772 1228 1021 1303 1471 1106 1252 919 598 928 887 944
8 48 118 179 245 232 274 301 489 836 624 1166 557 668 519 561 655 632 722 793 760 903 1459 1553 1796 1526 1332 1215 1513 2178 2070 2238 1847 1361 1219 979 829 719 756 645 809 900 805
59 49 120 160 232 240 247 302 405 590 629 988 790 425 423 501 471 487 427 595 615 780 1000 1336 1407 1163 1504 1444 1238 1937 1973 1858 1737 1900 1302 1223 765 714 925 778 616 646 678
136 67 95 181 213 291 273 294 315 464 523 642 414 717 585 554 428 405 527 418 529 538 560 781 936 991 1378 1326 1399 866 1002 1022 1369 1679 1763 1023 1098 966 1035 964 780 386 429
57 126 92 228 262 313 298 331 330 397 347 425 602 786 1012 728 572 848 827 531 704 831 920 1044 966 803 929 920 1027 734 876 1229 1401 1063 1410 1070 510 831 647 715 631 418 80
33 138 118 236 346 339 336 395 388 318 309 321 495 622 704 975 975 986 1058 831 922 1046 1095 1272 1193 1112 1137 1211 1383 889 1083 1164 935 745 820 1144 490 829 787 635 505 478 367
73 117 147 261 368 361 341 481 446 301 322 352 454 478 547 678 898 820 1109 1208 1404 1346 1348 1467 1385 1280 1195 1257 1466 1302 931 1174 1006 994 1022 953 1117 742 380 345 394 368 415
65 47 200 336 345 352 364 591 535 492 453 390 537 723 688 775 589 791 926 1216 1315 1285 1472 1435 1320 1095 1185 1179 1304 1193 794 902 896 735 755 727 585 804 1047 527 528 509 759
165 66 103 373 323 233 457 495 658 661 661 666 695 761 766 853 611 838 942 1219 1249 1259 1047 1035 1047 1032 991 987 1003 1015 861 919 847 682 768 739 772 756 813 642 598 539 637
226 100 31 80 82 69 106 513 662 718 789 758 800 785 772 700 747 934 1085 1141 1139 1158 1093 1151 1114 951 760 830 1024 925 811 804 757 872 788 749 782 909 1010 719 938 196 548
396 276 46 17 46 44 83 445 732 847 876 858 805 848 809 761 933 800 1020 1064 920 760 725 735 734 961 1010 788 1152 1114 939 797 844 925 1012 526 579 175 323 501 247 132 490
382 413 288 85 50 35 38 110 669 1035 750 433 284 667 1011 993 961 710 946 856 572 465 476 461 596 622 340 0 0 0 155 557 661 651 708 967 17 1 0 2 7 54 140
573 386 412 301 257 85 61 61 393 752 479 229 297 722 873 642 673 773 818 372 117 290 240 375 387 110 12 0 0 0 0 84 181 500 731 947 133 58 174 0 0 0 0
613 623 556 420 114 78 93 52 70 174 486 254 244 341 254 369 541 152 85 44 81 103 116 141 150 52 0 0 0 0 0 27 213 112 498 790 84 0 0 0 0 0 0
40 57 76 120 170 86 52 57 38 24 45 97 89 138 70 125 108 36 17 41 62 91 12 0 0 0 0 0 0 0 12 10 0 0 0 0 0 0 0 0 61 0 0
5 4 3 11 35 127 259 162 82 83 117 111 128 154 179 132 66 24 23 38 17 0 0 0 0 0 0 0 0 1 93 109 82 1 0 0 0 0 0 0 0 0 0
4 4 3 4 5 19 158 358 325 249 208 119 54 27 12 5 79 52 32 3 0 0 1 1 0 0 0 0 0 0 40 47 63 29 2 0 0 0 0 0 0 0 0
3 4 3 4 4 3 0 1 15 8 11 12 2 1 1 2 5 2 0 1 1 0 2 1 0 0 0 0 0 0 0 0 7 19 3 0 0 0 0 0 0 0 0
1 1 0 0 0 1 1 0 1 3 2 0 0 1 2 1 1 1 0 0 1 0 0 0 0 0 0 0 0 0 0 0 0 0 0 0 0 0 0 0 0 0 0
6 0 0 0 0 0 0 1 0 0 1 1 1 1 4 1 1 0 0 1 3 3 5 6 1 0 0 0 0 0 0 0 0 0 0 0 0 0 0 0 0 0 0
0 1 0 0 0 0 0 0 0 0 0 0 0 0 0 0 0 0 0 0 0 0 1 1 2 0 0 0 0 0 0 0 0 0 0 0 0 0 0 0 0 0 0
0 0 0 0 0 0 0 0 0 0 0 0 0 0 0 0 0 0 0 0 0 0 0 0 0 0 0 0 0 0 0 0 0 0 0 0 0 0 0 0 0 0 0